[[{"header":{"parameterUnit":"m.s-1","parameterCategory":1,"la1":30.6,"la2":29.2853,"lo1":-89.7004,"lo2":-87.6739,"dx":0.0162,"dy":0.0183,"nx":112,"ny":82,"refTime":"2022-12-30T18:00:00:Z","depth":0,"parameterNumber":2,"parameterNumberName":"U-component_of_WINDS"},"data":[0.0,0.0,0.0,0.0,0.0,0.0,0.0,0.0,0.0,0.0,0.0,0.0,0.0,0.0,0.0,0.0,0.0,0.0,0.0,0.0,0.0,0.0,0.0,0.0,0.0,0.0,0.0,0.0,0.0,0.0,0.0,0.0,0.0,0.0,0.0,0.0,0.0,0.0,0.0,0.0,0.0,0.0,0.0,0.0,0.0,0.0,0.0,0.0,0.0,0.0,0.0,0.0,0.0,0.0,0.0,0.0,0.0,0.0,0.0,0.0,0.0,0.0,0.0,0.0,0.0,0.0,0.0,0.0,0.0,0.0,0.0,0.0,0.0,0.0,0.0,0.0,0.0,0.0,0.0,0.0,0.0,0.0,0.0,0.0,0.0,0.0,0.0,0.0,0.0,0.0,1.7806,1.8618,1.9214,1.924,1.8447,1.8257,1.7817,1.6892,0.0,0.0,0.0,0.0,0.0,0.0,0.0,0.0,0.0,0.0,0.0,0.0,0.0,0.0,0.0,0.0,0.0,0.0,0.0,0.0,0.0,0.0,0.0,0.0,0.0,0.0,0.0,0.0,0.0,0.0,0.0,0.0,0.0,0.0,0.0,0.0,0.0,0.0,0.0,0.0,0.0,0.0,0.0,0.0,0.0,0.0,0.0,0.0,0.0,0.0,0.0,0.0,0.0,0.0,0.0,0.0,0.0,0.0,0.0,0.0,0.0,0.0,0.0,0.0,0.0,0.0,0.0,0.0,0.0,0.0,0.0,0.0,0.0,0.0,0.0,0.0,0.0,0.0,0.0,0.0,0.0,0.0,0.0,0.0,0.0,0.0,0.0,0.0,0.0,0.0,0.0,0.0,0.0,0.0,0.0,0.0,0.0,0.0,0.0,0.0,0.0,0.0,0.0,0.0,1.8437,1.9571,1.9781,1.9772,1.9645,1.9052,1.846,1.7914,0.0,0.0,0.0,0.0,0.0,0.0,0.0,0.0,0.0,0.0,0.0,0.0,0.0,0.0,0.0,0.0,0.0,0.0,0.0,0.0,0.0,0.0,0.0,0.0,0.0,0.0,0.0,0.0,0.0,0.0,0.0,0.0,0.0,0.0,0.0,0.0,0.0,0.0,0.0,0.0,0.0,0.0,0.0,0.0,0.0,0.0,0.0,0.0,0.0,0.0,0.0,0.0,0.0,0.0,0.0,0.0,0.0,0.0,0.0,0.0,0.0,0.0,0.0,0.0,0.0,0.0,0.0,0.0,0.0,0.0,0.0,0.0,0.0,0.0,0.0,0.0,0.0,0.0,0.0,0.0,0.0,0.0,0.0,0.0,0.0,0.0,0.0,0.0,0.0,0.0,0.0,0.0,0.0,0.0,0.0,0.0,0.0,0.0,0.0,0.0,0.0,0.0,0.0,1.8991,2.0006,2.0542,2.0991,2.1039,2.0528,2.0193,1.9458,1.8178,1.769,0.0,0.0,0.0,0.0,0.0,0.0,0.0,0.0,0.0,0.0,0.0,0.0,0.0,0.0,0.0,0.0,0.0,0.0,0.0,0.0,0.0,0.0,0.0,0.0,0.0,0.0,0.0,0.0,0.0,0.0,0.0,0.0,0.0,0.0,0.0,0.0,0.0,0.0,0.0,0.0,0.0,0.0,0.0,0.0,0.0,0.0,0.0,0.0,0.0,0.0,0.0,0.0,0.0,0.0,0.0,0.0,0.0,0.0,0.0,0.0,0.0,0.0,0.0,0.0,0.0,0.0,0.0,0.0,0.0,0.0,0.0,0.0,0.0,0.0,0.0,0.0,0.0,0.0,0.0,0.0,0.0,0.0,0.0,0.0,0.0,0.0,0.0,0.0,0.0,0.0,0.0,0.0,0.0,0.0,0.0,0.0,0.0,0.0,0.0,0.0,0.0,0.0,2.0323,2.1361,2.1549,2.2112,2.2167,2.1465,2.1235,2.0374,1.8534,1.8264,0.0,0.0,0.0,0.0,0.0,0.0,0.0,0.0,0.0,0.0,0.0,0.0,0.0,0.0,0.0,0.0,0.0,0.0,0.0,0.0,0.0,0.0,0.0,0.0,0.0,0.0,0.0,0.0,0.0,0.0,0.0,0.0,0.0,0.0,0.0,0.0,0.0,0.0,0.0,0.0,0.0,0.0,0.0,0.0,0.0,0.0,0.0,0.0,0.0,0.0,0.0,0.0,0.0,0.0,0.0,0.0,0.0,0.0,0.0,0.0,0.0,0.0,0.0,0.0,0.0,0.0,0.0,0.0,0.0,0.0,0.0,0.0,0.0,0.0,0.0,0.0,0.0,0.0,0.0,0.0,0.0,0.0,0.0,0.0,0.0,0.0,0.0,0.0,0.0,0.0,0.0,0.0,0.0,0.0,0.0,0.0,0.0,0.0,0.0,0.0,0.0,0.0,2.0704,2.1841,2.253,2.2651,2.2642,2.259,2.1953,2.0952,1.9481,1.8693,0.0,0.0,0.0,0.0,0.0,0.0,0.0,0.0,0.0,0.0,0.0,0.0,0.0,0.0,0.0,0.0,0.0,0.0,0.0,0.0,0.0,0.0,0.0,0.0,0.0,0.0,0.0,0.0,0.0,0.0,0.0,0.0,0.0,0.0,0.0,0.0,0.0,0.0,0.0,0.0,0.0,0.0,0.0,0.0,0.0,0.0,0.0,0.0,0.0,0.0,0.0,0.0,0.0,0.0,0.0,0.0,0.0,0.0,0.0,0.0,0.0,0.0,0.0,0.0,0.0,0.0,0.0,0.0,0.0,0.0,0.0,0.0,0.0,0.0,0.0,0.0,0.0,0.0,0.0,0.0,0.0,0.0,0.0,0.0,0.0,0.0,0.0,0.0,0.0,0.0,0.0,0.0,0.0,0.0,0.0,0.0,0.0,0.0,0.0,0.0,0.0,0.0,2.1471,2.2946,2.334,2.385,2.4143,2.4143,2.3436,2.2197,2.0423,0.0,0.0,0.0,0.0,0.0,0.0,0.0,0.0,0.0,0.0,0.0,0.0,0.0,0.0,0.0,0.0,0.0,0.0,0.0,0.0,0.0,0.0,0.0,0.0,0.0,0.0,0.0,0.0,0.0,0.0,0.0,0.0,0.0,0.0,0.0,0.0,0.0,0.0,0.0,0.0,0.0,0.0,0.0,0.0,0.0,0.0,0.0,0.0,0.0,0.0,0.0,0.0,0.0,0.0,0.0,0.0,0.0,0.0,0.0,0.0,0.0,0.0,0.0,0.0,0.0,0.0,0.0,0.0,0.0,0.0,0.0,0.0,0.0,0.0,0.0,0.0,0.0,0.0,0.0,0.0,0.0,0.0,0.0,0.0,0.0,0.0,0.0,0.0,0.0,0.0,0.0,0.0,0.0,0.0,0.0,0.0,0.0,0.0,0.0,0.0,0.0,0.0,2.0097,2.2152,2.375,2.4149,2.4678,2.5005,2.5005,2.4281,2.3072,2.1312,0.0,0.0,0.0,0.0,0.0,0.0,0.0,0.0,0.0,0.0,0.0,0.0,0.0,0.0,0.0,0.0,0.0,0.0,0.0,0.0,0.0,0.0,0.0,0.0,0.0,0.0,0.0,0.0,0.0,0.0,0.0,0.0,0.0,0.0,0.0,0.0,0.0,0.0,0.0,0.0,0.0,0.0,0.0,0.0,0.0,0.0,0.0,0.0,0.0,0.0,0.0,0.0,0.0,0.0,0.0,0.0,0.0,0.0,0.0,0.0,0.0,0.0,0.0,0.0,0.0,0.0,0.0,0.0,0.0,0.0,0.0,0.0,0.0,0.0,0.0,0.0,0.0,0.0,0.0,0.0,0.0,0.0,0.0,0.0,0.0,0.0,0.0,0.0,0.0,0.0,0.0,0.0,0.0,0.0,0.0,0.0,0.0,0.0,0.0,0.0,0.0,0.0,2.0998,2.2696,2.4115,2.4936,2.5023,2.5023,2.5023,2.4298,2.3339,0.0,0.0,0.0,0.0,0.0,0.0,0.0,0.0,0.0,0.0,0.0,0.0,0.0,0.0,0.0,0.0,0.0,0.0,0.0,0.0,0.0,0.0,0.0,0.0,0.0,0.0,0.0,0.0,0.0,0.0,0.0,0.0,0.0,0.0,0.0,0.0,0.0,0.0,0.0,0.0,0.0,0.0,0.0,0.0,0.0,0.0,0.0,0.0,0.0,0.0,0.0,0.0,0.0,0.0,0.0,0.0,0.0,0.0,0.0,0.0,0.0,0.0,0.0,0.0,0.0,0.0,0.0,0.0,0.0,0.0,0.0,0.0,0.0,0.0,0.0,0.0,0.0,0.0,0.0,0.0,0.0,0.0,0.0,0.0,0.0,0.0,0.0,0.0,0.0,0.0,0.0,0.0,0.0,0.0,0.0,0.0,0.0,0.0,0.0,0.0,0.0,0.0,0.0,2.1939,2.4002,2.5523,2.5764,2.6281,2.6626,2.6626,2.5885,2.478,2.3249,0.0,0.0,0.0,0.0,0.0,0.0,0.0,0.0,0.0,0.0,0.0,0.0,0.0,0.0,0.0,0.0,0.0,0.0,0.0,0.0,0.0,0.0,0.0,0.0,0.0,0.0,0.0,0.0,0.0,0.0,0.0,0.0,0.0,0.0,0.0,0.0,0.0,0.0,0.0,0.0,0.0,0.0,0.0,0.0,0.0,0.0,0.0,0.0,0.0,0.0,0.0,0.0,0.0,0.0,0.0,0.0,0.0,0.0,0.0,0.0,0.0,0.0,0.0,0.0,0.0,0.0,0.0,0.0,0.0,0.0,0.0,0.0,0.0,0.0,0.0,0.0,0.0,0.0,0.0,0.0,0.0,0.0,0.0,0.0,0.0,0.0,0.0,0.0,0.0,0.0,0.0,0.0,0.0,0.0,0.0,0.0,0.0,0.0,0.0,0.0,0.0,0.0,2.286,2.5085,2.6695,2.6988,2.7713,2.8178,2.8178,2.7195,2.6117,2.5069,0.0,0.0,0.0,0.0,0.0,0.0,0.0,0.0,0.0,0.0,0.0,0.0,0.0,0.0,0.0,0.0,0.0,0.0,0.0,0.0,0.0,0.0,0.0,0.0,0.0,0.0,0.0,0.0,0.0,0.0,0.0,0.0,0.0,0.0,0.0,0.0,0.0,0.0,0.0,0.0,0.0,0.0,0.0,0.0,0.0,0.0,0.0,0.0,0.0,0.0,0.0,0.0,0.0,0.0,0.0,0.0,0.0,0.0,0.0,0.0,0.0,0.0,0.0,0.0,0.0,0.0,0.0,0.0,0.0,0.0,0.0,0.0,0.0,0.0,0.0,0.0,0.0,0.0,0.0,0.0,0.0,0.0,0.0,0.0,0.0,0.0,0.0,0.0,0.0,0.0,0.0,0.0,0.0,0.0,0.0,0.0,0.0,0.0,0.0,0.0,0.0,0.0,2.4012,2.6109,2.7747,2.8437,2.911,2.9506,2.9506,2.8265,2.7388,2.7135,0.0,0.0,0.0,0.0,0.0,0.0,0.0,0.0,0.0,0.0,0.0,0.0,0.0,0.0,0.0,0.0,0.0,0.0,0.0,0.0,0.0,0.0,0.0,0.0,0.0,0.0,0.0,0.0,0.0,0.0,0.0,0.0,0.0,0.0,0.0,0.0,0.0,0.0,0.0,0.0,0.0,0.0,0.0,0.0,0.0,0.0,0.0,0.0,0.0,0.0,0.0,0.0,0.0,0.0,0.0,0.0,0.0,0.0,0.0,0.0,1.8851,1.7371,0.0,0.0,0.0,0.0,0.0,0.0,0.0,0.0,0.0,0.0,0.0,0.0,0.0,0.0,0.0,0.0,0.0,0.0,0.0,0.0,0.0,0.0,0.0,0.0,0.0,0.0,0.0,0.0,0.0,0.0,0.0,0.0,0.0,0.0,0.0,0.0,0.0,0.0,0.0,0.0,2.6368,2.8006,2.9092,2.9248,2.942,2.9506,2.9506,2.9213,2.8523,2.7319,2.5966,0.0,0.0,0.0,0.0,0.0,0.0,0.0,0.0,0.0,0.0,0.0,0.0,0.0,0.0,0.0,0.0,0.0,0.0,0.0,0.0,0.0,0.0,0.0,0.0,0.0,0.0,0.0,0.0,0.0,0.0,0.0,0.0,0.0,0.0,0.0,0.0,0.0,0.0,0.0,0.0,0.0,0.0,0.0,0.0,0.0,0.0,0.0,0.0,0.0,0.0,0.0,0.0,0.0,0.0,0.0,0.0,0.0,0.0,0.0,2.048,1.8968,0.0,0.0,0.0,0.0,0.0,0.0,0.0,0.0,0.0,0.0,0.0,0.0,0.0,0.0,0.0,0.0,0.0,0.0,0.0,0.0,0.0,0.0,0.0,0.0,0.0,0.0,0.0,0.0,0.0,0.0,0.0,0.0,0.0,0.0,0.0,0.0,0.0,0.0,0.0,0.0,2.7195,2.923,3.061,3.061,3.1265,3.1714,3.1714,3.1024,3.0282,2.9506,2.7663,0.0,0.0,0.0,0.0,0.0,0.0,0.0,0.0,0.0,0.0,0.0,0.0,0.0,0.0,0.0,0.0,0.0,0.0,0.0,0.0,0.0,0.0,0.0,0.0,0.0,0.0,0.0,0.0,0.0,0.0,0.0,0.0,0.0,0.0,0.0,0.0,0.0,0.0,0.0,0.0,0.0,0.0,0.0,0.0,0.0,0.0,0.0,0.0,0.0,0.0,0.0,0.0,0.0,2.4132,2.4425,2.4863,2.5029,2.5081,2.4914,2.2332,2.1042,2.0762,2.0368,0.0,0.0,0.0,0.0,0.0,0.0,0.0,0.0,0.0,0.0,0.0,0.0,0.0,0.0,0.0,0.0,0.0,0.0,0.0,0.0,0.0,0.0,2.1759,2.2262,2.3436,2.3863,2.1805,0.0,0.0,0.0,0.0,0.0,0.0,0.0,0.0,0.0,0.0,0.0,2.8058,3.0489,3.2196,3.2196,3.3335,3.4093,3.4093,3.2921,3.2093,3.1817,2.9455,2.754,0.0,0.0,0.0,0.0,0.0,0.0,0.0,0.0,0.0,0.0,0.0,0.0,0.0,0.0,0.0,0.0,0.0,0.0,0.0,0.0,0.0,0.0,0.0,0.0,0.0,0.0,0.0,0.0,0.0,0.0,0.0,0.0,1.5958,1.6851,0.0,0.0,0.0,0.0,0.0,0.0,0.0,0.0,0.0,0.0,0.0,0.0,0.0,2.3684,2.4402,2.4505,2.466,2.485,2.5505,2.582,2.5928,2.6647,2.694,2.6923,2.6495,0.0,2.4003,2.3943,0.0,0.0,0.0,0.0,0.0,0.0,0.0,0.0,0.0,0.0,0.0,0.0,0.0,0.0,0.0,0.0,0.0,0.0,0.0,0.0,0.0,0.0,2.5416,2.5476,2.6195,2.6747,2.6423,2.477,2.315,2.2513,2.2392,2.2616,0.0,0.0,0.0,0.0,0.0,0.0,3.111,3.2714,3.3783,3.3783,3.3973,3.4093,3.4093,3.3904,3.3214,3.1869,3.142,2.992,2.71,2.6052,0.0,0.0,0.0,0.0,0.0,0.0,0.0,0.0,0.0,0.0,0.0,0.0,0.0,0.0,0.0,0.0,0.0,0.0,0.0,0.0,0.0,0.0,0.0,0.0,0.0,0.0,0.0,0.0,0.0,1.6824,1.7748,1.9059,1.9001,1.9138,0.0,0.0,0.0,0.0,0.0,0.0,0.0,0.0,0.0,2.3943,2.4683,2.5264,2.5626,2.6074,2.6506,2.6902,2.7247,2.7609,2.8023,2.8385,2.8541,2.8541,2.8541,2.8078,2.7259,2.5866,2.5212,2.5,0.0,0.0,0.0,0.0,2.1983,2.2059,2.2312,2.237,2.237,2.237,0.0,0.0,0.0,0.0,0.0,0.0,0.0,2.5321,2.5785,2.6529,2.7208,2.7371,2.8316,2.9196,2.9196,2.873,2.7713,2.5678,2.5298,2.5523,2.6264,2.7023,0.0,0.0,0.0,3.2041,3.2369,3.3749,3.4714,3.4714,3.5076,3.5335,3.5335,3.4956,3.4421,3.3749,3.2507,3.1196,2.9816,2.7801,2.6014,0.0,0.0,0.0,0.0,0.0,0.0,0.0,0.0,0.0,0.0,0.0,0.0,0.0,0.0,0.0,0.0,0.0,0.0,0.0,0.0,0.0,0.0,0.0,0.0,0.0,0.0,0.0,0.0,1.8676,1.9464,2.0845,2.0877,2.0908,0.0,0.0,0.0,0.0,0.0,0.0,2.4339,2.4971,2.5471,2.5868,2.6402,2.6782,2.6971,2.7764,2.8437,2.8989,2.9368,2.9834,3.0386,3.0593,3.0679,3.0679,3.0679,3.0679,3.0489,2.7842,2.6734,2.6616,2.5462,2.5061,2.511,2.486,2.4793,2.489,2.5207,2.5299,2.5299,2.5299,2.5238,2.5128,2.4809,0.0,0.0,0.0,0.0,2.7963,2.793,2.8612,2.9298,2.9506,3.0575,3.1558,3.1558,3.199,3.161,2.8954,2.8437,2.8627,2.9179,2.9886,0.0,3.1162,3.2524,3.349,3.349,3.4645,3.5473,3.5473,3.5973,3.6301,3.6301,3.5801,3.5387,3.5197,3.3611,3.249,3.2093,2.973,2.7939,2.6877,0.0,0.0,0.0,0.0,0.0,0.0,0.0,0.0,0.0,0.0,0.0,0.0,0.0,0.0,0.0,0.0,0.0,0.0,0.0,0.0,0.0,0.0,0.0,0.0,0.0,0.0,0.0,0.0,0.0,2.1762,2.1826,0.0,0.0,0.0,0.0,2.4764,2.4867,2.5212,2.5954,2.6023,2.673,2.8178,2.8265,2.8627,2.9334,3.0127,3.0541,3.0593,3.199,3.2697,3.2748,3.3507,3.3852,3.3852,3.3852,3.3852,3.3628,3.0593,2.93,2.9214,2.8203,2.7946,2.8061,2.7094,2.692,2.7147,2.7147,2.7178,2.7178,2.7178,2.6985,2.6773,2.6773,2.7621,0.0,0.0,3.0077,3.1223,3.1485,3.2073,3.2679,3.2679,3.3317,3.3921,3.3921,3.3955,3.3507,3.1886,3.1576,3.1593,3.1627,0.0,3.2748,3.2783,3.4093,3.5076,3.5076,3.5766,3.6232,3.6232,3.6284,3.6301,3.6301,3.6266,3.5956,3.5232,3.5076,3.4369,3.2904,3.2024,3.0833,2.9265,2.6753,0.0,0.0,0.0,0.0,0.0,0.0,0.0,0.0,0.0,0.0,0.0,0.0,0.0,0.0,0.0,0.0,0.0,0.0,0.0,0.0,0.0,0.0,0.0,0.0,0.0,0.0,0.0,0.0,2.328,2.3694,0.0,2.4522,2.5005,2.5402,2.5695,2.6626,2.7299,2.7575,2.8523,2.9317,2.9851,3.08,3.142,3.1696,3.249,3.2886,3.2886,3.3404,3.3662,3.368,3.3955,3.4093,3.4093,3.4093,3.4093,3.4007,3.2904,3.2162,3.1627,3.0779,3.0504,3.0541,3.0212,3.0108,3.0196,3.0196,3.0196,3.0196,3.0196,3.0144,3.0159,3.064,3.1082,3.1576,3.2166,3.2737,3.3149,3.3283,3.3473,3.3662,3.3662,3.4249,3.48,3.48,3.518,3.5352,3.48,3.3921,3.3266,3.3266,3.3886,3.4369,3.4369,3.5249,3.5904,3.5904,3.6146,3.649,3.7008,3.706,3.706,3.706,3.706,3.6732,3.5956,3.5456,3.4938,3.4404,3.3179,3.2024,3.0953,2.9094,2.7449,0.0,0.0,0.0,0.0,0.0,0.0,0.0,0.0,0.0,0.0,0.0,0.0,0.0,0.0,0.0,0.0,0.0,0.0,0.0,0.0,0.0,0.0,0.0,0.0,0.0,2.2898,2.3702,2.4721,2.5212,2.5663,2.6109,2.6592,2.7092,2.7609,2.8592,2.9386,2.9886,3.0886,3.1558,3.1834,3.28,3.33,3.33,3.4076,3.4456,3.4456,3.4714,3.4835,3.4835,3.4835,3.4835,3.4852,3.5111,3.5076,3.4852,3.5128,3.4766,3.3955,3.2955,3.2576,3.2576,3.2576,3.2576,3.2576,3.2576,3.2576,3.2576,3.2576,3.2576,3.2662,3.3162,3.3473,3.3783,3.4318,3.4645,3.4835,3.4835,3.4835,3.4904,3.5163,3.5611,3.6025,3.6284,3.6732,3.7077,3.7077,3.587,3.4835,3.4835,3.5249,3.5663,3.5921,3.6387,3.6784,3.7042,3.7077,3.7267,3.7801,3.7853,3.7853,3.7853,3.7853,3.7629,3.7111,3.637,3.5973,3.5973,3.449,3.3438,3.29,3.1401,2.9643,2.7623,0.0,0.0,0.0,0.0,0.0,0.0,0.0,0.0,0.0,0.0,0.0,0.0,0.0,0.0,0.0,0.0,0.0,0.0,0.0,0.0,0.0,0.0,0.0,2.3137,2.4021,2.5075,2.6014,2.6417,2.7103,2.8349,2.8522,2.9161,3.068,3.0818,3.1457,3.2869,3.2955,3.3335,3.4093,3.4145,3.4162,3.4162,3.4887,3.5266,3.5266,3.6025,3.637,3.637,3.637,3.637,3.6422,3.718,3.7077,3.6422,3.7198,3.7077,3.6232,3.4731,3.4162,3.4162,3.4162,3.4162,3.4162,3.4162,3.4162,3.4162,3.4162,3.4162,3.4162,3.418,3.4697,3.5266,3.5283,3.5818,3.637,3.637,3.637,3.6559,3.7335,3.7508,3.7715,3.8439,3.8594,3.8594,3.8594,3.7387,3.637,3.637,3.637,3.6628,3.7404,3.7508,0.0,3.8491,3.8594,3.8594,3.8629,3.8646,3.8646,3.8629,3.8646,3.8646,3.8594,3.7922,3.7508,3.7508,3.6077,3.5191,3.4998,3.3573,3.1589,2.8994,0.0,0.0,0.0,0.0,0.0,0.0,0.0,0.0,0.0,0.0,0.0,0.0,0.0,0.0,0.0,0.0,0.0,0.0,0.0,0.0,0.0,2.5216,2.5732,2.5105,2.6083,2.6922,2.7156,2.8077,2.9136,3.0307,3.097,3.1689,3.2651,3.3264,3.3641,3.377,3.4266,3.4663,3.4887,3.5421,3.5697,3.5697,3.6456,3.6853,3.687,3.7611,3.7956,3.7956,3.7956,3.7956,3.7974,3.8198,3.8163,3.7974,3.8198,3.8163,3.7818,3.6284,3.5697,3.5697,3.5697,3.5697,3.5697,3.5697,3.5697,3.5697,3.5697,3.5697,3.5801,3.637,3.6697,3.6973,3.7508,3.7801,3.7956,3.7956,3.7956,3.8008,3.8232,3.8284,3.8336,3.8543,3.8594,3.8594,3.8594,3.8249,3.7956,3.7956,3.7956,3.8025,3.8249,3.8284,3.8353,3.856,3.8594,3.8784,3.9336,3.9905,4.0008,3.9439,3.9922,3.9767,3.8663,3.8405,3.8284,3.8284,3.737,3.6318,3.5173,3.4129,3.2968,0.0,0.0,0.0,0.0,0.0,0.0,0.0,0.0,0.0,0.0,0.0,0.0,0.0,0.0,0.0,0.0,0.0,0.0,0.0,0.0,0.0,0.0,2.7033,2.79,2.8246,2.8337,2.8694,2.9509,3.039,3.1436,3.2763,3.3176,3.3688,3.4408,3.4751,3.494,3.5048,3.5421,3.5818,3.6146,3.6577,3.6939,3.7249,3.7715,3.7939,3.7956,3.8387,3.8594,3.8594,3.8594,3.8594,3.8612,3.8922,3.8888,3.8612,3.8922,3.887,3.8491,0.0,0.0,0.0,0.0,3.7249,3.7249,3.7249,3.7249,3.7249,3.7249,3.7249,3.7353,3.7801,3.7939,3.8043,3.8474,3.8594,3.8594,3.8594,3.8594,3.8663,3.8974,3.906,3.9146,3.9474,3.9802,4.0008,4.0008,4.0284,0.0,4.0509,3.9439,3.8698,3.9008,3.906,3.9284,3.9922,4.0008,4.0302,4.106,4.1561,4.1647,4.1198,4.1267,0.0,0.0,0.0,3.8922,3.8594,3.8119,0.0,0.0,0.0,3.4816,3.379,3.3499,0.0,0.0,2.8,2.7631,0.0,0.0,0.0,0.0,0.0,0.0,0.0,0.0,0.0,0.0,0.0,0.0,0.0,0.0,0.0,0.0,2.8848,3.0061,3.1643,3.0802,3.0647,3.2382,3.293,3.3716,3.52,3.5066,3.5166,3.5884,3.5653,3.5773,3.6387,3.6508,0.0,0.0,0.0,3.7922,3.8577,3.8663,3.8715,3.8715,3.8801,3.8853,3.8853,3.8853,3.8853,3.8888,3.9543,3.9457,3.8905,3.956,3.9439,3.8836,3.8663,3.8594,3.8594,3.8594,3.8594,3.8594,3.8594,0.0,0.0,3.8594,3.8594,3.8612,3.8681,3.8715,3.8732,3.8819,3.8905,3.8974,3.8974,3.9043,3.9267,3.9939,4.0077,4.0284,4.0991,4.1647,4.213,4.213,4.2681,4.3214,4.3214,4.0905,3.9336,3.9991,4.0077,4.0578,4.194,4.213,4.2388,4.3145,4.3301,0.0,4.3232,4.2595,4.2216,4.213,4.0767,3.9629,3.887,3.8659,3.8264,3.7629,3.7507,3.6836,3.5576,3.5576,3.5249,3.4542,3.1958,3.1143,0.0,0.0,0.0,0.0,0.0,0.0,0.0,0.0,0.0,0.0,0.0,0.0,0.0,0.0,0.0,2.8399,3.0713,3.2589,3.2925,3.384,3.429,3.3827,3.4345,3.5129,3.6077,3.6096,3.6237,3.6675,3.7206,3.7457,3.7292,3.7818,3.8215,3.837,3.837,3.8439,3.8594,3.9181,3.9491,3.9491,4.0129,0.0,4.044,4.044,4.044,4.044,4.0595,4.0578,4.0457,4.0595,4.056,4.0319,3.9077,3.8594,3.8594,3.8594,3.8594,3.8594,3.8594,3.8594,3.8594,3.8594,3.8594,3.8698,3.9301,3.9491,0.0,4.025,4.0871,4.1319,4.1319,4.1802,4.2319,4.2506,4.2492,4.2593,4.2748,4.2886,4.299,4.299,4.3111,4.3214,4.3214,4.2731,4.2386,4.2475,4.2492,4.2612,4.2955,4.299,4.3059,4.3197,4.3749,4.387,4.3266,4.3578,4.3578,4.3024,4.2061,4.1216,4.0474,3.9819,3.9129,3.8387,3.837,3.8232,3.7922,3.7922,3.7853,3.7646,3.4723,3.3453,0.0,0.0,0.0,0.0,0.0,0.0,0.0,0.0,0.0,0.0,0.0,2.56,2.6914,0.0,2.9544,3.0758,3.2411,3.3931,3.4999,3.6006,3.6352,3.5638,3.6023,3.6584,3.7178,3.7381,3.7481,3.7519,3.8028,3.8269,3.8087,3.8387,3.8767,3.9129,3.9146,3.9336,3.9733,4.0112,4.0284,4.0302,4.0698,4.0888,4.0888,4.0888,4.0888,4.0888,4.0888,4.0888,4.0905,4.1285,4.1664,4.194,4.1181,4.0422,3.9733,3.9733,3.9733,3.9733,3.9733,3.9974,4.0284,4.0284,4.056,4.0957,4.1319,4.144,4.1526,4.1971,4.2302,4.2578,4.2578,4.2921,4.3214,4.3214,4.3214,4.3214,4.3214,4.3508,4.3767,4.3767,4.4044,4.4302,4.4302,4.4302,4.4044,4.3285,4.3214,4.3352,4.3715,4.3767,4.3871,4.4251,4.463,4.4699,4.4337,4.4285,4.3958,4.3266,4.2802,4.2423,4.2092,4.1267,4.0491,3.975,3.9353,3.8957,3.8594,3.8594,3.8594,3.8543,3.7042,3.6335,0.0,0.0,0.0,0.0,0.0,0.0,0.0,2.4073,2.4482,2.6165,2.7011,2.7807,2.8948,2.9944,3.1192,3.3099,3.4154,3.53,3.6867,3.7582,3.779,3.7358,3.7577,3.7825,3.8075,3.8401,3.849,3.824,3.859,3.8801,3.8801,3.8957,3.9301,3.9905,3.9922,4.0233,4.0871,4.0888,4.0888,4.0888,4.0888,4.0957,4.1095,4.1095,4.1181,4.1319,4.1319,4.1319,4.1371,4.1974,4.2595,4.3214,4.3214,4.2455,4.1319,4.1319,4.1319,4.1319,4.1319,4.1716,4.2216,4.2216,4.2647,4.3214,4.3214,4.3214,4.3214,4.3214,4.3318,4.3439,4.3439,4.3492,4.3613,4.3613,4.3613,4.3613,4.3613,4.4078,4.4492,4.4492,4.4992,4.5423,4.5423,4.5423,4.501,4.3802,4.3613,4.382,4.4423,4.4492,4.4734,4.5354,4.5423,4.5423,4.5423,4.4854,4.4251,4.3647,4.3475,4.3439,4.3439,4.263,4.1923,4.1336,4.0698,4.0077,3.9474,3.9474,3.9474,3.9474,3.9474,3.9163,2.088,2.088,2.147,2.3376,2.3857,2.4278,0.0,2.6255,2.6691,2.8324,2.8704,2.9258,3.0809,3.2331,3.345,3.3698,3.6219,3.7991,3.7503,3.8726,3.935,3.859,3.853,3.8434,3.8121,3.8383,3.8602,3.8538,3.9192,3.9577,3.9577,4.0233,4.0664,4.075,4.075,4.0784,4.0888,4.0888,4.0888,4.0888,4.0888,4.1233,4.1871,4.1871,4.225,4.2973,4.2973,4.2973,4.2973,4.3059,4.3145,4.3214,4.3214,4.3111,4.2973,4.2973,4.2973,4.2973,4.2973,4.3024,4.3093,4.3093,4.3145,4.3214,4.3214,4.3214,4.3214,4.3214,4.3647,4.4147,4.4147,4.4665,4.5165,4.5165,4.5165,4.5165,4.5165,4.5234,4.5303,4.5303,4.5354,4.5423,4.5423,4.5423,4.5372,4.5199,4.5165,4.5199,4.5285,4.5303,4.5337,4.5406,4.5423,4.5423,4.5423,4.5337,4.5251,4.5182,4.4527,4.4147,4.4147,4.344,4.3059,4.2973,4.2869,4.28,4.2714,4.2714,4.2714,4.2714,4.2714,4.1198,2.4067,2.4212,2.4481,2.5379,2.5603,2.6025,2.764,2.8007,2.8466,3.0063,3.0779,3.1458,3.2577,3.3733,3.4981,3.6431,3.7404,3.8193,3.8799,3.9074,3.9158,3.9075,3.9241,3.9404,3.9496,3.9558,3.9792,4.0298,4.0366,4.0388,4.0388,4.0698,4.0888,4.0888,4.0888,4.0888,4.0888,4.1319,4.1526,4.1526,4.1992,4.2371,4.2681,4.2681,4.2854,4.3214,4.3214,4.3456,4.382,4.382,4.4078,4.4492,4.4492,4.4492,4.4389,4.3492,4.3214,4.3214,4.3214,4.3508,4.382,4.382,4.4113,4.4492,4.4492,4.4492,4.4492,4.4492,4.4699,4.4941,4.4941,4.5182,4.5423,4.5423,4.5423,4.5423,4.5423,4.5423,4.5423,4.5423,4.5423,4.5423,4.5423,4.5423,4.5423,4.5423,4.5423,4.5423,4.5423,4.5423,4.5423,4.5423,4.5423,4.5423,4.5423,4.5423,4.5423,4.5423,4.513,4.4941,4.4941,4.4216,4.382,4.382,4.3439,4.3214,4.3214,4.3214,4.3214,4.3214,4.3214,4.2541,2.6481,2.6716,2.6896,2.7196,2.7273,2.7695,2.931,2.9659,3.0063,3.1439,3.2375,3.3183,3.399,3.4981,3.6358,3.8377,3.8395,3.856,3.9735,3.9405,3.9218,3.9738,3.9947,4.0474,4.1541,4.0971,4.0845,4.1725,4.1328,4.1117,4.1255,4.1134,4.1221,4.1551,4.1476,4.158,4.1928,4.2345,4.2528,4.2528,4.2987,4.3335,4.3525,4.3699,4.3802,4.3802,4.3802,4.4096,4.4596,4.4596,4.4923,4.5423,4.5423,4.5423,4.5285,4.4199,4.3802,4.3802,4.3802,4.4147,4.4596,4.4596,4.4958,4.5423,4.5423,4.5423,4.5423,4.5423,4.5423,4.5423,4.5423,4.5423,4.5423,4.5423,4.5423,4.5423,4.5423,4.5423,4.5423,4.5423,4.5423,4.5423,4.5423,4.5423,4.5423,4.5423,4.5423,4.5423,4.5423,4.5423,4.5423,4.5423,4.5423,4.5423,4.5423,4.5423,4.5423,4.5423,4.5423,4.5423,4.5423,4.4889,4.4596,4.4596,4.4061,4.3802,4.3802,4.3802,4.3802,4.3802,4.3802,4.3802,2.6731,2.6972,2.7627,2.8654,2.892,2.9365,3.0962,3.1329,3.1549,3.2394,3.3201,3.4009,3.4807,3.6303,3.7698,3.856,3.9331,3.9827,3.9882,3.9863,4.0157,4.095,4.0648,4.1487,4.4289,4.2386,4.1301,4.2103,4.1735,4.1692,4.2115,4.1735,4.2027,4.3304,4.2873,4.3244,4.4464,4.4074,4.3816,4.3816,4.3426,4.3594,4.4268,4.501,4.5354,4.5354,4.5354,4.5372,4.5389,4.5389,4.5406,4.5423,4.5423,4.5423,4.5371,4.5372,4.5354,4.5354,4.5354,4.5372,4.5389,4.5389,4.5406,4.5423,4.5423,4.5423,4.5423,4.5423,4.5423,4.5423,4.5423,4.5423,4.5423,4.5423,4.5423,4.5423,4.5423,4.5423,4.5423,4.5423,4.5423,4.5423,4.5423,4.5423,4.5423,4.5423,4.5423,4.5423,4.5423,4.5423,4.5423,4.5423,4.5423,4.5423,4.5423,4.5423,4.5423,4.5423,4.5423,4.5423,4.5423,4.5406,4.5389,4.5389,4.5372,4.5354,4.5354,4.5354,4.5354,4.5354,4.5354,4.5354,2.9672,2.9538,2.9454,3.0369,3.0595,3.087,3.1953,3.221,3.243,3.3238,3.388,3.4568,3.5659,3.6529,3.7799,3.996,3.9625,3.9478,4.0561,3.979,3.9606,4.0946,4.0943,4.1674,4.3718,4.2641,4.2266,4.3372,4.2542,4.2263,4.2989,4.2839,4.3195,4.4168,4.4057,4.4181,4.4578,4.492,4.508,4.508,4.5464,4.5633,4.5571,4.5833,4.5955,4.5905,4.5563,4.5423,4.5423,4.5423,4.5423,4.5423,4.5423,4.5423,4.5423,4.5423,4.5423,4.5423,4.5423,4.5423,4.5423,4.5423,4.5423,4.5423,4.5423,4.5423,4.5423,4.5423,4.5423,4.5423,4.5423,4.5423,4.5423,4.5423,4.5423,4.5423,4.5423,4.5423,4.5423,4.5423,4.5423,4.5423,4.5423,4.5423,4.5423,4.5423,4.5423,4.5423,4.5423,4.5423,4.5423,4.5423,4.5423,4.5423,4.5423,4.5423,4.5423,4.5423,4.5423,4.5423,4.5423,4.5423,4.5423,4.5423,4.5423,4.5423,4.5423,4.5423,4.5423,4.5423,4.5423,4.5423,3.098,3.1017,3.1182,3.1696,3.1825,3.2045,3.2852,3.3036,3.3183,3.3697,3.4386,3.5162,3.5951,3.6762,3.8062,4.0306,3.9458,3.9031,4.0638,3.9487,3.926,4.128,4.1295,4.1864,4.3736,4.3177,4.2987,4.3814,4.3271,4.3185,4.383,4.4016,4.452,4.5454,4.5348,4.5492,4.5928,4.6223,4.6283,4.6123,4.6475,4.6507,4.6186,4.6186,4.6186,4.6186,4.6038,4.5938,4.5938,4.5752,4.5718,4.5667,4.5459,4.5423,4.5423,4.5423,4.5423,4.5423,4.5423,4.5423,4.5423,4.5423,4.5423,4.5423,4.5423,4.5423,4.5423,4.5423,4.5423,4.5423,4.5423,4.5423,4.5423,4.5423,4.5423,4.5423,4.5423,4.5423,4.5423,4.5423,4.5423,4.5423,4.5423,4.5423,4.5423,4.5423,4.5665,4.5734,4.5458,4.5423,4.5423,4.5423,4.5423,4.5423,4.5423,4.5423,4.5423,4.5423,4.5423,4.5423,4.5423,4.5423,4.5423,4.5423,4.5423,4.5423,4.5423,4.5423,4.5423,4.5423,4.5423,4.5423,3.0779,3.1476,3.2614,3.2669,3.2669,3.2871,3.3623,3.3807,3.3807,3.3807,3.4768,3.5643,3.5679,3.6964,3.8417,3.9672,3.8905,3.8679,4.0148,3.9061,3.9158,4.1922,4.157,4.2047,4.4415,4.3956,4.3516,4.3552,4.3925,4.4324,4.4801,4.5182,4.5945,4.7112,4.6785,4.715,4.8306,4.7856,4.7421,4.6954,4.6507,4.6266,4.6266,4.6266,4.6266,4.6284,4.6724,4.6908,4.6863,4.6411,4.6235,4.6137,4.5667,4.5423,4.5423,4.5423,4.5423,4.5423,4.5423,4.5423,4.5423,4.5423,4.5423,4.5423,4.5423,4.5423,4.5423,4.5423,4.5423,4.5423,4.5423,4.5423,4.5423,4.5423,4.5423,4.5423,4.5423,4.5423,4.5423,4.5423,4.5423,4.5388,4.5422,4.5475,4.5492,4.5527,4.6218,4.6426,4.5631,4.551,4.5597,4.558,4.558,4.558,4.558,4.558,4.551,4.5475,4.5492,4.5458,4.5423,4.5423,4.5423,4.5423,4.5423,4.5423,4.5423,4.5423,4.5423,4.5423,4.5423,4.5441,3.2669,3.2742,3.2742,3.3348,3.3495,3.355,3.3752,3.3807,3.3807,3.3807,3.4147,3.4688,3.5539,3.6296,3.7415,3.9175,3.894,3.8894,3.99,3.9186,3.9273,4.117,4.124,4.1809,4.3626,4.3608,4.3736,4.436,4.4473,4.5132,4.6397,4.6579,4.7055,4.7976,4.7879,4.797,4.8306,4.8172,4.7897,4.7421,4.7632,4.7591,4.723,4.723,4.723,4.723,4.6981,4.6908,4.6908,4.6771,4.6507,4.6186,4.6038,4.5752,4.5423,4.5423,4.5423,4.5476,4.5854,4.5701,4.5476,4.5854,4.5718,4.5423,4.5423,4.5423,4.5423,4.5423,4.5423,4.5423,4.5423,4.5423,4.5423,4.5423,4.5423,4.5423,4.5423,4.5423,4.5423,4.5423,4.5423,4.5613,4.6199,4.6639,4.7054,4.7613,4.8199,4.819,4.7051,4.7351,4.7838,4.8254,4.832,4.832,4.832,4.794,4.7456,4.6947,4.6551,4.6044,4.5441,4.5423,4.5423,4.5423,4.5423,4.5423,4.5423,4.5423,4.5423,4.5423,4.5423,4.5734,3.3036,3.3201,3.3238,3.3697,3.3807,3.3807,3.3807,3.368,3.3597,3.3597,3.3661,3.3931,3.4561,3.5631,3.6791,3.8061,3.8647,3.9108,3.9513,3.9236,3.9502,4.0932,4.1111,4.1735,4.3332,4.3809,4.436,4.5168,4.5241,4.5773,4.704,4.7443,4.7847,4.8306,4.8306,4.8306,4.8306,4.8306,4.8172,4.7915,4.7955,4.7856,4.7591,4.7591,4.7591,4.7591,4.7567,4.7506,4.7524,4.7291,4.7071,4.6753,4.6363,4.6005,4.5701,4.5476,4.5423,4.5528,4.6266,4.6186,4.5854,4.6363,4.6168,4.5752,4.5752,4.5563,4.5423,4.5423,4.5423,4.5423,4.5423,4.5563,4.5701,4.5476,4.5752,4.597,4.5803,4.5752,4.5771,4.5925,4.5941,4.6182,4.6958,4.7526,4.8045,4.8415,4.9238,4.9585,4.9109,4.895,4.8954,4.9293,4.9293,4.9293,4.9293,4.9004,4.8679,4.8254,4.77,4.7212,4.6778,4.6514,4.6424,4.6424,4.6424,4.6424,4.6424,4.6424,4.6424,4.6424,4.6424,4.6665,3.2577,3.3201,3.3807,3.3807,3.3807,3.3807,3.3734,3.3494,3.3255,3.3117,3.309,3.3143,3.3248,3.4677,3.6061,3.6738,3.8061,3.9041,3.9132,3.9184,3.9683,4.0969,4.1111,4.1735,4.3332,4.4232,4.5039,4.5847,4.5993,4.6416,4.7241,4.7921,4.8306,4.8306,4.8306,4.8306,4.8306,4.8306,4.8306,4.8306,4.7897,4.7674,4.7674,4.7674,4.7674,4.7733,4.8114,4.8306,4.8267,4.7856,4.7674,4.7506,4.6707,4.6363,4.6235,4.5752,4.5615,4.5752,4.6678,4.6724,4.6459,4.6863,4.6678,4.6284,4.6284,4.5938,4.5528,4.5528,4.5459,4.5423,4.5423,4.5803,4.6087,4.5615,4.6217,4.6771,4.6363,4.6305,4.644,4.6793,4.6805,4.7047,4.7937,4.8435,4.8798,4.9023,5.0022,5.0933,5.1384,5.0451,4.9758,4.9805,4.9805,4.9805,4.971,4.9663,4.9513,4.9358,4.8814,4.8487,4.8382,4.7956,4.7717,4.7717,4.7717,4.7717,4.7717,4.7717,4.7717,4.7717,4.7717,4.7769,3.243,3.3201,3.3807,3.3807,3.3807,3.3734,3.3437,3.335,3.3033,3.2145,3.1771,3.1774,3.2371,3.2843,3.3828,3.6114,3.6998,3.7725,3.8674,3.8797,3.9378,4.0914,4.1111,4.1735,4.3332,4.4232,4.5039,4.5847,4.6526,4.726,4.8067,4.8233,4.8306,4.8306,4.8306,4.8306,4.8306,4.8306,4.8306,4.8306,4.8229,4.8172,4.8172,4.8172,4.8172,4.8172,4.8267,4.8306,4.8306,4.821,4.7955,4.7591,4.7421,4.7115,4.6771,4.6678,4.6631,4.6724,4.7273,4.7421,4.7378,4.7464,4.716,4.6771,4.6771,4.6459,4.6038,4.6038,4.5752,4.5423,4.5423,4.5803,4.6186,4.6087,4.6489,4.6863,4.6817,4.6954,4.7294,4.8032,4.7802,4.8045,4.967,4.9994,5.0472,5.1556,5.23,5.2754,5.284,5.2281,5.2037,5.2492,5.2535,5.2342,5.1899,5.1454,5.0723,4.959,4.9005,4.8488,4.7882,4.7772,4.7717,4.7717,4.7717,4.7717,4.7717,4.7717,4.7717,4.7717,4.7717,4.8045,3.2394,3.3201,3.3807,3.3807,3.3807,3.3597,3.29,3.2588,3.2145,3.1053,3.0562,3.0419,3.0785,3.1723,3.2824,3.411,3.6191,3.7689,3.7799,3.8687,3.9772,4.0965,4.1111,4.1735,4.3332,4.4599,4.548,4.5865,4.704,4.7902,4.8288,4.8306,4.8306,4.8306,4.8306,4.8306,4.8306,4.8306,4.8306,4.8306,4.8306,4.8306,4.8306,4.8306,4.8306,4.8306,4.8306,4.8306,4.8306,4.8306,4.8172,4.7937,4.7674,4.7464,4.7248,4.6999,4.6908,4.6954,4.7421,4.7591,4.7632,4.7897,4.765,4.7248,4.7248,4.6954,4.6489,4.6284,4.5988,4.5803,4.5803,4.6186,4.6537,4.6537,4.7257,4.7877,4.7877,4.8335,4.8841,4.9398,4.9254,4.9501,5.0788,5.1275,5.1658,5.2307,5.2868,5.3206,5.3206,5.2974,5.2912,5.3164,5.3206,5.3121,5.2868,5.2563,5.204,5.1097,5.0574,4.9958,4.9373,4.9059,4.8907,4.8907,4.8907,4.8907,4.8907,4.8907,4.8907,4.8907,4.8907,4.9097,3.1916,3.2669,3.3293,3.3293,3.3293,3.303,3.2119,3.169,3.1128,2.999,2.9482,2.9265,2.9265,3.0506,3.1722,3.2316,3.5095,3.7133,3.7011,3.8437,3.9928,4.095,4.1111,4.1735,4.3332,4.4947,4.5902,4.5902,4.7388,4.8306,4.8306,4.8306,4.8306,4.8306,4.8306,4.8306,4.8306,4.8306,4.8306,4.8306,4.8306,4.8306,4.8306,4.8306,4.8306,4.8306,4.8306,4.8306,4.8306,4.8306,4.8306,4.8267,4.7897,4.7775,4.7733,4.7335,4.7204,4.7248,4.7632,4.7775,4.7816,4.8172,4.8035,4.7775,4.7775,4.7421,4.6981,4.6584,4.6411,4.6363,4.6363,4.6678,4.7125,4.7393,4.8222,4.9023,4.9282,4.98,5.0362,5.0737,5.0753,5.095,5.179,5.2221,5.2454,5.2563,5.2912,5.3206,5.3206,5.3206,5.3206,5.3206,5.3206,5.3164,5.306,5.3017,5.2761,5.2108,5.1651,5.121,5.0657,5.0206,5.0011,5.0011,5.0011,5.0011,5.0011,5.0011,5.0011,5.0011,5.0011,5.0011,3.0393,3.0999,3.1604,3.1604,3.1604,3.151,3.113,3.0805,3.0297,2.9149,2.8682,2.8506,2.8506,2.8643,2.957,3.2018,3.3265,3.4657,3.6711,3.7751,3.8958,4.0863,4.1111,4.1735,4.3332,4.4947,4.5902,4.5902,4.7388,4.8306,4.8306,4.8306,4.8306,4.8306,4.8306,4.8306,4.8306,4.8306,4.8306,4.8306,4.8306,4.8306,4.8306,4.8306,4.8306,4.8306,4.8306,4.8306,4.8306,4.8306,4.8306,4.8306,4.8267,4.8229,4.821,4.8172,4.8172,4.8172,4.821,4.8229,4.8249,4.8306,4.8267,4.8229,4.8229,4.7915,4.7548,4.7506,4.716,4.6817,4.6817,4.716,4.7832,4.9044,4.9438,4.9779,5.0776,5.1049,5.1321,5.209,5.179,5.1825,5.285,5.2717,5.2563,5.306,5.3164,5.3206,5.3206,5.3206,5.3206,5.3206,5.3206,5.2999,5.2499,5.2454,5.206,5.0999,5.091,5.0602,5.0109,5.0011,5.0011,5.0011,5.0011,5.0011,5.0011,5.0011,5.0011,5.0011,5.0011,5.0011,3.021,3.0797,3.1384,3.1384,3.1384,3.1027,2.9584,2.9195,2.8614,2.6859,2.6424,2.635,2.635,2.7109,2.8226,2.9742,3.1952,3.4006,3.5403,3.6844,3.8508,4.0486,4.0755,4.1462,4.3332,4.4947,4.6305,4.7278,4.7939,4.8306,4.8306,4.8306,4.8306,4.8306,4.8306,4.8306,4.8306,4.8306,4.8306,4.8306,4.8306,4.8306,4.8306,4.8306,4.8306,4.8306,4.8306,4.8306,4.8306,4.8306,4.8306,4.8306,4.8306,4.8306,4.8306,4.8306,4.8306,4.8306,4.8306,4.8306,4.8306,4.8306,4.8306,4.8306,4.8306,4.8172,4.7955,4.7674,4.7464,4.7335,4.7335,4.8055,4.8934,4.946,5.0325,5.1165,5.1603,5.2072,5.2485,5.2795,5.2717,5.2717,5.3121,5.3017,5.2955,5.3164,5.3206,5.3206,5.3206,5.3206,5.3206,5.3206,5.3206,5.3103,5.2912,5.2868,5.2563,5.1817,5.1449,5.1052,5.0509,5.0149,5.0011,5.0011,5.0011,5.0011,5.0011,5.0011,5.0011,5.0011,5.0011,5.0011,2.9819,3.0265,3.0687,3.0687,3.0503,2.9954,2.8417,2.7761,2.7059,2.5547,2.5103,2.5005,2.5005,2.6074,2.7264,2.8247,3.0785,3.316,3.4514,3.6021,3.7826,4.0077,4.0311,4.1089,4.3139,4.4875,4.6562,4.8177,4.8306,4.8306,4.8306,4.8306,4.8306,4.8306,4.8306,4.8306,4.8306,4.8306,4.8306,4.8306,4.8306,4.8306,4.8306,4.8306,4.8306,4.8306,4.8306,4.8306,4.8306,4.8306,4.8306,4.8306,4.8306,4.8306,4.8306,4.8306,4.8306,4.8306,4.8306,4.8306,4.8306,4.8306,4.8306,4.8306,4.8306,4.8306,4.821,4.7897,4.7816,4.787,4.8107,4.8897,4.9701,5.0178,5.1169,5.2068,5.2307,5.2803,5.3206,5.3206,5.3206,5.3206,5.3206,5.3206,5.3206,5.3206,5.3206,5.3206,5.3206,5.3206,5.3206,5.3206,5.3206,5.3206,5.3206,5.3206,5.2955,5.2408,5.1915,5.1365,5.0803,5.0302,5.0011,5.0011,5.0011,5.0011,5.0011,5.0011,5.0011,5.0011,5.0011,5.0011,2.8947,2.9012,2.9012,2.9012,2.8429,2.7824,2.7805,2.6783,2.5818,2.5818,2.5374,2.5005,2.5005,2.5609,2.6626,2.8144,2.9696,3.167,3.4337,3.534,3.6829,3.9593,3.9863,4.0625,4.2681,4.4711,4.6562,4.8177,4.8306,4.8306,4.8306,4.8306,4.8306,4.8306,4.8306,4.8306,4.8306,4.8306,4.8306,4.8306,4.8306,4.8306,4.8306,4.8306,4.8306,4.8306,4.8306,4.8306,4.8306,4.8306,4.8306,4.8306,4.8306,4.8306,4.8306,4.8306,4.8306,4.8306,4.8306,4.8306,4.8306,4.8306,4.8306,4.8306,4.8306,4.8306,4.8306,4.8306,4.8306,4.8508,4.9352,4.9572,4.9976,5.1591,5.1977,5.2215,5.3023,5.3206,5.3206,5.3206,5.3206,5.3206,5.3206,5.3206,5.3206,5.3206,5.3206,5.3206,5.3206,5.3206,5.3206,5.3206,5.3206,5.3206,5.3206,5.3206,5.2955,5.2408,5.1915,5.1365,5.0803,5.0302,5.0011,5.0011,5.0011,5.0011,5.0011,5.0011,5.0011,5.0011,5.0011,5.0011,2.7887,2.8443,2.8888,2.8319,2.7989,2.7449,2.618,2.557,2.5049,2.4313,2.3904,2.3702,2.3702,2.4601,2.585,2.7402,2.9782,3.2189,3.4389,3.5779,3.7471,3.9985,4.1488,4.3032,4.4784,4.5517,4.6562,4.8177,4.8306,4.8306,4.8306,4.8306,4.8306,4.8306,4.8306,4.8306,4.8306,4.8306,4.8306,4.8306,4.8306,4.8306,4.8306,4.8306,4.8306,4.8306,4.8306,4.8306,4.8306,4.8306,4.8306,4.8306,4.8306,4.8306,4.8306,4.8306,4.8306,4.8306,4.8306,4.8306,4.8306,4.8306,4.8306,4.8306,4.8306,4.8306,4.8306,4.8306,4.8728,4.9242,4.9517,5.0398,5.1353,5.1867,5.2417,5.2894,5.3151,5.3206,5.3206,5.3206,5.3206,5.3206,5.3206,5.3206,5.3206,5.3206,5.3206,5.3206,5.3206,5.3206,5.3206,5.3206,5.3206,5.3206,5.3206,5.3206,5.3121,5.2974,5.2108,5.15,5.1347,5.0453,5.0011,5.0011,5.0011,5.0011,5.0011,5.0011,5.0011,5.0011,5.0011,5.0011,2.6634,2.7314,2.7724,2.7214,2.6913,2.6443,2.527,2.4773,2.435,2.3696,2.3359,2.3318,2.3601,2.448,2.5704,2.7573,2.9868,3.2137,3.4389,3.5744,3.7418,3.9949,4.2032,4.3889,4.5515,4.581,4.6562,4.8177,4.8306,4.8306,4.8306,4.8306,4.8306,4.8306,4.8306,4.8306,4.8306,4.8306,4.8306,4.8306,4.8306,4.8306,4.8306,4.8306,4.8306,4.8306,4.8306,4.8306,0.0,4.8306,4.8306,4.8306,4.8306,4.8306,4.8306,4.8306,4.8306,4.8306,4.8306,4.8306,4.8306,4.8306,4.8306,4.8306,4.8363,4.8363,4.8379,4.8691,4.9169,4.9719,5.0343,5.1242,5.2068,5.238,5.2839,5.3206,5.3206,5.3206,5.3206,5.3206,5.3206,5.3206,5.3206,5.3206,5.3206,5.3206,5.3206,5.3206,5.3206,5.3206,5.3206,5.3206,5.3206,5.3206,5.3206,5.3206,5.3206,5.3206,5.2203,5.1601,5.1601,5.0564,5.0011,5.0011,5.0011,5.0011,5.0011,5.0011,5.0011,5.0011,5.0011,5.0011,0.0,2.5725,2.59,2.5846,2.5415,2.4968,2.4958,2.4396,0.0,2.3907,2.3754,2.383,2.4581,2.5154,2.6216,2.8426,3.0002,3.1828,3.4373,3.5592,3.7102,3.9578,4.1773,4.3665,4.5189,4.5716,4.6636,4.8196,4.8306,4.8306,4.8306,4.8306,4.8306,4.8306,4.8306,4.8306,4.8306,4.8306,4.8306,4.8306,4.8306,4.8306,4.8306,4.8306,4.8306,4.8306,4.8306,4.8306,4.8306,4.8306,4.8306,4.8306,4.8306,4.8306,4.8306,4.8306,4.8306,4.8306,4.8306,4.8306,4.8306,4.8306,4.8306,4.8344,4.8457,4.8456,4.8563,4.9352,4.9664,5.0086,5.1591,5.2032,5.227,5.3023,5.3206,5.3206,5.3206,5.3206,5.3206,5.3206,5.3206,5.3206,5.3206,5.3206,5.3206,5.3206,5.3206,5.3206,5.3206,5.3206,5.3206,5.3206,5.3206,5.3206,5.3206,5.3206,5.3206,5.3206,5.2203,5.1601,5.1601,5.0564,5.0011,5.0011,5.0011,5.0011,5.0011,5.0011,5.0011,5.0011,5.0011,5.0011,2.2484,0.0,2.5799,2.533,2.4959,2.4631,0.0,2.4556,2.4784,2.497,2.5299,2.5615,2.5796,2.6742,2.7794,2.8662,3.1288,3.3647,3.4921,3.7839,4.0084,4.0716,4.2865,4.4656,4.5644,4.6378,4.7241,4.8233,4.8306,4.8306,4.8306,4.8306,4.8306,4.8306,4.8306,4.8306,4.8306,4.8306,4.8306,4.8306,4.8306,4.8306,4.8306,4.8306,4.8306,4.8306,4.8306,4.8306,4.8306,4.8306,4.8306,4.8306,4.8306,4.8306,4.8306,4.8306,4.8306,4.8306,4.8306,4.8306,4.8306,4.8306,4.8402,4.8532,4.8494,4.886,4.9334,4.9517,5.0472,5.1518,5.1885,5.2454,5.2968,5.317,5.3206,5.3206,5.3206,5.3206,5.3206,5.3206,5.3206,5.3206,5.3206,5.3206,5.3206,5.3206,5.3206,5.3206,5.3206,5.3206,5.3206,5.3206,5.3206,5.3206,5.3206,5.3206,5.3206,5.3206,5.2203,5.1601,5.1601,5.0564,5.0011,5.0011,5.0011,5.0011,5.0011,5.0011,5.0011,5.0011,5.0011,5.0011,2.1418,2.2987,2.4353,2.4027,2.4005,2.4127,2.4335,2.4808,2.533,2.5839,2.6179,2.6603,2.7351,2.8286,2.9368,3.0654,3.2938,3.5144,3.682,3.9407,4.1258,4.1625,4.3461,4.5021,4.581,4.6636,4.7443,4.8251,4.8306,4.8306,4.8306,4.8306,4.8306,4.8306,4.8306,4.8306,4.8306,4.8306,4.8306,4.8306,4.8306,4.8306,4.8306,4.8306,4.8306,4.8306,4.8306,4.8306,4.8306,4.8306,4.8306,4.8306,4.8306,4.8306,4.8306,4.8306,4.8306,4.8306,4.8363,4.842,4.8458,4.8495,4.8569,4.8661,4.9086,4.9712,5.0299,5.0202,5.1084,5.2132,5.2454,5.2876,5.3206,5.3206,5.3206,5.3206,5.3206,5.3206,5.3206,5.3206,5.3206,5.3206,5.3206,5.3206,5.3206,5.3206,5.3206,5.3206,5.3206,5.3206,5.3206,5.3206,5.3206,5.3206,5.3206,5.3206,5.3206,5.3206,5.2203,5.1701,5.1964,5.0712,5.0011,5.0011,5.0263,5.0263,5.0011,5.0011,5.0011,5.0011,5.0011,5.0011,2.1088,2.2115,2.2773,2.2799,2.3122,2.3629,2.4526,2.5147,2.5766,2.6612,2.6979,2.7567,2.892,2.9874,3.1039,3.2995,3.4515,3.6389,3.9021,4.0364,4.1405,4.2194,4.3828,4.5149,4.5828,4.6746,4.759,4.8251,4.8306,4.8306,4.8306,4.8306,4.8306,4.8306,4.8306,4.8306,4.8306,4.8306,4.8306,4.8306,4.8306,4.8306,4.8306,4.8306,4.8306,4.8306,4.8306,4.8306,4.8306,4.8306,4.8306,4.8306,4.8306,4.8306,4.8306,4.8306,4.8306,4.8306,4.8457,4.855,4.8642,4.8732,4.8806,4.8992,4.9768,5.062,5.1322,5.1187,5.1701,5.2434,5.3046,5.3206,5.3206,5.3206,5.3206,5.3206,5.3206,5.3206,5.3206,5.3206,5.3206,5.3206,5.3206,5.3206,5.3206,5.3206,5.3206,5.3206,5.3206,5.3206,5.3206,5.3206,5.3206,5.3206,5.3206,5.3206,5.3206,5.3206,5.2268,5.1915,5.225,5.091,5.0109,5.0109,5.0509,5.0453,5.0011,5.0011,5.0011,5.0011,5.0011,5.0011,2.063,2.1961,2.3098,2.3248,2.3346,2.3719,2.4999,2.5688,2.6376,2.7416,2.8705,2.9732,2.9971,3.1763,3.3214,3.3296,3.5227,3.7457,3.953,4.0547,4.1405,4.2194,4.4323,4.5755,4.5883,4.7241,4.8177,4.8306,4.8306,4.8306,4.8306,4.8306,4.8306,4.8306,4.8306,4.8306,4.8306,4.8306,4.8306,4.8306,4.8306,4.8306,4.8306,4.8306,4.8306,4.8306,4.8306,4.8306,4.8306,4.8306,4.8306,4.8306,4.8306,4.8306,4.8306,4.8306,4.8306,4.8306,4.8457,4.8606,4.8732,4.8642,4.9213,4.9878,4.9971,5.1102,5.2345,5.2212,5.2708,5.3293,5.3281,5.3277,5.3295,5.3206,5.3206,5.3206,5.3206,5.3206,5.3206,5.3206,5.3206,5.3206,5.3206,5.3206,5.3206,5.3206,5.3206,5.3206,5.3206,5.3206,5.3206,5.3206,5.3206,5.3206,5.3206,5.3206,5.3206,5.3206,5.2608,5.2108,5.1768,5.1052,5.0657,5.0657,5.0302,5.0109,5.0011,5.0011,5.0011,5.0011,5.0011,5.0011,2.0356,2.1603,2.2909,2.3856,2.4513,2.5303,2.6777,2.7429,2.8114,2.9452,3.032,3.1109,3.1971,3.3421,3.4834,3.6035,3.752,3.9026,4.0345,4.124,4.2213,4.3461,4.4966,4.6067,4.6526,4.7609,4.8306,4.8306,4.8306,4.8306,4.8306,4.8306,4.8306,4.8306,4.8306,4.8306,4.8306,4.8306,4.8306,4.8306,4.8306,4.8306,4.8306,4.8306,4.8306,4.8306,4.8306,4.8306,4.8306,4.8306,4.8306,4.8306,4.8306,4.8306,4.8306,4.8363,4.8476,4.8587,4.8642,4.8751,4.8839,4.8785,4.9377,5.019,5.0637,5.1621,5.2698,5.3031,5.3362,5.3558,5.3359,5.33,5.3277,5.3206,5.3206,5.3206,5.3206,5.3206,5.3206,5.3206,5.3206,5.3206,5.3206,5.3206,5.3206,5.3206,5.3206,5.3206,5.3206,5.3206,5.3206,5.3206,5.3206,5.3206,5.3206,5.3206,5.306,5.2806,5.2806,5.2454,5.1601,5.1915,5.1719,5.0803,5.0857,5.0564,5.0011,5.0011,5.0011,5.0011,5.0011,5.0011,2.0506,2.1784,2.3209,2.4687,2.5538,2.6481,2.8282,2.8863,2.9512,3.1311,3.1825,3.2394,3.3825,3.4926,3.634,3.8615,3.9496,4.0249,4.1258,4.1919,4.291,4.4525,4.5406,4.6214,4.704,4.7847,4.8306,4.8306,4.8306,4.8306,4.8306,4.8306,4.8306,4.8306,4.8306,4.8306,4.8306,4.8306,4.8306,4.8306,4.8306,4.8306,4.8306,4.8306,4.8306,4.8306,4.8306,4.8306,4.8306,4.8306,4.8306,4.8306,4.8306,4.8306,4.8363,4.8457,4.8624,4.8822,4.8874,4.8925,4.9064,4.925,4.9881,5.077,5.1453,5.2307,5.3107,5.3665,5.3754,5.3676,5.3459,5.34,5.3378,5.3272,5.329,5.329,5.329,5.329,5.329,5.329,5.323,5.323,5.323,5.3206,5.3206,5.3206,5.3206,5.3206,5.3206,5.3206,5.3206,5.3206,5.3206,5.3206,5.3206,5.3206,5.3017,5.2608,5.2955,5.2806,5.2012,5.2654,5.2361,5.0999,5.1262,5.0964,5.0011,5.0011,5.0011,5.0011,5.0011,5.0011,2.1342,2.3129,2.4764,2.5832,2.5783,2.6059,2.8443,2.8994,2.9654,3.2045,3.3109,3.3899,3.4734,3.6229,3.7863,3.9533,3.9845,4.0432,4.1992,4.2268,4.291,4.4525,4.5406,4.6214,4.704,4.7847,4.8306,4.8306,4.8306,4.8306,4.8306,4.8306,4.8306,4.8306,4.8306,4.8306,4.8306,4.8306,4.8306,4.8306,4.8306,4.8306,4.8306,4.8306,4.8306,4.8306,4.8306,4.8306,4.8306,4.8306,4.8306,4.8306,4.8306,4.8363,4.8513,4.8513,4.8624,4.8857,4.9071,4.9252,4.9496,5.0215,5.1224,5.2186,5.2433,5.3289,5.4137,5.3889,5.3813,5.3774,5.3695,5.3656,5.3656,5.3499,5.3499,5.3499,5.3499,5.3499,5.3499,5.3499,5.3359,5.3277,5.3277,5.323,5.3206,5.3206,5.3206,5.3206,5.3206,5.3206,5.3206,5.3206,5.3206,5.3206,5.3206,5.3206,5.3164,5.3164,5.3164,5.3164,5.3103,5.2672,5.2155,5.1551,5.1105,5.0547,5.0011,5.0011,5.0011,5.0011,5.0011,5.0011,2.2141,2.3626,2.5135,2.7176,2.8031,2.876,3.0173,3.1274,3.2394,3.378,3.478,3.5605,3.6413,3.7881,3.9184,3.979,4.0726,4.1607,4.2213,4.3167,4.4213,4.5314,4.6159,4.6966,4.7774,4.8122,4.8306,4.8306,4.8306,4.8306,4.8306,4.8306,4.8306,4.8306,4.8306,4.8306,4.8306,4.8306,4.8306,4.8306,4.8306,4.8306,4.8306,4.8306,4.8306,4.8306,4.8306,4.8306,4.8306,4.8306,4.8306,4.8306,4.8401,4.8476,4.8587,4.8642,4.8909,4.9193,4.9302,4.9838,5.0515,5.0789,5.1897,5.3099,5.2967,5.3575,5.4246,5.3889,5.3813,5.3774,5.3695,5.3714,5.3656,5.3539,5.3499,5.3499,5.3499,5.3499,5.3499,5.3499,5.34,5.33,5.33,5.3254,5.3206,5.3206,5.3206,5.3206,5.3206,5.3206,5.3206,5.3206,5.3206,5.3206,5.3206,5.3206,5.3206,5.3206,5.3206,5.3206,5.3206,5.3017,5.2672,5.2108,5.1569,5.1052,5.0509,5.0149,5.0011,5.0011,5.0011,5.0011,2.2926,2.4462,2.6003,2.8069,2.9783,3.1164,3.1971,3.322,3.4412,3.5257,3.6486,3.7533,3.7808,3.9184,4.0286,4.0286,4.1423,4.2488,4.3002,4.4011,4.5094,4.6159,4.6764,4.7443,4.8233,4.8306,4.8306,4.8306,4.8306,4.8306,4.8306,4.8306,4.8306,4.8306,4.8306,4.8306,4.8306,4.8306,4.8306,4.8306,4.8306,4.8306,4.8306,4.8306,4.8306,4.8306,4.8306,4.8306,4.8306,4.8306,4.8306,4.8401,4.8569,4.8677,4.88,4.8971,4.9265,4.9529,4.9627,5.0325,5.1273,5.1521,5.2639,5.3857,5.3666,5.4075,5.4509,5.4089,5.3963,5.3926,5.3754,5.3734,5.3716,5.3619,5.36,5.36,5.36,5.36,5.36,5.36,5.3499,5.3418,5.3418,5.3355,5.3272,5.323,5.323,5.323,5.3206,5.3206,5.3206,5.3206,5.3206,5.3206,5.3206,5.3206,5.3206,5.3206,5.3206,5.3206,5.3206,5.3206,5.2868,5.2155,5.1817,5.1262,5.0564,5.0149,5.0011,5.0011,5.0011,5.0011,2.3686,2.5821,2.7574,2.8408,3.0622,3.2816,3.3623,3.4431,3.5247,3.6138,3.8212,3.9643,3.8854,4.0029,4.1111,4.113,4.1791,4.2873,4.4488,4.4727,4.5314,4.6929,4.7131,4.7443,4.8233,4.8306,4.8306,4.8306,4.8306,4.8306,4.8306,4.8306,4.8306,4.8306,4.8306,4.8306,4.8306,4.8306,4.8306,4.8306,4.8306,4.8306,4.8306,4.8306,4.8306,4.8306,4.8306,4.8306,4.8306,4.8306,4.8401,4.8532,4.8797,4.9015,4.9227,4.9485,4.9692,4.9838,5.0111,5.0779,5.1639,5.2461,5.3526,5.4559,5.4733,5.5056,5.5164,5.4495,5.4315,5.4212,5.3907,5.3813,5.3813,5.3813,5.3813,5.3813,5.3813,5.3813,5.3813,5.3813,5.3754,5.3714,5.3714,5.3598,5.344,5.3318,5.33,5.3295,5.3206,5.3206,5.3206,5.3206,5.3206,5.3206,5.3206,5.3206,5.3206,5.3206,5.3206,5.3206,5.3206,5.3206,5.2717,5.1669,5.1619,5.107,5.0011,5.0011,5.0011,5.0011,5.0011,5.0011,2.4073,2.5641,2.7204,2.9905,3.1591,3.2963,3.4312,3.5312,3.6303,3.7698,3.856,3.9166,3.9478,4.0414,4.1295,4.1864,4.2616,4.3516,4.4562,4.5186,4.5938,4.7003,4.7609,4.8049,4.8288,4.8306,4.8306,4.8306,4.8306,4.8306,4.8306,4.8306,4.8306,4.8306,4.8306,4.8306,4.8306,4.8306,4.8306,4.8306,4.8306,4.8306,4.8306,4.8306,4.8306,4.8306,4.8306,4.8306,4.8306,4.855,4.8816,4.9067,4.929,4.9431,4.9491,4.9674,4.9891,5.0188,5.087,5.1813,5.2828,5.3692,5.4581,5.5333,5.5193,5.5217,5.5164,5.4495,5.4315,5.4212,5.3907,5.3813,5.3813,5.3813,5.3813,5.3813,5.3813,5.3813,5.3813,5.3813,5.3754,5.3714,5.3714,5.3598,5.3499,5.344,5.3359,5.3295,5.3206,5.3206,5.3206,5.3206,5.323,5.3254,5.3206,5.3254,5.3254,5.3206,5.3206,5.3206,5.3206,5.3206,5.306,5.2717,5.1964,5.1449,5.1105,5.0359,5.0011,5.0011,5.0011,5.0011,2.4292,2.5914,2.7575,3.0644,3.2008,3.3128,3.5073,3.6174,3.7129,3.8432,3.9221,3.9698,3.9863,4.1075,4.2121,4.2268,4.324,4.4268,4.5057,4.5883,4.6691,4.7498,4.8012,4.8306,4.8306,4.8306,4.8306,4.8306,4.8306,4.8306,4.8306,4.8306,4.8306,4.8306,4.8306,4.8306,4.8306,4.8306,4.8306,4.8306,4.8306,4.8306,4.8306,4.8306,4.8306,4.8306,4.8306,4.8364,4.8532,4.8746,4.908,4.9442,4.9702,4.983,4.9857,5.0081,5.0268,5.0514,5.1357,5.2348,5.3337,5.4222,5.503,5.5662,5.5527,5.5461,5.5345,5.4847,5.4623,5.443,5.4089,5.3907,5.3813,5.3813,5.3813,5.3813,5.3813,5.3813,5.3813,5.3813,5.3793,5.3716,5.3716,5.3658,5.3619,5.3598,5.34,5.3295,5.3206,5.3206,5.3206,5.3206,5.3254,5.3277,5.3206,5.3254,5.3277,5.3206,5.3206,5.3206,5.3206,5.3206,5.3121,5.2868,5.206,5.1518,5.1262,5.0415,5.0011,5.0011,5.0011,5.0011,2.4287,2.6279,2.8282,3.0779,3.2173,3.3532,3.5789,3.6964,3.7826,3.8634,3.9974,4.0818,4.023,4.1901,4.3167,4.2525,4.3699,4.4984,4.5792,4.6599,4.7407,4.8214,4.8306,4.8306,4.8306,4.8306,4.8306,4.8306,4.8306,4.8306,4.8306,4.8306,4.8306,4.8306,4.8306,4.8306,4.8306,4.8306,4.8306,4.8306,4.8306,4.8306,4.8306,4.8306,4.8306,4.8306,4.8306,4.8495,4.8832,4.8915,4.924,4.9712,5.0038,5.0183,5.0272,5.0604,5.0741,5.0933,5.1741,5.2587,5.3453,5.4337,5.5107,5.5703,5.5703,5.5703,5.564,5.5364,5.5056,5.4716,5.4397,5.4054,5.3813,5.3832,5.3832,5.3813,5.3813,5.3813,5.3813,5.3813,5.3813,5.3813,5.3813,5.3813,5.3774,5.3695,5.3499,5.3295,5.3206,5.3206,5.3206,5.3206,5.3254,5.3277,5.3206,5.3254,5.3277,5.3206,5.3206,5.3206,5.3206,5.3206,5.2955,5.2454,5.1915,5.1365,5.0857,5.032,5.0011,5.0011,5.0011,5.0011,2.3855,2.558,2.7585,3.0632,3.3458,3.5642,3.6174,3.7404,3.867,3.9478,3.9918,4.0487,4.157,4.2213,4.2708,4.3167,4.4066,4.4984,4.5792,4.6599,4.7407,4.8214,4.8306,4.8306,4.8306,4.8306,4.8306,4.8306,4.8306,4.8306,4.8306,4.8306,4.8306,4.8306,4.8306,4.8306,4.8306,4.8306,4.8306,4.8306,4.8306,4.8306,4.8306,4.8306,4.8306,4.8306,4.8306,4.864,4.9209,4.9283,4.9655,5.0236,5.0418,5.0502,5.0542,5.0663,5.1106,5.176,5.2626,5.3491,5.4357,5.5184,5.5549,5.5703,5.5703,5.5703,5.564,5.5364,5.5056,5.4716,5.4397,5.4054,5.387,5.4125,5.4,5.3813,5.3813,5.3813,5.3813,5.3813,5.3813,5.3813,5.3813,5.3813,5.3774,5.3695,5.3656,5.3518,5.3336,5.3277,5.3254,5.3206,5.3254,5.3277,5.3206,5.3254,5.3277,5.3206,5.3206,5.3206,5.3206,5.3206,5.3164,5.3017,5.2108,5.1551,5.1416,5.0453,5.0011,5.0011,5.0011,5.0011,2.3272,2.5089,2.7365,3.0595,3.3862,3.6303,3.6303,3.7551,3.9038,4.023,4.0469,4.0855,4.2066,4.2598,4.313,4.3938,4.4745,4.5571,4.6361,4.7186,4.7847,4.8251,4.8306,4.8306,4.8306,4.8306,4.8306,4.8306,4.8306,4.8306,4.8306,4.8306,4.8306,4.8306,4.8306,4.8306,4.8306,4.8306,4.8306,4.8306,4.8306,4.8306,4.8306,4.8306,4.8306,4.8306,4.8458,4.8832,4.9314,4.958,4.9987,5.0457,5.0603,5.0643,5.0643,5.0702,5.1202,5.2029,5.2895,5.378,5.4626,5.5434,5.5703,5.5703,5.5703,5.5703,5.5662,5.5531,5.5269,5.4981,5.4817,5.4528,5.433,5.4495,5.4142,5.3832,5.3981,5.3889,5.3813,5.3813,5.3813,5.3813,5.3813,5.3813,5.3774,5.3695,5.3714,5.3616,5.3318,5.33,5.3277,5.3206,5.3295,5.3378,5.3254,5.3396,5.3418,5.3254,5.3272,5.323,5.3206,5.3206,5.3206,5.3206,5.2155,5.1601,5.1619,5.0509,5.0011,5.0011,5.0011,5.0011,2.274,2.4961,2.7732,3.0668,3.3752,3.6119,3.6266,3.7551,3.9129,4.0598,4.102,4.1405,4.2323,4.3039,4.3754,4.458,4.5388,4.6177,4.7003,4.781,4.8306,4.8306,4.8326,4.8364,4.8306,4.8326,4.8364,4.8306,4.8306,4.8306,4.8306,4.8306,4.8306,4.8306,4.8306,4.8306,4.8306,4.8306,4.8306,4.8306,4.8306,4.8306,4.8306,4.8364,4.8402,4.8402,4.873,4.9048,4.9453,4.9846,5.0202,5.0521,5.0643,5.0702,5.0721,5.0856,5.1414,5.226,5.3126,5.3991,5.4818,5.5472,5.5703,5.5703,5.5703,5.5703,5.5703,5.5703,5.5527,5.5288,5.5288,5.5037,5.4806,5.4866,5.443,5.4017,5.4246,5.4089,5.387,5.3794,5.3813,5.3813,5.3813,5.3813,5.3774,5.3734,5.3695,5.3637,5.3359,5.3341,5.3277,5.3248,5.3378,5.344,5.3359,5.3518,5.3558,5.33,5.3277,5.3254,5.3206,5.3206,5.3206,5.3206,5.2155,5.1601,5.1619,5.0509,5.0011,5.0011,5.0011,5.0011,2.2593,2.5766,2.9127,3.0944,3.3311,3.5385,3.6138,3.7551,3.8964,3.9863,4.0616,4.157,4.3057,4.3424,4.3754,4.458,4.5388,4.6177,4.7003,4.781,4.8306,4.8306,4.8569,4.8623,4.8344,4.855,4.8623,4.8306,4.8306,4.8306,4.8306,4.8306,4.8306,4.8306,4.8306,4.8306,4.8306,4.8306,4.8306,4.8306,4.8306,4.8306,4.8306,4.8657,4.8797,4.8746,4.8952,4.9352,4.9838,5.0019,5.0291,5.0603,5.0663,5.0702,5.0779,5.1491,5.2299,5.3145,5.403,5.4857,5.5549,5.5665,5.5703,5.5703,5.5703,5.5703,5.5703,5.5703,5.5527,5.5288,5.5288,5.5037,5.4866,5.5164,5.4952,5.4591,5.433,5.4262,5.4161,5.387,5.3813,5.3813,5.3813,5.3813,5.3813,5.3774,5.3774,5.3697,5.3499,5.3481,5.3418,5.3318,5.3318,5.3359,5.344,5.34,5.3359,5.33,5.3272,5.3206,5.3206,5.3206,5.3206,5.3206,5.2155,5.1601,5.1619,5.0509,5.0011,5.0011,5.0011,5.0011,2.3639,2.6282,2.8815,3.0889,3.2871,3.4669,3.5991,3.7202,3.8377,3.9643,4.0175,4.0928,4.2525,4.3185,4.3754,4.458,4.5388,4.6177,4.7003,4.781,4.8364,4.8569,4.8711,4.8816,4.8866,4.8832,4.8746,4.8586,4.8402,4.8306,4.8306,4.8306,4.8306,4.8306,4.8306,4.8306,4.8306,4.8306,4.8306,4.8306,4.8495,4.8495,4.8306,4.8934,4.9067,4.885,4.9363,4.973,4.9936,5.0245,5.0481,5.0603,5.0663,5.0702,5.0798,5.1606,5.2452,5.3318,5.4203,5.503,5.5703,5.5703,5.5703,5.5703,5.5703,5.5703,5.5703,5.5703,5.5618,5.5508,5.5508,5.5418,5.5345,5.5485,5.5394,5.5172,5.4685,5.443,5.4212,5.387,5.3813,5.3813,5.3813,5.3813,5.3813,5.3813,5.3813,5.3736,5.3637,5.3598,5.3539,5.3318,5.3418,5.3518,5.3499,5.3561,5.3521,5.34,5.3378,5.3314,5.3206,5.2912,5.2761,5.2761,5.2012,5.1601,5.1619,5.0509,5.0011,5.0011,5.0011,5.0011,2.4006,2.5952,2.7769,3.0191,3.2155,3.388,3.533,3.6615,3.7826,3.9038,3.9606,4.0267,4.146,4.2506,4.3534,4.4544,4.5204,4.5957,4.6966,4.7684,4.8292,4.8763,4.8967,4.9113,4.9283,4.908,4.89,4.8816,4.8569,4.8439,4.8439,4.8532,4.8532,4.8439,4.8439,4.8439,4.8439,4.8439,4.8402,4.8306,4.864,4.8711,4.8495,4.9259,4.9442,4.9145,4.9746,5.0038,5.0081,5.0459,5.0623,5.0623,5.0663,5.0702,5.0818,5.1856,5.2645,5.3356,5.4434,5.5203,5.5703,5.5703,5.5703,5.5703,5.5703,5.5703,5.5703,5.5703,5.5703,5.5703,5.5703,5.5703,5.5703,5.5703,5.5703,5.5531,5.4924,5.4463,5.4089,5.3832,5.3813,5.3813,5.3813,5.3813,5.3813,5.3813,5.3813,5.3793,5.3714,5.3714,5.3616,5.34,5.3558,5.3656,5.3579,5.3697,5.3697,5.3539,5.3499,5.3378,5.323,5.2806,5.2563,5.2408,5.1866,5.15,5.1398,5.0602,5.0149,5.0011,5.0011,5.0011,2.2666,2.43,2.6098,2.8521,3.0901,3.2908,3.3733,3.5771,3.7514,3.7617,3.8836,3.9918,4.001,4.1313,4.2873,4.4452,4.4745,4.5314,4.6893,4.7422,4.7943,4.8723,4.9363,4.9646,4.9314,4.9283,4.9145,4.8797,4.8781,4.8781,4.8781,4.908,4.9113,4.8781,4.8781,4.8781,4.8781,4.8781,4.8623,4.8306,4.8674,4.8897,4.8897,4.9636,4.9968,4.9924,5.0043,5.0245,5.0481,5.0643,5.0683,5.0702,5.0702,5.0702,5.0894,5.2529,5.3164,5.3433,5.5068,5.5665,5.5703,5.5703,5.5703,5.5703,5.5703,5.5703,5.5703,5.5703,5.5703,5.5703,5.5703,5.5703,5.5703,5.5703,5.5703,5.5531,5.4924,5.4281,5.3832,5.3794,5.3813,5.3813,5.3813,5.3813,5.3813,5.3813,5.3813,5.3793,5.3714,5.3714,5.3695,5.3656,5.3714,5.3734,5.3774,5.3734,5.3714,5.3714,5.3459,5.3318,5.3318,5.323,5.2912,5.2408,5.1866,5.1365,5.0857,5.082,5.0509,5.0011,5.0011,5.0011,2.2538,2.3804,2.5328,2.8282,3.0044,3.1549,3.3385,3.5312,3.6872,3.7397,3.8358,3.9294,3.979,4.1222,4.2488,4.3075,4.403,4.4911,4.5498,4.6295,4.7192,4.8234,4.8758,4.928,4.9872,4.973,4.957,4.9453,4.924,4.9113,4.9113,4.9221,4.9221,4.9113,4.9113,4.9113,4.9113,4.9113,4.9048,4.8949,4.9333,4.9375,4.9234,4.9936,5.0155,5.0019,5.0291,5.0481,5.0582,5.0663,5.0702,5.0702,5.0702,5.0702,5.0894,5.2587,5.3203,5.3433,5.5126,5.5703,5.5703,5.5703,5.5703,5.5703,5.5703,5.5703,5.5703,5.5703,5.5703,5.5703,5.5703,5.5703,5.5703,5.5703,5.5573,5.5339,5.4895,5.4281,5.3813,5.3813,5.3813,5.3813,5.3813,5.3813,5.3813,5.3813,5.3813,5.3813,5.3793,5.3754,5.3754,5.3695,5.3734,5.3754,5.3734,5.3754,5.3754,5.3714,5.3616,5.3459,5.3318,5.2944,5.2617,5.2408,5.2203,5.1651,5.0803,5.0453,5.0206,5.0011,5.0011,5.0011,2.1768,2.296,2.4447,2.7126,2.8815,3.0356,3.2504,3.4266,3.5679,3.6486,3.7533,3.845,3.9001,4.0396,4.1662,4.2213,4.3204,4.4085,4.4635,4.5545,4.6564,4.7594,4.8075,4.8737,4.9801,4.9581,4.9519,4.9784,4.9599,4.9483,4.9483,4.957,4.957,4.9483,4.9483,4.9405,4.9283,4.9424,4.9424,4.9283,4.9655,4.9738,4.9608,5.0174,5.0352,5.0249,5.0502,5.0603,5.0603,5.0663,5.0702,5.0702,5.0702,5.0856,5.126,5.2683,5.3395,5.3837,5.5222,5.5703,5.5703,5.5703,5.5703,5.5703,5.5703,5.5703,5.5703,5.5703,5.5703,5.5703,5.5703,5.5703,5.5703,5.5703,5.5413,5.5083,5.4836,5.4364,5.3926,5.3832,5.3813,5.3813,5.3813,5.3813,5.3813,5.3813,5.3813,5.3813,5.3813,5.3813,5.3774,5.3734,5.3774,5.3774,5.3734,5.3774,5.3774,5.3734,5.3695,5.3616,5.3359,5.2993,5.2644,5.2408,5.2203,5.175,5.1052,5.0712,5.0359,5.0011,5.0011,5.0011,0.0,0.0,0.0,2.4942,2.7181,2.9384,3.0962,3.2614,3.4027,3.4789,3.6303,3.7489,3.7507,3.8762,4.0359,4.1974,4.2249,4.2818,4.4415,4.5196,4.5933,4.6749,4.7397,4.8105,4.8965,4.8764,4.8913,4.9736,4.9792,4.9792,4.9811,5.012,5.0144,4.983,4.9811,4.9674,4.9314,4.9627,4.9646,4.9314,4.973,4.9943,5.0019,5.0355,5.0582,5.0702,5.0623,5.0603,5.0603,5.0663,5.0702,5.0702,5.0702,5.1183,5.201,5.2876,5.376,5.4626,5.5415,5.5703,5.5703,5.5703,5.5703,5.5703,5.5703,5.5703,5.5703,5.5703,5.5703,5.5703,5.5703,5.5703,5.5703,5.5703,5.525,5.4806,5.4806,5.4528,5.4212,5.387,5.3813,5.3813,5.3813,5.3813,5.3813,5.3813,5.3813,5.3813,5.3813,5.3813,5.3813,5.3813,5.3813,5.3813,5.3813,5.3813,5.3813,5.3813,5.3734,5.3656,5.3499,5.3359,5.3048,5.2472,5.1915,5.1651,5.1601,5.1569,5.1017,4.9993,5.0011,5.0011,2.0264,0.0,0.0,0.0,0.0,0.0,2.9439,3.1806,3.3862,3.41,3.5459,3.6798,3.7397,3.7845,3.867,4.0286,4.1056,4.1791,4.2818,4.3502,4.443,4.5857,4.6524,4.7207,4.8086,4.8075,4.8372,4.9234,4.9291,4.9558,5.013,5.0236,5.0259,5.0169,5.0169,5.012,5.0006,5.012,5.012,5.0025,5.0193,5.0306,5.0374,5.0521,5.0623,5.0702,5.0663,5.0663,5.0663,5.0683,5.0702,5.0702,5.0702,5.1183,5.201,5.2876,5.376,5.4626,5.5415,5.5703,5.5703,5.5703,5.5703,5.5703,5.5703,5.5703,5.5703,5.5703,5.5703,5.5703,5.5703,5.5703,5.5703,5.5703,5.5418,5.5111,5.4836,5.4528,5.4212,5.387,5.3813,5.3813,5.3813,5.3813,5.3813,5.3813,5.3813,5.3813,5.3813,5.3813,5.3813,5.3813,5.3813,5.3813,5.3813,5.3813,5.3813,5.3813,5.3774,5.3697,5.3499,5.344,5.3295,5.2955,5.2806,5.2563,5.2155,5.1017,5.0509,5.0564,5.0206,5.0011,1.9968,2.0868,2.2115,2.3382,0.0,0.0,2.8645,3.0467,3.2082,3.3091,3.4339,3.5495,3.6303,3.6743,3.7404,3.867,3.9294,4.012,4.1589,4.2292,4.3039,4.4016,4.491,4.5812,4.6672,4.7073,4.7627,4.8487,4.8563,4.8926,4.9748,4.9805,4.9939,5.0283,5.0302,5.0302,5.0302,5.0302,5.0302,5.0302,5.0367,5.0435,5.05,5.0582,5.0623,5.0702,5.0702,5.0702,5.0702,5.0702,5.0702,5.0702,5.0702,5.1414,5.251,5.301,5.3953,5.5068,5.553,5.5703,5.5703,5.5703,5.5703,5.5703,5.5703,5.5703,5.5703,5.5703,5.5703,5.5703,5.5703,5.5703,5.5703,5.5703,5.5504,5.521,5.4866,5.4528,5.4212,5.387,5.3813,5.3813,5.3813,5.3813,5.3813,5.3813,5.3813,5.3813,5.3813,5.3813,5.3813,5.3813,5.3813,5.3813,5.3813,5.3813,5.3813,5.3813,5.3813,5.3736,5.3499,5.3499,5.3396,5.3206,5.2955,5.2608,5.206,5.1105,5.0602,5.0453,5.0166,5.0011,1.9803,2.0737,2.2097,2.2832,2.4208,0.0,2.8117,2.881,2.9599,3.1744,3.2908,3.3807,3.4697,3.5514,3.6321,3.7202,3.7349,3.8193,4.0634,4.1425,4.1792,4.1886,4.3069,4.4169,4.4953,4.5755,4.6577,4.7474,4.7704,4.8143,4.8907,4.9041,4.9423,5.0149,5.0245,5.0302,5.0302,5.0302,5.0302,5.0302,5.039,5.0457,5.05,5.0582,5.0643,5.0702,5.0702,5.0702,5.0702,5.0702,5.0702,5.0702,5.0702,5.1722,5.3203,5.3203,5.426,5.5703,5.5703,5.5703,5.5703,5.5703,5.5703,5.5703,5.5703,5.5703,5.5703,5.5703,5.5703,5.5703,5.5703,5.5703,5.5703,5.5703,5.5504,5.521,5.4866,5.4528,5.4212,5.387,5.3813,5.3813,5.3813,5.3813,5.3813,5.3813,5.3813,5.3813,5.3813,5.3813,5.3813,5.3813,5.3813,5.3813,5.3813,5.3813,5.3813,5.3813,5.3813,5.3736,5.3499,5.3499,5.3396,5.3206,5.2717,5.2203,5.1719,5.1719,5.1158,5.0149,5.0109,5.0109,2.1528,2.2024,2.2813,2.296,2.4208,0.0,2.6009,2.7622,2.9122,2.9599,3.087,3.2302,3.377,3.4174,3.478,3.6285,3.6523,3.7367,3.979,4.0598,4.1154,4.1811,4.2576,4.31,4.3271,4.4017,4.4857,4.5717,4.7035,4.7876,4.8048,4.8716,4.9156,4.9328,4.9958,5.0302,5.0302,5.0302,5.0302,5.0302,5.0416,5.05,5.05,5.0623,5.0702,5.0702,5.0702,5.0702,5.0702,5.0702,5.0702,5.0702,5.0702,5.1722,5.3203,5.3203,5.426,5.5703,5.5703,5.5703,5.5703,5.5703,5.5703,5.5703,5.5703,5.5703,5.5703,5.5703,5.5703,5.5703,5.5703,5.5703,5.5703,5.5703,5.5504,5.521,5.4866,5.4528,5.4212,5.387,5.3813,5.3813,5.3813,5.3813,5.3813,5.3813,5.3813,5.3813,5.3813,5.3813,5.3813,5.3813,5.3813,5.3813,5.3813,5.3813,5.3813,5.3813,5.3813,5.3736,5.3499,5.3499,5.3396,5.3206,5.3121,5.2761,5.225,5.225,5.1897,5.1262,5.0857,5.0657,2.2721,2.2703,2.2997,2.2997,2.3914,0.0,0.0,2.6337,2.7438,2.8246,2.9365,3.0577,3.1788,3.232,3.2999,3.4247,3.4798,3.5624,3.7239,3.8643,3.9658,4.0046,4.1304,4.2144,4.2144,4.2908,4.3749,4.459,4.543,4.6271,4.7111,4.757,4.82,4.906,4.948,4.9882,5.0302,5.0302,5.0302,5.0302,5.0457,5.05,5.05,5.0643,5.0702,5.0702,5.0702,5.0702,5.0702,5.0702,5.0702,5.0702,5.0702,5.1452,5.2606,5.3049,5.401,5.5164,5.5549,5.5703,5.5703,5.5703,5.5703,5.5703,5.5703,5.5703,5.5703,5.5703,5.5703,5.5703,5.5703,5.5703,5.5703,5.5703,5.5504,5.521,5.4866,5.4528,5.4212,5.387,5.3813,5.3813,5.3813,5.3813,5.3813,5.3813,5.3813,5.3813,5.3813,5.3813,5.3813,5.3813,5.3813,5.3813,5.3813,5.3813,5.3813,5.3813,5.3813,5.3736,5.3598,5.3539,5.3396,5.3206,5.3206,5.306,5.2806,5.2806,5.2408,5.1619,5.1052,5.0803,2.4318,2.3823,2.3676,2.3511,2.3951,2.4557,0.0,0.0,0.0,2.7053,2.7989,2.8796,2.9586,3.0393,3.1091,3.1604,3.2614,3.3458,3.378,3.5826,3.7446,3.7933,3.9785,4.0998,4.096,4.1915,4.2889,4.3711,4.3921,4.459,4.5946,4.6328,4.715,4.8544,4.8907,4.9404,5.0054,5.0225,5.0302,5.0325,5.0438,5.05,5.0521,5.0643,5.0702,5.0702,5.0702,5.0702,5.0702,5.0702,5.0702,5.0702,5.0702,5.1183,5.201,5.2876,5.376,5.4626,5.5415,5.5703,5.5703,5.5703,5.5703,5.5703,5.5703,5.5703,5.5703,5.5703,5.5703,5.5703,5.5703,5.5703,5.5703,5.5703,5.5504,5.521,5.4866,5.4528,5.4212,5.387,5.3813,5.3813,5.3813,5.3813,5.3813,5.3813,5.3813,5.3813,5.3813,5.3813,5.3813,5.3813,5.3813,5.3813,5.3813,5.3813,5.3813,5.3813,5.3813,5.3793,5.3714,5.3558,5.3378,5.3206,5.3206,5.3206,5.3206,5.3206,5.2761,5.1915,5.1365,5.1105,2.7493,2.6722,2.6025,2.5309,2.5201,2.5109,2.4483,0.0,2.5458,2.5642,0.0,2.7126,2.7915,0.0,0.0,2.8448,3.021,3.1201,2.9855,3.1932,3.4405,3.6614,3.8296,3.9223,3.9028,4.0596,4.2011,4.287,4.3615,4.4093,4.4284,4.5698,4.6596,4.6787,4.8296,4.9137,4.9232,4.9939,5.0325,5.039,5.0478,5.0521,5.0603,5.0682,5.0702,5.0702,5.0702,5.0702,5.0702,5.0702,5.0702,5.0702,5.0702,5.1183,5.201,5.2876,5.376,5.4626,5.5415,5.5703,5.5703,5.5703,5.5703,5.5703,5.5703,5.5703,5.5703,5.5703,5.5703,5.5703,5.5703,5.5703,5.5703,5.5703,5.5504,5.521,5.4866,5.4528,5.4212,5.387,5.3813,5.3813,5.3813,5.3813,5.3813,5.3813,5.3813,5.3813,5.3813,5.3813,5.3813,5.3813,5.3813,5.3813,5.3813,5.3813,5.3813,5.3813,5.3813,5.3793,5.3714,5.3459,5.3295,5.3206,5.3206,5.3206,5.3206,5.3206,5.3121,5.3017,5.2472,5.2221,3.0099,2.9079,2.8001,2.7022,2.6866,2.6725,2.5809,2.5841,2.5952,2.5513,0.0,0.0,0.0,0.0,0.0,0.0,2.8356,2.9072,2.8393,2.9798,3.1812,3.4264,3.608,3.7542,3.8607,3.9509,4.0597,4.1934,4.2354,4.2966,4.3959,4.4685,4.5507,4.6481,4.7207,4.8067,4.9079,4.943,4.9873,5.0412,5.05,5.0582,5.0603,5.0663,5.0702,5.0702,5.0702,5.0702,5.0702,5.0702,5.0702,5.0702,5.0702,5.0914,5.1375,5.2722,5.3433,5.3933,5.5241,5.5703,5.5703,5.5703,5.5703,5.5703,5.5703,5.5703,5.5703,5.5703,5.5703,5.5703,5.5703,5.5703,5.5703,5.5703,5.5504,5.521,5.4866,5.4528,5.4212,5.387,5.3813,5.3813,5.3813,5.3813,5.3813,5.3813,5.3813,5.3813,5.3813,5.3813,5.3813,5.3813,5.3813,5.3813,5.3813,5.3813,5.3813,5.3813,5.3813,5.3736,5.3598,5.3459,5.3336,5.3206,5.3206,5.3206,5.3206,5.3206,5.3206,5.3164,5.2654,5.2408,3.2674,3.1469,3.0129,2.9052,2.8732,2.8355,2.7206,2.6924,2.6631,2.5623,2.586,0.0,0.0,0.0,2.6135,2.5695,0.0,2.731,2.6869,2.7869,2.953,3.196,3.4068,3.6039,3.7745,3.8517,3.9414,4.0634,4.1208,4.203,4.3252,4.3749,4.4571,4.5793,4.6271,4.7226,4.8735,4.8993,4.9551,5.0435,5.0542,5.0603,5.0623,5.0682,5.0702,5.0702,5.0702,5.0702,5.0702,5.0702,5.0702,5.0702,5.0702,5.0702,5.0894,5.2587,5.3203,5.3433,5.5126,5.5703,5.5703,5.5703,5.5703,5.5703,5.5703,5.5703,5.5703,5.5703,5.5703,5.5703,5.5703,5.5703,5.5703,5.5703,5.5504,5.521,5.4866,5.4528,5.4212,5.387,5.3813,5.3813,5.3813,5.3813,5.3813,5.3813,5.3813,5.3813,5.3813,5.3813,5.3813,5.3813,5.3813,5.3813,5.3813,5.3813,5.3813,5.3813,5.3813,5.3736,5.3539,5.3539,5.3418,5.323,5.3206,5.3206,5.3206,5.3206,5.3206,5.3206,5.2806,5.2608,3.5355,3.4115,3.2637,3.1556,3.0687,2.9738,2.8117,2.775,2.731,2.5733,2.5421,2.5201,2.4392,2.4887,2.4924,2.3382,2.5107,0.0,0.0,2.5676,2.7585,3.0013,3.2636,3.4685,3.5794,3.7612,3.8721,3.8778,4.0462,4.1514,4.1571,4.3119,4.4036,4.4093,4.566,4.694,4.7837,4.8687,4.9554,5.05,5.0582,5.0623,5.0702,5.0702,5.0702,5.0702,5.0702,5.0702,5.0702,5.0702,5.0702,5.0702,5.0702,5.0702,5.0894,5.2587,5.3203,5.3433,5.5126,5.5703,5.5703,5.5703,5.5703,5.5703,5.5703,5.5703,5.5703,5.5703,5.5703,5.5703,5.5703,5.5703,5.5703,5.5703,5.5504,5.521,5.4866,5.4528,5.4212,5.387,5.3813,5.3813,5.3813,5.3813,5.3813,5.3813,5.3813,5.3813,5.3813,5.3813,5.3813,5.3813,5.3813,5.3813,5.3813,5.3813,5.3813,5.3813,5.3813,5.3793,5.3714,5.3558,5.344,5.3318,5.323,5.3206,5.3206,5.3206,5.3206,5.3206,5.3164,5.3164,3.7347,3.6637,3.5606,3.437,3.3576,3.2747,3.1317,3.0155,2.909,2.8007,2.7365,2.6576,2.5256,2.5219,2.5054,2.3969,2.4483,2.4814,0.0,2.5126,2.5897,2.619,2.9061,3.1659,3.3197,3.5057,3.6711,3.7946,3.9165,4.0329,4.1437,4.203,4.2851,4.3978,4.4551,4.5812,4.778,4.8152,4.9058,5.05,5.0582,5.0623,5.0702,5.0702,5.0702,5.0702,5.0702,5.0702,5.0702,5.0702,5.0702,5.0702,5.0702,5.0702,5.0894,5.2587,5.3203,5.3433,5.5126,5.5703,5.5703,5.5703,5.5703,5.5703,5.5703,5.5703,5.5703,5.5703,5.5703,5.5703,5.5703,5.5703,5.5703,5.5703,5.5618,5.5418,5.4924,5.4716,5.4463,5.3907,5.3813,5.3813,5.3813,5.3813,5.3813,5.3813,5.3813,5.3813,5.3813,5.3813,5.3813,5.3813,5.3813,5.3813,5.3813,5.3813,5.3813,5.3813,5.3813,5.3793,5.3714,5.3558,5.344,5.33,5.323,5.3206,5.3206,5.3206,5.3206,5.3206,5.3206,5.3206,3.8977,3.8385,3.7631,3.6686,3.5941,3.5143,3.3993,3.2715,3.1455,3.0364,2.923,2.8118,2.7119,2.6393,2.5761,2.5226,2.4873,2.452,0.0,2.4649,2.4777,2.4263,2.6985,2.9619,3.1386,3.3318,3.5305,3.7413,3.8478,3.9603,4.0998,4.1342,4.2144,4.3539,4.3864,4.5086,4.7322,4.7752,4.8639,5.004,5.0449,5.0643,5.0702,5.0702,5.0702,5.0702,5.0702,5.0702,5.0702,5.0702,5.0702,5.0702,5.0702,5.0702,5.0894,5.2587,5.3587,5.4241,5.5318,5.5703,5.5703,5.5703,5.5703,5.5703,5.5703,5.5703,5.5703,5.5703,5.5703,5.5703,5.5703,5.5703,5.5703,5.5703,5.5703,5.5554,5.5064,5.4895,5.4654,5.4089,5.387,5.3813,5.3813,5.3813,5.3813,5.3813,5.3813,5.3813,5.3813,5.3813,5.3813,5.3813,5.3813,5.3813,5.3813,5.3813,5.3813,5.3813,5.3813,5.3774,5.3734,5.3579,5.344,5.3359,5.3272,5.3206,5.3206,5.3206,5.3206,5.3206,5.3206,5.3206]},{"header":{"parameterUnit":"m.s-1","parameterCategory":1,"la1":30.6,"la2":29.2853,"lo1":-89.7004,"lo2":-87.6739,"dx":0.0162,"dy":0.0183,"nx":112,"ny":82,"refTime":"2022-12-30T18:00:00:Z","depth":0,"parameterNumber":3,"parameterNumberName":"V-component_of_WINDS"},"data":[0.0,0.0,0.0,0.0,0.0,0.0,0.0,0.0,0.0,0.0,0.0,0.0,0.0,0.0,0.0,0.0,0.0,0.0,0.0,0.0,0.0,0.0,0.0,0.0,0.0,0.0,0.0,0.0,0.0,0.0,0.0,0.0,0.0,0.0,0.0,0.0,0.0,0.0,0.0,0.0,0.0,0.0,0.0,0.0,0.0,0.0,0.0,0.0,0.0,0.0,0.0,0.0,0.0,0.0,0.0,0.0,0.0,0.0,0.0,0.0,0.0,0.0,0.0,0.0,0.0,0.0,0.0,0.0,0.0,0.0,0.0,0.0,0.0,0.0,0.0,0.0,0.0,0.0,0.0,0.0,0.0,0.0,0.0,0.0,0.0,0.0,0.0,0.0,0.0,0.0,-1.1235,-1.1521,-1.2006,-1.2257,-1.2152,-1.2084,-1.2075,-1.2105,0.0,0.0,0.0,0.0,0.0,0.0,0.0,0.0,0.0,0.0,0.0,0.0,0.0,0.0,0.0,0.0,0.0,0.0,0.0,0.0,0.0,0.0,0.0,0.0,0.0,0.0,0.0,0.0,0.0,0.0,0.0,0.0,0.0,0.0,0.0,0.0,0.0,0.0,0.0,0.0,0.0,0.0,0.0,0.0,0.0,0.0,0.0,0.0,0.0,0.0,0.0,0.0,0.0,0.0,0.0,0.0,0.0,0.0,0.0,0.0,0.0,0.0,0.0,0.0,0.0,0.0,0.0,0.0,0.0,0.0,0.0,0.0,0.0,0.0,0.0,0.0,0.0,0.0,0.0,0.0,0.0,0.0,0.0,0.0,0.0,0.0,0.0,0.0,0.0,0.0,0.0,0.0,0.0,0.0,0.0,0.0,0.0,0.0,0.0,0.0,0.0,0.0,0.0,0.0,-1.1916,-1.1759,-1.1827,-1.188,-1.1863,-1.1561,-1.1591,-1.214,0.0,0.0,0.0,0.0,0.0,0.0,0.0,0.0,0.0,0.0,0.0,0.0,0.0,0.0,0.0,0.0,0.0,0.0,0.0,0.0,0.0,0.0,0.0,0.0,0.0,0.0,0.0,0.0,0.0,0.0,0.0,0.0,0.0,0.0,0.0,0.0,0.0,0.0,0.0,0.0,0.0,0.0,0.0,0.0,0.0,0.0,0.0,0.0,0.0,0.0,0.0,0.0,0.0,0.0,0.0,0.0,0.0,0.0,0.0,0.0,0.0,0.0,0.0,0.0,0.0,0.0,0.0,0.0,0.0,0.0,0.0,0.0,0.0,0.0,0.0,0.0,0.0,0.0,0.0,0.0,0.0,0.0,0.0,0.0,0.0,0.0,0.0,0.0,0.0,0.0,0.0,0.0,0.0,0.0,0.0,0.0,0.0,0.0,0.0,0.0,0.0,0.0,0.0,-1.1809,-1.2021,-1.192,-1.2119,-1.227,-1.2213,-1.2013,-1.1982,-1.2204,-1.2158,0.0,0.0,0.0,0.0,0.0,0.0,0.0,0.0,0.0,0.0,0.0,0.0,0.0,0.0,0.0,0.0,0.0,0.0,0.0,0.0,0.0,0.0,0.0,0.0,0.0,0.0,0.0,0.0,0.0,0.0,0.0,0.0,0.0,0.0,0.0,0.0,0.0,0.0,0.0,0.0,0.0,0.0,0.0,0.0,0.0,0.0,0.0,0.0,0.0,0.0,0.0,0.0,0.0,0.0,0.0,0.0,0.0,0.0,0.0,0.0,0.0,0.0,0.0,0.0,0.0,0.0,0.0,0.0,0.0,0.0,0.0,0.0,0.0,0.0,0.0,0.0,0.0,0.0,0.0,0.0,0.0,0.0,0.0,0.0,0.0,0.0,0.0,0.0,0.0,0.0,0.0,0.0,0.0,0.0,0.0,0.0,0.0,0.0,0.0,0.0,0.0,0.0,-1.1674,-1.1902,-1.2006,-1.232,-1.2541,-1.2393,-1.2322,-1.2242,-1.2268,-1.2146,0.0,0.0,0.0,0.0,0.0,0.0,0.0,0.0,0.0,0.0,0.0,0.0,0.0,0.0,0.0,0.0,0.0,0.0,0.0,0.0,0.0,0.0,0.0,0.0,0.0,0.0,0.0,0.0,0.0,0.0,0.0,0.0,0.0,0.0,0.0,0.0,0.0,0.0,0.0,0.0,0.0,0.0,0.0,0.0,0.0,0.0,0.0,0.0,0.0,0.0,0.0,0.0,0.0,0.0,0.0,0.0,0.0,0.0,0.0,0.0,0.0,0.0,0.0,0.0,0.0,0.0,0.0,0.0,0.0,0.0,0.0,0.0,0.0,0.0,0.0,0.0,0.0,0.0,0.0,0.0,0.0,0.0,0.0,0.0,0.0,0.0,0.0,0.0,0.0,0.0,0.0,0.0,0.0,0.0,0.0,0.0,0.0,0.0,0.0,0.0,0.0,0.0,-1.1834,-1.1674,-1.2043,-1.2107,-1.2166,-1.2138,-1.1796,-1.1794,-1.2351,-1.2024,0.0,0.0,0.0,0.0,0.0,0.0,0.0,0.0,0.0,0.0,0.0,0.0,0.0,0.0,0.0,0.0,0.0,0.0,0.0,0.0,0.0,0.0,0.0,0.0,0.0,0.0,0.0,0.0,0.0,0.0,0.0,0.0,0.0,0.0,0.0,0.0,0.0,0.0,0.0,0.0,0.0,0.0,0.0,0.0,0.0,0.0,0.0,0.0,0.0,0.0,0.0,0.0,0.0,0.0,0.0,0.0,0.0,0.0,0.0,0.0,0.0,0.0,0.0,0.0,0.0,0.0,0.0,0.0,0.0,0.0,0.0,0.0,0.0,0.0,0.0,0.0,0.0,0.0,0.0,0.0,0.0,0.0,0.0,0.0,0.0,0.0,0.0,0.0,0.0,0.0,0.0,0.0,0.0,0.0,0.0,0.0,0.0,0.0,0.0,0.0,0.0,0.0,-1.2459,-1.2588,-1.2475,-1.2681,-1.2837,-1.2837,-1.2461,-1.2368,-1.2576,0.0,0.0,0.0,0.0,0.0,0.0,0.0,0.0,0.0,0.0,0.0,0.0,0.0,0.0,0.0,0.0,0.0,0.0,0.0,0.0,0.0,0.0,0.0,0.0,0.0,0.0,0.0,0.0,0.0,0.0,0.0,0.0,0.0,0.0,0.0,0.0,0.0,0.0,0.0,0.0,0.0,0.0,0.0,0.0,0.0,0.0,0.0,0.0,0.0,0.0,0.0,0.0,0.0,0.0,0.0,0.0,0.0,0.0,0.0,0.0,0.0,0.0,0.0,0.0,0.0,0.0,0.0,0.0,0.0,0.0,0.0,0.0,0.0,0.0,0.0,0.0,0.0,0.0,0.0,0.0,0.0,0.0,0.0,0.0,0.0,0.0,0.0,0.0,0.0,0.0,0.0,0.0,0.0,0.0,0.0,0.0,0.0,0.0,0.0,0.0,0.0,0.0,-1.2135,-1.2725,-1.303,-1.2908,-1.3121,-1.3296,-1.3296,-1.291,-1.2723,-1.2806,0.0,0.0,0.0,0.0,0.0,0.0,0.0,0.0,0.0,0.0,0.0,0.0,0.0,0.0,0.0,0.0,0.0,0.0,0.0,0.0,0.0,0.0,0.0,0.0,0.0,0.0,0.0,0.0,0.0,0.0,0.0,0.0,0.0,0.0,0.0,0.0,0.0,0.0,0.0,0.0,0.0,0.0,0.0,0.0,0.0,0.0,0.0,0.0,0.0,0.0,0.0,0.0,0.0,0.0,0.0,0.0,0.0,0.0,0.0,0.0,0.0,0.0,0.0,0.0,0.0,0.0,0.0,0.0,0.0,0.0,0.0,0.0,0.0,0.0,0.0,0.0,0.0,0.0,0.0,0.0,0.0,0.0,0.0,0.0,0.0,0.0,0.0,0.0,0.0,0.0,0.0,0.0,0.0,0.0,0.0,0.0,0.0,0.0,0.0,0.0,0.0,0.0,-1.2184,-1.2516,-1.289,-1.3259,-1.3305,-1.3305,-1.3305,-1.292,-1.2804,0.0,0.0,0.0,0.0,0.0,0.0,0.0,0.0,0.0,0.0,0.0,0.0,0.0,0.0,0.0,0.0,0.0,0.0,0.0,0.0,0.0,0.0,0.0,0.0,0.0,0.0,0.0,0.0,0.0,0.0,0.0,0.0,0.0,0.0,0.0,0.0,0.0,0.0,0.0,0.0,0.0,0.0,0.0,0.0,0.0,0.0,0.0,0.0,0.0,0.0,0.0,0.0,0.0,0.0,0.0,0.0,0.0,0.0,0.0,0.0,0.0,0.0,0.0,0.0,0.0,0.0,0.0,0.0,0.0,0.0,0.0,0.0,0.0,0.0,0.0,0.0,0.0,0.0,0.0,0.0,0.0,0.0,0.0,0.0,0.0,0.0,0.0,0.0,0.0,0.0,0.0,0.0,0.0,0.0,0.0,0.0,0.0,0.0,0.0,0.0,0.0,0.0,0.0,-1.2349,-1.31,-1.3571,-1.3699,-1.3974,-1.4157,-1.4157,-1.3763,-1.3385,-1.3087,0.0,0.0,0.0,0.0,0.0,0.0,0.0,0.0,0.0,0.0,0.0,0.0,0.0,0.0,0.0,0.0,0.0,0.0,0.0,0.0,0.0,0.0,0.0,0.0,0.0,0.0,0.0,0.0,0.0,0.0,0.0,0.0,0.0,0.0,0.0,0.0,0.0,0.0,0.0,0.0,0.0,0.0,0.0,0.0,0.0,0.0,0.0,0.0,0.0,0.0,0.0,0.0,0.0,0.0,0.0,0.0,0.0,0.0,0.0,0.0,0.0,0.0,0.0,0.0,0.0,0.0,0.0,0.0,0.0,0.0,0.0,0.0,0.0,0.0,0.0,0.0,0.0,0.0,0.0,0.0,0.0,0.0,0.0,0.0,0.0,0.0,0.0,0.0,0.0,0.0,0.0,0.0,0.0,0.0,0.0,0.0,0.0,0.0,0.0,0.0,0.0,0.0,-1.2541,-1.3478,-1.4194,-1.435,-1.4735,-1.4983,-1.4983,-1.446,-1.4033,-1.3753,0.0,0.0,0.0,0.0,0.0,0.0,0.0,0.0,0.0,0.0,0.0,0.0,0.0,0.0,0.0,0.0,0.0,0.0,0.0,0.0,0.0,0.0,0.0,0.0,0.0,0.0,0.0,0.0,0.0,0.0,0.0,0.0,0.0,0.0,0.0,0.0,0.0,0.0,0.0,0.0,0.0,0.0,0.0,0.0,0.0,0.0,0.0,0.0,0.0,0.0,0.0,0.0,0.0,0.0,0.0,0.0,0.0,0.0,0.0,0.0,0.0,0.0,0.0,0.0,0.0,0.0,0.0,0.0,0.0,0.0,0.0,0.0,0.0,0.0,0.0,0.0,0.0,0.0,0.0,0.0,0.0,0.0,0.0,0.0,0.0,0.0,0.0,0.0,0.0,0.0,0.0,0.0,0.0,0.0,0.0,0.0,0.0,0.0,0.0,0.0,0.0,0.0,-1.2834,-1.3882,-1.4753,-1.512,-1.5478,-1.5689,-1.5689,-1.5029,-1.4639,-1.4656,0.0,0.0,0.0,0.0,0.0,0.0,0.0,0.0,0.0,0.0,0.0,0.0,0.0,0.0,0.0,0.0,0.0,0.0,0.0,0.0,0.0,0.0,0.0,0.0,0.0,0.0,0.0,0.0,0.0,0.0,0.0,0.0,0.0,0.0,0.0,0.0,0.0,0.0,0.0,0.0,0.0,0.0,0.0,0.0,0.0,0.0,0.0,0.0,0.0,0.0,0.0,0.0,0.0,0.0,0.0,0.0,0.0,0.0,0.0,0.0,-1.1439,-1.112,0.0,0.0,0.0,0.0,0.0,0.0,0.0,0.0,0.0,0.0,0.0,0.0,0.0,0.0,0.0,0.0,0.0,0.0,0.0,0.0,0.0,0.0,0.0,0.0,0.0,0.0,0.0,0.0,0.0,0.0,0.0,0.0,0.0,0.0,0.0,0.0,0.0,0.0,0.0,0.0,-1.402,-1.4891,-1.5469,-1.5551,-1.5643,-1.5689,-1.5689,-1.5533,-1.5166,-1.4602,-1.4025,0.0,0.0,0.0,0.0,0.0,0.0,0.0,0.0,0.0,0.0,0.0,0.0,0.0,0.0,0.0,0.0,0.0,0.0,0.0,0.0,0.0,0.0,0.0,0.0,0.0,0.0,0.0,0.0,0.0,0.0,0.0,0.0,0.0,0.0,0.0,0.0,0.0,0.0,0.0,0.0,0.0,0.0,0.0,0.0,0.0,0.0,0.0,0.0,0.0,0.0,0.0,0.0,0.0,0.0,0.0,0.0,0.0,0.0,0.0,-1.2064,-1.151,0.0,0.0,0.0,0.0,0.0,0.0,0.0,0.0,0.0,0.0,0.0,0.0,0.0,0.0,0.0,0.0,0.0,0.0,0.0,0.0,0.0,0.0,0.0,0.0,0.0,0.0,0.0,0.0,0.0,0.0,0.0,0.0,0.0,0.0,0.0,0.0,0.0,0.0,0.0,0.0,-1.446,-1.5542,-1.6276,-1.6276,-1.6624,-1.6862,-1.6862,-1.6496,-1.6101,-1.5689,-1.4786,0.0,0.0,0.0,0.0,0.0,0.0,0.0,0.0,0.0,0.0,0.0,0.0,0.0,0.0,0.0,0.0,0.0,0.0,0.0,0.0,0.0,0.0,0.0,0.0,0.0,0.0,0.0,0.0,0.0,0.0,0.0,0.0,0.0,0.0,0.0,0.0,0.0,0.0,0.0,0.0,0.0,0.0,0.0,0.0,0.0,0.0,0.0,0.0,0.0,0.0,0.0,0.0,0.0,-1.2899,-1.3262,-1.3924,-1.3946,-1.3974,-1.3952,-1.2764,-1.2148,-1.2047,-1.2665,0.0,0.0,0.0,0.0,0.0,0.0,0.0,0.0,0.0,0.0,0.0,0.0,0.0,0.0,0.0,0.0,0.0,0.0,0.0,0.0,0.0,0.0,-1.2817,-1.2087,-1.2461,-1.2822,-1.2149,0.0,0.0,0.0,0.0,0.0,0.0,0.0,0.0,0.0,0.0,0.0,-1.4919,-1.6211,-1.7119,-1.7119,-1.7724,-1.8128,-1.8128,-1.7504,-1.7064,-1.6917,-1.5661,-1.4643,0.0,0.0,0.0,0.0,0.0,0.0,0.0,0.0,0.0,0.0,0.0,0.0,0.0,0.0,0.0,0.0,0.0,0.0,0.0,0.0,0.0,0.0,0.0,0.0,0.0,0.0,0.0,0.0,0.0,0.0,0.0,0.0,-0.7957,-0.8356,0.0,0.0,0.0,0.0,0.0,0.0,0.0,0.0,0.0,0.0,0.0,0.0,0.0,-1.266,-1.2975,-1.303,-1.3112,-1.3213,-1.3561,-1.3801,-1.3931,-1.4243,-1.44,-1.439,-1.4237,0.0,-1.358,-1.3685,0.0,0.0,0.0,0.0,0.0,0.0,0.0,0.0,0.0,0.0,0.0,0.0,0.0,0.0,0.0,0.0,0.0,0.0,0.0,0.0,0.0,0.0,-1.3728,-1.3617,-1.3928,-1.4222,-1.4123,-1.324,-1.2374,-1.2033,-1.1969,-1.2089,0.0,0.0,0.0,0.0,0.0,0.0,-1.6541,-1.7394,-1.7963,-1.7963,-1.8064,-1.8128,-1.8128,-1.8027,-1.766,-1.6945,-1.6707,-1.5992,-1.4638,-1.4072,0.0,0.0,0.0,0.0,0.0,0.0,0.0,0.0,0.0,0.0,0.0,0.0,0.0,0.0,0.0,0.0,0.0,0.0,0.0,0.0,0.0,0.0,0.0,0.0,0.0,0.0,0.0,0.0,0.0,-0.8711,-0.9092,-0.9399,-0.9944,-1.0391,0.0,0.0,0.0,0.0,0.0,0.0,0.0,0.0,0.0,-1.2798,-1.3194,-1.3433,-1.3626,-1.3864,-1.4093,-1.4304,-1.4488,-1.468,-1.49,-1.5093,-1.5175,-1.5175,-1.5175,-1.5087,-1.4877,-1.4411,-1.4337,-1.4434,0.0,0.0,0.0,0.0,-1.3803,-1.3717,-1.334,-1.3243,-1.3243,-1.3243,0.0,0.0,0.0,0.0,0.0,0.0,0.0,-1.4619,-1.4514,-1.4705,-1.4849,-1.463,-1.5056,-1.5524,-1.5524,-1.5276,-1.4735,-1.3653,-1.3451,-1.3571,-1.3965,-1.4368,0.0,0.0,0.0,-1.7037,-1.7211,-1.7944,-1.8458,-1.8458,-1.865,-1.8788,-1.8788,-1.8586,-1.8302,-1.7944,-1.7284,-1.6587,-1.5937,-1.486,-1.3978,0.0,0.0,0.0,0.0,0.0,0.0,0.0,0.0,0.0,0.0,0.0,0.0,0.0,0.0,0.0,0.0,0.0,0.0,0.0,0.0,0.0,0.0,0.0,0.0,0.0,0.0,0.0,0.0,-0.9465,-0.9811,-1.028,-1.0695,-1.1058,0.0,0.0,0.0,0.0,0.0,0.0,-1.3009,-1.3277,-1.3543,-1.3754,-1.4038,-1.424,-1.4341,-1.4763,-1.512,-1.5414,-1.5615,-1.5863,-1.6156,-1.6266,-1.6312,-1.6312,-1.6312,-1.6312,-1.6211,-1.5196,-1.4819,-1.483,-1.4998,-1.4984,-1.4865,-1.4864,-1.4824,-1.4661,-1.4189,-1.4023,-1.4023,-1.4023,-1.4134,-1.4289,-1.476,0.0,0.0,0.0,0.0,-1.5901,-1.5802,-1.5942,-1.6074,-1.5771,-1.6257,-1.678,-1.678,-1.7009,-1.6807,-1.5395,-1.512,-1.5221,-1.5515,-1.589,0.0,-1.6569,-1.7293,-1.7807,-1.7807,-1.8421,-1.8861,-1.8861,-1.9127,-1.9301,-1.9301,-1.9036,-1.8815,-1.8715,-1.7871,-1.7275,-1.7064,-1.5808,-1.4934,-1.4517,0.0,0.0,0.0,0.0,0.0,0.0,0.0,0.0,0.0,0.0,0.0,0.0,0.0,0.0,0.0,0.0,0.0,0.0,0.0,0.0,0.0,0.0,0.0,0.0,0.0,0.0,0.0,0.0,0.0,-1.0673,-1.0763,0.0,0.0,0.0,0.0,-1.3167,-1.3222,-1.3406,-1.38,-1.3837,-1.4212,-1.4983,-1.5029,-1.5221,-1.5597,-1.6019,-1.6239,-1.6266,-1.7009,-1.7385,-1.7413,-1.7816,-1.7999,-1.7999,-1.7999,-1.7999,-1.788,-1.6266,-1.5661,-1.5615,-1.5633,-1.5411,-1.5078,-1.5096,-1.4845,-1.451,-1.451,-1.4451,-1.4451,-1.4451,-1.4728,-1.507,-1.507,-1.5947,0.0,0.0,-1.6844,-1.7396,-1.6917,-1.7143,-1.7376,-1.7376,-1.7715,-1.8036,-1.8036,-1.8054,-1.7816,-1.6954,-1.6789,-1.6798,-1.6817,0.0,-1.7413,-1.7431,-1.8128,-1.865,-1.865,-1.9017,-1.9265,-1.9265,-1.9292,-1.9301,-1.9301,-1.9283,-1.9118,-1.8733,-1.865,-1.8275,-1.7495,-1.7027,-1.648,-1.5807,-1.4906,0.0,0.0,0.0,0.0,0.0,0.0,0.0,0.0,0.0,0.0,0.0,0.0,0.0,0.0,0.0,0.0,0.0,0.0,0.0,0.0,0.0,0.0,0.0,0.0,0.0,0.0,0.0,0.0,-1.148,-1.2007,0.0,-1.3039,-1.3296,-1.3506,-1.3662,-1.4157,-1.4515,-1.4662,-1.5166,-1.5588,-1.5872,-1.6376,-1.6707,-1.6853,-1.7275,-1.7486,-1.7486,-1.7761,-1.7899,-1.7908,-1.8054,-1.8128,-1.8128,-1.8128,-1.8128,-1.8082,-1.7495,-1.7101,-1.6817,-1.6538,-1.6391,-1.6239,-1.6233,-1.6178,-1.6056,-1.6056,-1.6056,-1.6056,-1.6056,-1.6112,-1.629,-1.655,-1.6964,-1.7323,-1.7465,-1.7682,-1.7905,-1.7697,-1.7798,-1.7899,-1.7899,-1.821,-1.8504,-1.8504,-1.8705,-1.8797,-1.8504,-1.8036,-1.7688,-1.7688,-1.8018,-1.8275,-1.8275,-1.8742,-1.9091,-1.9091,-1.9219,-1.9402,-1.9677,-1.9705,-1.9705,-1.9705,-1.9705,-1.9531,-1.9118,-1.8852,-1.8577,-1.8293,-1.7642,-1.7027,-1.6545,-1.5714,-1.5059,0.0,0.0,0.0,0.0,0.0,0.0,0.0,0.0,0.0,0.0,0.0,0.0,0.0,0.0,0.0,0.0,0.0,0.0,0.0,0.0,0.0,0.0,0.0,0.0,0.0,-1.1416,-1.1947,-1.2528,-1.2985,-1.343,-1.3882,-1.4139,-1.4405,-1.468,-1.5203,-1.5625,-1.589,-1.6422,-1.678,-1.6927,-1.744,-1.7706,-1.7706,-1.8119,-1.832,-1.832,-1.8458,-1.8522,-1.8522,-1.8522,-1.8522,-1.8531,-1.8669,-1.865,-1.8531,-1.8678,-1.8485,-1.8054,-1.7523,-1.7321,-1.7321,-1.7321,-1.7321,-1.7321,-1.7321,-1.7321,-1.7321,-1.7321,-1.7321,-1.7367,-1.7633,-1.7798,-1.7963,-1.8247,-1.8421,-1.8522,-1.8522,-1.8522,-1.8559,-1.8696,-1.8935,-1.9155,-1.9292,-1.9531,-1.9714,-1.9714,-1.9072,-1.8522,-1.8522,-1.8742,-1.8962,-1.91,-1.9347,-1.9558,-1.9696,-1.9714,-1.9815,-2.0099,-2.0127,-2.0127,-2.0127,-2.0127,-2.0008,-1.9732,-1.9338,-1.9127,-1.9127,-1.8339,-1.7779,-1.7585,-1.6784,-1.6095,-1.547,0.0,0.0,0.0,0.0,0.0,0.0,0.0,0.0,0.0,0.0,0.0,0.0,0.0,0.0,0.0,0.0,0.0,0.0,0.0,0.0,0.0,0.0,0.0,-1.1285,-1.1201,-1.1759,-1.3686,-1.346,-1.3661,-1.4994,-1.5086,-1.5423,-1.6227,-1.63,-1.6638,-1.7477,-1.7523,-1.7724,-1.8128,-1.8155,-1.8164,-1.8164,-1.855,-1.8751,-1.8751,-1.9155,-1.9338,-1.9338,-1.9338,-1.9338,-1.9366,-1.9769,-1.9714,-1.9366,-1.9778,-1.9714,-1.9265,-1.8467,-1.8164,-1.8164,-1.8164,-1.8164,-1.8164,-1.8164,-1.8164,-1.8164,-1.8164,-1.8164,-1.8164,-1.8174,-1.8449,-1.8751,-1.876,-1.9045,-1.9338,-1.9338,-1.9338,-1.9439,-1.9852,-1.9943,-2.0053,-2.0438,-2.0521,-2.0521,-2.0521,-1.9879,-1.9338,-1.9338,-1.9338,-1.9476,-1.9888,-1.9943,0.0,-2.0466,-2.0521,-2.0521,-2.0539,-2.0549,-2.0549,-2.0539,-2.0549,-2.0549,-2.0521,-2.0163,-1.9943,-1.9943,-1.9182,-1.881,-1.9002,-1.8229,-1.742,-1.6655,0.0,0.0,0.0,0.0,0.0,0.0,0.0,0.0,0.0,0.0,0.0,0.0,0.0,0.0,0.0,0.0,0.0,0.0,0.0,0.0,0.0,-1.1359,-1.1592,-1.1507,-1.2232,-1.3058,-1.3688,-1.4461,-1.5006,-1.5028,-1.5273,-1.5713,-1.6191,-1.6494,-1.7049,-1.7862,-1.8219,-1.843,-1.855,-1.8834,-1.8981,-1.8981,-1.9384,-1.9595,-1.9604,-1.9998,-2.0182,-2.0182,-2.0182,-2.0182,-2.0191,-2.031,-2.0292,-2.0191,-2.031,-2.0292,-2.0108,-1.9292,-1.8981,-1.8981,-1.8981,-1.8981,-1.8981,-1.8981,-1.8981,-1.8981,-1.8981,-1.8981,-1.9036,-1.9338,-1.9512,-1.9659,-1.9943,-2.0099,-2.0182,-2.0182,-2.0182,-2.0209,-2.0328,-2.0356,-2.0383,-2.0493,-2.0521,-2.0521,-2.0521,-2.0338,-2.0182,-2.0182,-2.0182,-2.0218,-2.0338,-2.0356,-2.0393,-2.0503,-2.0521,-2.0622,-2.0915,-2.1218,-2.1273,-2.097,-2.1227,-2.1145,-2.0558,-2.042,-2.0356,-2.0356,-1.987,-1.9311,-1.8801,-1.8434,-1.7993,0.0,0.0,0.0,0.0,0.0,0.0,0.0,0.0,0.0,0.0,0.0,0.0,0.0,0.0,0.0,0.0,0.0,0.0,0.0,0.0,0.0,0.0,-1.1544,-1.1699,-1.2428,-1.2989,-1.3609,-1.4393,-1.4904,-1.5163,-1.5191,-1.5735,-1.6249,-1.6689,-1.7232,-1.7899,-1.8537,-1.8834,-1.9045,-1.9219,-1.9448,-1.9641,-1.9806,-2.0053,-2.0173,-2.0182,-2.0411,-2.0521,-2.0521,-2.0521,-2.0521,-2.053,-2.0695,-2.0677,-2.053,-2.0695,-2.0668,-2.0466,0.0,0.0,0.0,0.0,-1.9806,-1.9806,-1.9806,-1.9806,-1.9806,-1.9806,-1.9806,-1.9861,-2.0099,-2.0173,-2.0228,-2.0457,-2.0521,-2.0521,-2.0521,-2.0521,-2.0558,-2.0723,-2.0769,-2.0814,-2.0989,-2.1163,-2.1273,-2.1273,-2.142,0.0,-2.1539,-2.097,-2.0576,-2.0741,-2.0769,-2.0888,-2.1227,-2.1273,-2.1429,-2.1832,-2.2098,-2.2144,-2.1906,-2.1942,0.0,0.0,0.0,-2.0695,-2.0521,-2.0375,0.0,0.0,0.0,-1.8805,-1.8156,-1.8569,0.0,0.0,-1.6576,-1.6357,0.0,0.0,0.0,0.0,0.0,0.0,0.0,0.0,0.0,0.0,0.0,0.0,0.0,0.0,0.0,0.0,-1.1655,-1.1615,-1.3677,-1.3553,-1.3806,-1.5359,-1.492,-1.4836,-1.5488,-1.6259,-1.6962,-1.7405,-1.8264,-1.8921,-1.9347,-1.9412,0.0,0.0,0.0,-2.0163,-2.0512,-2.0558,-2.0585,-2.0585,-2.0631,-2.0659,-2.0659,-2.0659,-2.0659,-2.0677,-2.1025,-2.0979,-2.0686,-2.1034,-2.097,-2.0649,-2.0558,-2.0521,-2.0521,-2.0521,-2.0521,-2.0521,-2.0521,0.0,0.0,-2.0521,-2.0521,-2.053,-2.0567,-2.0585,-2.0594,-2.064,-2.0686,-2.0723,-2.0723,-2.0759,-2.0879,-2.1236,-2.131,-2.142,-2.1796,-2.2144,-2.2401,-2.2401,-2.2694,-2.2857,-2.2857,-2.175,-2.0915,-2.1264,-2.131,-2.1575,-2.23,-2.2401,-2.2538,-2.282,-2.2902,0.0,-2.2866,-2.2648,-2.2447,-2.2401,-2.1676,-2.1071,-2.0668,-2.0772,-2.056,-2.0008,-2.0153,-1.9792,-1.8916,-1.8916,-1.8742,-1.8366,-1.8824,-1.8436,0.0,0.0,0.0,0.0,0.0,0.0,0.0,0.0,0.0,0.0,0.0,0.0,0.0,0.0,0.0,-1.1618,-1.2409,-1.3084,-1.3554,-1.3844,-1.4291,-1.4972,-1.5202,-1.5457,-1.5968,-1.6166,-1.6705,-1.7789,-1.8348,-1.8982,-1.9724,-2.0108,-2.0319,-2.0402,-2.0402,-2.0438,-2.0521,-2.0833,-2.0998,-2.0998,-2.1337,0.0,-2.1502,-2.1502,-2.1502,-2.1502,-2.1585,-2.1575,-2.1511,-2.1585,-2.1566,-2.1438,-2.0778,-2.0521,-2.0521,-2.0521,-2.0521,-2.0521,-2.0521,-2.0521,-2.0521,-2.0521,-2.0521,-2.0576,-2.0897,-2.0998,0.0,-2.1401,-2.1731,-2.197,-2.197,-2.2226,-2.2502,-2.2482,-2.2593,-2.2528,-2.261,-2.2683,-2.2738,-2.2738,-2.2802,-2.2857,-2.2857,-2.2601,-2.2418,-2.2584,-2.2593,-2.2657,-2.272,-2.2738,-2.2774,-2.2848,-2.314,-2.3204,-2.2884,-2.3171,-2.3171,-2.2756,-2.2364,-2.1915,-2.152,-2.1172,-2.0805,-2.0411,-2.0402,-2.0328,-2.0163,-2.0163,-2.0127,-2.0017,-1.8853,-1.8164,0.0,0.0,0.0,0.0,0.0,0.0,0.0,0.0,0.0,0.0,0.0,-1.1264,-1.1424,0.0,-1.1861,-1.2349,-1.2685,-1.3195,-1.4052,-1.4002,-1.4136,-1.4762,-1.4646,-1.4874,-1.5686,-1.6351,-1.718,-1.8198,-1.9064,-1.971,-2.0145,-2.0411,-2.0613,-2.0805,-2.0814,-2.0915,-2.1126,-2.1328,-2.142,-2.1429,-2.164,-2.1741,-2.1741,-2.1741,-2.1741,-2.1741,-2.1741,-2.1741,-2.175,-2.1951,-2.2153,-2.23,-2.1896,-2.1493,-2.1126,-2.1126,-2.1126,-2.1126,-2.1126,-2.1255,-2.142,-2.142,-2.1566,-2.1777,-2.197,-2.2034,-2.208,-2.2199,-2.2492,-2.2639,-2.2639,-2.2701,-2.2857,-2.2857,-2.2857,-2.2857,-2.2857,-2.3012,-2.3149,-2.3149,-2.3419,-2.3556,-2.3556,-2.3556,-2.3419,-2.3015,-2.2857,-2.293,-2.3121,-2.3149,-2.3327,-2.3529,-2.373,-2.3767,-2.3574,-2.3547,-2.3373,-2.2884,-2.2758,-2.2557,-2.2263,-2.1942,-2.153,-2.1135,-2.0924,-2.0714,-2.0521,-2.0521,-2.0521,-2.0493,-1.9696,-1.932,0.0,0.0,0.0,0.0,0.0,0.0,0.0,-1.0219,-1.0455,-1.1039,-1.1396,-1.1518,-1.1403,-1.1645,-1.2208,-1.3122,-1.294,-1.311,-1.4429,-1.4145,-1.4035,-1.4621,-1.4049,-1.4331,-1.5869,-1.6797,-1.7744,-1.8858,-1.9982,-2.0631,-2.0631,-2.0714,-2.0897,-2.1218,-2.1227,-2.1392,-2.1731,-2.1741,-2.1741,-2.1741,-2.1741,-2.1777,-2.1851,-2.1851,-2.1896,-2.197,-2.197,-2.197,-2.1997,-2.2318,-2.2648,-2.2857,-2.2857,-2.2455,-2.197,-2.197,-2.197,-2.197,-2.197,-2.2181,-2.2447,-2.2447,-2.2676,-2.2857,-2.2857,-2.2857,-2.2857,-2.2857,-2.2911,-2.2975,-2.2975,-2.3125,-2.3189,-2.3189,-2.3189,-2.3189,-2.3189,-2.3437,-2.3657,-2.3657,-2.3923,-2.4152,-2.4152,-2.4152,-2.3932,-2.329,-2.3189,-2.3299,-2.362,-2.3657,-2.3785,-2.4115,-2.4152,-2.4152,-2.4152,-2.3849,-2.3529,-2.3208,-2.3116,-2.2975,-2.2975,-2.2667,-2.2291,-2.1979,-2.164,-2.131,-2.0989,-2.0989,-2.0989,-2.0989,-2.0989,-2.0824,-0.9848,-0.9848,-0.9447,-0.8973,-0.886,-0.9017,0.0,-0.9751,-0.998,-1.052,-1.0732,-1.0866,-1.129,-1.1848,-1.2257,-1.2432,-1.3272,-1.3828,-1.3743,-1.4095,-1.4322,-1.4237,-1.4119,-1.514,-1.7979,-1.7695,-1.8103,-2.0168,-2.0729,-2.1044,-2.1044,-2.1392,-2.1621,-2.1667,-2.1667,-2.1686,-2.1741,-2.1741,-2.1741,-2.1741,-2.1741,-2.1924,-2.2263,-2.2263,-2.2465,-2.2729,-2.2729,-2.2729,-2.2729,-2.2774,-2.282,-2.2857,-2.2857,-2.2802,-2.2729,-2.2729,-2.2729,-2.2729,-2.2729,-2.2756,-2.2793,-2.2793,-2.282,-2.2857,-2.2857,-2.2857,-2.2857,-2.2857,-2.3208,-2.3474,-2.3474,-2.3749,-2.4015,-2.4015,-2.4015,-2.4015,-2.4015,-2.4051,-2.4088,-2.4088,-2.4115,-2.4152,-2.4152,-2.4152,-2.4125,-2.4033,-2.4015,-2.4033,-2.4079,-2.4088,-2.4106,-2.4143,-2.4152,-2.4152,-2.4152,-2.4106,-2.406,-2.4024,-2.3675,-2.3474,-2.3474,-2.3098,-2.2774,-2.2729,-2.2674,-2.2637,-2.2592,-2.2592,-2.2592,-2.2592,-2.2592,-2.1906,-0.9724,-0.9782,-0.9582,-0.9363,-0.9319,-0.9472,-1.006,-1.0194,-1.0361,-1.0942,-1.1202,-1.145,-1.1857,-1.2278,-1.2732,-1.326,-1.3614,-1.3901,-1.4122,-1.4222,-1.4446,-1.5,-1.4672,-1.5126,-1.7071,-1.8132,-1.9194,-2.0202,-2.1013,-2.1475,-2.1475,-2.164,-2.1741,-2.1741,-2.1741,-2.1741,-2.1741,-2.197,-2.208,-2.208,-2.2327,-2.2529,-2.2694,-2.2694,-2.2786,-2.2857,-2.2857,-2.2984,-2.3299,-2.3299,-2.3437,-2.3657,-2.3657,-2.3657,-2.3602,-2.3125,-2.2857,-2.2857,-2.2857,-2.3012,-2.3299,-2.3299,-2.3455,-2.3657,-2.3657,-2.3657,-2.3657,-2.3657,-2.3767,-2.3895,-2.3895,-2.4024,-2.4152,-2.4152,-2.4152,-2.4152,-2.4152,-2.4152,-2.4152,-2.4152,-2.4152,-2.4152,-2.4152,-2.4152,-2.4152,-2.4152,-2.4152,-2.4152,-2.4152,-2.4152,-2.4152,-2.4152,-2.4152,-2.4152,-2.4152,-2.4152,-2.4152,-2.4152,-2.3996,-2.3895,-2.3895,-2.351,-2.3299,-2.3299,-2.2975,-2.2857,-2.2857,-2.2857,-2.2857,-2.2857,-2.2857,-2.2501,-0.9704,-0.9856,-0.9989,-0.9966,-0.9927,-1.008,-1.0668,-1.0795,-1.0942,-1.1443,-1.1784,-1.2078,-1.2371,-1.2732,-1.3233,-1.3968,-1.3975,-1.4035,-1.4462,-1.4342,-1.4566,-1.5453,-1.5234,-1.5334,-1.6259,-1.8134,-1.9482,-1.9679,-2.0718,-2.1177,-2.0907,-2.1186,-2.123,-2.1057,-2.1247,-2.1301,-2.1133,-2.1692,-2.2021,-2.2021,-2.2617,-2.2921,-2.3021,-2.3235,-2.329,-2.329,-2.329,-2.3446,-2.3712,-2.3712,-2.3886,-2.4152,-2.4152,-2.4152,-2.4079,-2.3501,-2.329,-2.329,-2.329,-2.3474,-2.3712,-2.3712,-2.3904,-2.4152,-2.4152,-2.4152,-2.4152,-2.4152,-2.4152,-2.4152,-2.4152,-2.4152,-2.4152,-2.4152,-2.4152,-2.4152,-2.4152,-2.4152,-2.4152,-2.4152,-2.4152,-2.4152,-2.4152,-2.4152,-2.4152,-2.4152,-2.4152,-2.4152,-2.4152,-2.4152,-2.4152,-2.4152,-2.4152,-2.4152,-2.4152,-2.4152,-2.4152,-2.4152,-2.4152,-2.4152,-2.4152,-2.3868,-2.3712,-2.3712,-2.3428,-2.329,-2.329,-2.329,-2.329,-2.329,-2.329,-2.329,-0.9928,-1.0286,-1.0813,-1.0642,-1.0598,-1.0688,-1.1269,-1.1403,-1.1483,-1.179,-1.2084,-1.2378,-1.2755,-1.3213,-1.3721,-1.4035,-1.4315,-1.4496,-1.4516,-1.4509,-1.4616,-1.5006,-1.5807,-1.6342,-1.6339,-1.7557,-1.8497,-1.8856,-1.9795,-1.9886,-1.8972,-1.9795,-2.0046,-1.928,-2.022,-2.0395,-1.9797,-2.0787,-2.1371,-2.1371,-2.2366,-2.3058,-2.3538,-2.3932,-2.4115,-2.4115,-2.4115,-2.4125,-2.4134,-2.4134,-2.4143,-2.4152,-2.4152,-2.4152,-2.4251,-2.4125,-2.4115,-2.4115,-2.4115,-2.4125,-2.4134,-2.4134,-2.4143,-2.4152,-2.4152,-2.4152,-2.4152,-2.4152,-2.4152,-2.4152,-2.4152,-2.4152,-2.4152,-2.4152,-2.4152,-2.4152,-2.4152,-2.4152,-2.4152,-2.4152,-2.4152,-2.4152,-2.4152,-2.4152,-2.4152,-2.4152,-2.4152,-2.4152,-2.4152,-2.4152,-2.4152,-2.4152,-2.4152,-2.4152,-2.4152,-2.4152,-2.4152,-2.4152,-2.4152,-2.4152,-2.4152,-2.4143,-2.4134,-2.4134,-2.4125,-2.4115,-2.4115,-2.4115,-2.4115,-2.4115,-2.4115,-2.4115,-1.0873,-1.0897,-1.1012,-1.1128,-1.1136,-1.1236,-1.163,-1.1724,-1.1804,-1.2098,-1.2836,-1.3443,-1.3155,-1.3839,-1.451,-1.4643,-1.4422,-1.4369,-1.4763,-1.4482,-1.4416,-1.4903,-1.5308,-1.5581,-1.5912,-1.7554,-1.8488,-1.8187,-1.883,-1.9261,-1.9028,-1.941,-1.9571,-1.9549,-1.9846,-1.9902,-1.9731,-2.0353,-2.0663,-2.0663,-2.1321,-2.2011,-2.2845,-2.2976,-2.3038,-2.3138,-2.3845,-2.4152,-2.4152,-2.4152,-2.4152,-2.4152,-2.4152,-2.4152,-2.4152,-2.4152,-2.4152,-2.4152,-2.4152,-2.4152,-2.4152,-2.4152,-2.4152,-2.4152,-2.4152,-2.4152,-2.4152,-2.4152,-2.4152,-2.4152,-2.4152,-2.4152,-2.4152,-2.4152,-2.4152,-2.4152,-2.4152,-2.4152,-2.4152,-2.4152,-2.4152,-2.4152,-2.4152,-2.4152,-2.4152,-2.4152,-2.4152,-2.4152,-2.4152,-2.4152,-2.4152,-2.4152,-2.4152,-2.4152,-2.4152,-2.4152,-2.4152,-2.4152,-2.4152,-2.4152,-2.4152,-2.4152,-2.4152,-2.4152,-2.4152,-2.4152,-2.4152,-2.4152,-2.4152,-2.4152,-2.4152,-2.4152,-1.1276,-1.1289,-1.1349,-1.1536,-1.1583,-1.1663,-1.1957,-1.2024,-1.2078,-1.2265,-1.3372,-1.4117,-1.371,-1.4481,-1.5282,-1.5877,-1.5147,-1.4787,-1.5396,-1.496,-1.4679,-1.5127,-1.503,-1.5237,-1.5919,-1.7008,-1.7586,-1.7149,-1.7923,-1.8331,-1.8155,-1.8571,-1.8783,-1.8828,-1.9132,-1.9193,-1.8907,-1.962,-2.0124,-2.0535,-2.118,-2.181,-2.2526,-2.2526,-2.2526,-2.2526,-2.2828,-2.3029,-2.3029,-2.3438,-2.3546,-2.3646,-2.4044,-2.4152,-2.4152,-2.4152,-2.4152,-2.4152,-2.4152,-2.4152,-2.4152,-2.4152,-2.4152,-2.4152,-2.4152,-2.4152,-2.4152,-2.4152,-2.4152,-2.4152,-2.4152,-2.4152,-2.4152,-2.4152,-2.4152,-2.4152,-2.4152,-2.4152,-2.4152,-2.4152,-2.4152,-2.4152,-2.4152,-2.4152,-2.4152,-2.4152,-2.428,-2.4317,-2.417,-2.4152,-2.4152,-2.4152,-2.4152,-2.4152,-2.4152,-2.4152,-2.4152,-2.4152,-2.4152,-2.4152,-2.4152,-2.4152,-2.4152,-2.4152,-2.4152,-2.4152,-2.4152,-2.4152,-2.4152,-2.4152,-2.4152,-2.4152,-1.1202,-1.1456,-1.187,-1.1891,-1.1891,-1.1964,-1.2238,-1.2305,-1.2305,-1.2305,-1.3521,-1.4491,-1.4506,-1.5028,-1.5913,-1.7353,-1.6314,-1.5529,-1.6221,-1.5782,-1.5326,-1.5362,-1.513,-1.5304,-1.6166,-1.5999,-1.5838,-1.5852,-1.6971,-1.7348,-1.6417,-1.7457,-1.7867,-1.7264,-1.8076,-1.8217,-1.7582,-1.861,-1.9642,-2.0783,-2.181,-2.2316,-2.2316,-2.2316,-2.2316,-2.2325,-2.1293,-2.0885,-2.0987,-2.2013,-2.2426,-2.2627,-2.3646,-2.4152,-2.4152,-2.4152,-2.4152,-2.4152,-2.4152,-2.4152,-2.4152,-2.4152,-2.4152,-2.4152,-2.4152,-2.4152,-2.4152,-2.4152,-2.4152,-2.4152,-2.4152,-2.4152,-2.4152,-2.4152,-2.4152,-2.4152,-2.4152,-2.4152,-2.4152,-2.4152,-2.4152,-2.426,-2.4279,-2.418,-2.4189,-2.4207,-2.4446,-2.4555,-2.4135,-2.4198,-2.4117,-2.4108,-2.4108,-2.4108,-2.4108,-2.4108,-2.4198,-2.418,-2.4189,-2.417,-2.4152,-2.4152,-2.4152,-2.4152,-2.4152,-2.4152,-2.4152,-2.4152,-2.4152,-2.4152,-2.4152,-2.4161,-1.1891,-1.1917,-1.1917,-1.2138,-1.2191,-1.2211,-1.2285,-1.2305,-1.2305,-1.2305,-1.371,-1.4903,-1.4539,-1.5313,-1.5978,-1.6227,-1.5241,-1.4542,-1.4918,-1.4651,-1.4586,-1.5087,-1.501,-1.5217,-1.5879,-1.5872,-1.5919,-1.6146,-1.6517,-1.6762,-1.7002,-1.7299,-1.7476,-1.7462,-1.7782,-1.7816,-1.7582,-1.7891,-1.8506,-1.9642,-1.9124,-1.9228,-2.0048,-2.0048,-2.0048,-2.0048,-2.0672,-2.0885,-2.0885,-2.1191,-2.181,-2.2526,-2.2828,-2.3438,-2.4152,-2.4152,-2.4152,-2.4053,-2.3238,-2.3538,-2.4053,-2.3238,-2.3546,-2.4152,-2.4152,-2.4152,-2.4152,-2.4152,-2.4152,-2.4152,-2.4152,-2.4152,-2.4152,-2.4152,-2.4152,-2.4152,-2.4152,-2.4152,-2.4152,-2.4152,-2.4152,-2.4253,-2.4565,-2.3892,-2.346,-2.3739,-2.3119,-2.2728,-2.3203,-2.3608,-2.3461,-2.2501,-2.2404,-2.2404,-2.2404,-2.3252,-2.3661,-2.3279,-2.4104,-2.4482,-2.4161,-2.4152,-2.4152,-2.4152,-2.4152,-2.4152,-2.4152,-2.4152,-2.4152,-2.4152,-2.4152,-2.4317,-1.2024,-1.2084,-1.2098,-1.2265,-1.2305,-1.2305,-1.2305,-1.2592,-1.2813,-1.2813,-1.4375,-1.5642,-1.5388,-1.5771,-1.6285,-1.6648,-1.5712,-1.4914,-1.5168,-1.4963,-1.4867,-1.4999,-1.4963,-1.519,-1.5772,-1.5945,-1.6146,-1.644,-1.6466,-1.666,-1.7121,-1.7268,-1.7415,-1.7582,-1.7582,-1.7582,-1.7582,-1.7582,-1.7891,-1.8513,-1.8408,-1.861,-1.9228,-1.9228,-1.9228,-1.9228,-1.9339,-1.9435,-1.9443,-1.9952,-2.0467,-2.1183,-2.2114,-2.2937,-2.3538,-2.4053,-2.4152,-2.3954,-2.2316,-2.2526,-2.3238,-2.2114,-2.2518,-2.3438,-2.3438,-2.3845,-2.4152,-2.4152,-2.4152,-2.4152,-2.4152,-2.3845,-2.3538,-2.4053,-2.3438,-2.292,-2.3338,-2.3438,-2.37,-2.429,-2.4427,-2.4556,-2.4968,-2.4085,-2.3304,-2.3614,-2.2699,-2.2077,-2.1993,-2.2437,-2.2568,-2.1818,-2.1818,-2.1818,-2.1818,-2.2461,-2.2699,-2.2501,-2.3652,-2.4186,-2.3963,-2.4472,-2.4684,-2.4684,-2.4684,-2.4684,-2.4684,-2.4684,-2.4684,-2.4684,-2.4684,-2.4812,-1.1857,-1.2084,-1.2305,-1.2305,-1.2305,-1.2305,-1.2445,-1.3025,-1.352,-1.3548,-1.4993,-1.6254,-1.6306,-1.617,-1.6434,-1.7523,-1.655,-1.5675,-1.5711,-1.5633,-1.5432,-1.5013,-1.4963,-1.519,-1.5772,-1.6099,-1.6393,-1.6687,-1.674,-1.6894,-1.7194,-1.7442,-1.7582,-1.7582,-1.7582,-1.7582,-1.7582,-1.7582,-1.7582,-1.7582,-1.8506,-1.902,-1.902,-1.902,-1.902,-1.8923,-1.7989,-1.7582,-1.7687,-1.861,-1.902,-1.9435,-2.1285,-2.2114,-2.2426,-2.3438,-2.3746,-2.3438,-2.1395,-2.1293,-2.1912,-2.0987,-2.1395,-2.2325,-2.2325,-2.3029,-2.3954,-2.3954,-2.4044,-2.4152,-2.4152,-2.3338,-2.2728,-2.3746,-2.2417,-2.1191,-2.2114,-2.246,-2.3028,-2.4359,-2.4756,-2.4884,-2.4954,-2.4149,-2.3406,-2.3252,-2.2533,-2.162,-2.063,-2.1156,-2.1635,-2.1527,-2.1527,-2.1527,-2.1744,-2.1852,-2.2045,-2.2105,-2.3283,-2.3911,-2.3859,-2.4832,-2.5372,-2.5372,-2.5372,-2.5372,-2.5372,-2.5372,-2.5372,-2.5372,-2.5372,-2.5399,-1.1804,-1.2084,-1.2305,-1.2305,-1.2305,-1.2445,-1.3171,-1.339,-1.3598,-1.3894,-1.4731,-1.5497,-1.5876,-1.5753,-1.5864,-1.6363,-1.561,-1.486,-1.446,-1.4409,-1.4527,-1.4993,-1.4963,-1.519,-1.5772,-1.6099,-1.6393,-1.6687,-1.6934,-1.7201,-1.7495,-1.7555,-1.7582,-1.7582,-1.7582,-1.7582,-1.7582,-1.7582,-1.7582,-1.7582,-1.7793,-1.7891,-1.7891,-1.7891,-1.7891,-1.7891,-1.7687,-1.7582,-1.7582,-1.7786,-1.8408,-1.9228,-1.9642,-2.0364,-2.1191,-2.1395,-2.1497,-2.1293,-1.9945,-1.9642,-1.9746,-1.9539,-2.0261,-2.1191,-2.1191,-2.1912,-2.2828,-2.2828,-2.3438,-2.4152,-2.4152,-2.3338,-2.2526,-2.2728,-2.1802,-2.0987,-2.1089,-2.2145,-2.3195,-2.3687,-2.462,-2.4745,-2.3161,-2.2784,-2.234,-2.1752,-2.0601,-1.9855,-1.9625,-2.0594,-2.0892,-1.9887,-1.9773,-2.0223,-2.1232,-2.224,-2.3116,-2.3786,-2.4969,-2.5376,-2.5059,-2.5267,-2.5372,-2.5372,-2.5372,-2.5372,-2.5372,-2.5372,-2.5372,-2.5372,-2.5372,-2.5546,-1.179,-1.2084,-1.2305,-1.2305,-1.2305,-1.2478,-1.3042,-1.3499,-1.3894,-1.4234,-1.4906,-1.5499,-1.5686,-1.5644,-1.5656,-1.5815,-1.5362,-1.4846,-1.451,-1.4368,-1.4476,-1.491,-1.4963,-1.519,-1.5772,-1.6233,-1.6553,-1.6693,-1.7121,-1.7435,-1.7575,-1.7582,-1.7582,-1.7582,-1.7582,-1.7582,-1.7582,-1.7582,-1.7582,-1.7582,-1.7582,-1.7582,-1.7582,-1.7582,-1.7582,-1.7582,-1.7582,-1.7582,-1.7582,-1.7582,-1.7891,-1.8401,-1.902,-1.9539,-2.0055,-2.068,-2.0885,-2.0783,-1.9642,-1.9228,-1.9124,-1.8506,-1.9131,-2.0055,-2.0055,-2.0783,-2.1802,-2.2325,-2.2929,-2.3338,-2.3338,-2.2526,-2.17,-2.17,-2.0917,-2.0323,-2.0323,-2.0891,-2.1873,-2.2773,-2.3493,-2.3611,-2.2878,-2.2162,-2.1662,-2.1266,-2.0162,-1.9366,-1.9366,-1.9938,-2.0046,-1.9482,-1.9366,-1.9597,-2.0162,-2.0838,-2.1556,-2.2617,-2.3718,-2.4637,-2.5021,-2.5675,-2.6004,-2.6004,-2.6004,-2.6004,-2.6004,-2.6004,-2.6004,-2.6004,-2.6004,-2.6105,-1.1617,-1.1891,-1.2118,-1.2118,-1.2118,-1.2267,-1.2733,-1.337,-1.4022,-1.4385,-1.5103,-1.556,-1.556,-1.5544,-1.5558,-1.5587,-1.5534,-1.5286,-1.486,-1.4755,-1.473,-1.5006,-1.4963,-1.519,-1.5772,-1.6359,-1.6707,-1.6707,-1.7248,-1.7582,-1.7582,-1.7582,-1.7582,-1.7582,-1.7582,-1.7582,-1.7582,-1.7582,-1.7582,-1.7582,-1.7582,-1.7582,-1.7582,-1.7582,-1.7582,-1.7582,-1.7582,-1.7582,-1.7582,-1.7582,-1.7582,-1.7687,-1.8506,-1.8819,-1.8923,-1.9849,-2.0158,-2.0055,-1.9124,-1.8819,-1.8715,-1.7891,-1.8199,-1.8819,-1.8819,-1.9642,-2.0672,-2.1599,-2.2013,-2.2114,-2.2114,-2.1395,-2.049,-2.0362,-1.9851,-1.9434,-1.9786,-2.012,-2.0604,-2.193,-2.2332,-2.2418,-2.2251,-2.1631,-2.106,-2.0838,-2.0046,-1.9366,-1.9366,-1.9366,-1.9366,-1.9366,-1.9366,-1.9482,-1.9707,-1.9822,-2.0385,-2.1851,-2.2862,-2.388,-2.5119,-2.6136,-2.6591,-2.6591,-2.6591,-2.6591,-2.6591,-2.6591,-2.6591,-2.6591,-2.6591,-2.6591,-1.1062,-1.1283,-1.1503,-1.1503,-1.1503,-1.1703,-1.2419,-1.3155,-1.3727,-1.406,-1.4693,-1.5157,-1.5157,-1.5149,-1.523,-1.553,-1.5867,-1.5794,-1.4925,-1.5061,-1.5248,-1.5075,-1.4963,-1.519,-1.5772,-1.6359,-1.6707,-1.6707,-1.7248,-1.7582,-1.7582,-1.7582,-1.7582,-1.7582,-1.7582,-1.7582,-1.7582,-1.7582,-1.7582,-1.7582,-1.7582,-1.7582,-1.7582,-1.7582,-1.7582,-1.7582,-1.7582,-1.7582,-1.7582,-1.7582,-1.7582,-1.7582,-1.7687,-1.7793,-1.7786,-1.7891,-1.7891,-1.7891,-1.7786,-1.7793,-1.7681,-1.7582,-1.7687,-1.7793,-1.7793,-1.8513,-1.9332,-1.9435,-2.0261,-2.1089,-2.1089,-2.0261,-1.9204,-1.8459,-1.8239,-1.8612,-2.0258,-2.0625,-2.0735,-2.1178,-2.2251,-2.2266,-2.0155,-2.05,-2.0838,-1.9707,-1.9482,-1.9366,-1.9366,-1.9366,-1.9366,-1.9366,-1.9366,-1.9815,-2.0945,-2.106,-2.1964,-2.4326,-2.4556,-2.5229,-2.6364,-2.6591,-2.6591,-2.6591,-2.6591,-2.6591,-2.6591,-2.6591,-2.6591,-2.6591,-2.6591,-2.6591,-1.0995,-1.1209,-1.1423,-1.1423,-1.1423,-1.1601,-1.233,-1.2695,-1.304,-1.3538,-1.3829,-1.4011,-1.4011,-1.4414,-1.4851,-1.5236,-1.5844,-1.6129,-1.6041,-1.6116,-1.6049,-1.5846,-1.5747,-1.5812,-1.5772,-1.6359,-1.6854,-1.7208,-1.7448,-1.7582,-1.7582,-1.7582,-1.7582,-1.7582,-1.7582,-1.7582,-1.7582,-1.7582,-1.7582,-1.7582,-1.7582,-1.7582,-1.7582,-1.7582,-1.7582,-1.7582,-1.7582,-1.7582,-1.7582,-1.7582,-1.7582,-1.7582,-1.7582,-1.7582,-1.7582,-1.7582,-1.7582,-1.7582,-1.7582,-1.7582,-1.7582,-1.7582,-1.7582,-1.7582,-1.7582,-1.7891,-1.8408,-1.902,-1.9539,-1.9849,-1.9849,-1.9172,-1.8417,-1.8124,-1.8317,-1.8749,-1.9422,-1.9728,-2.0016,-2.0134,-2.05,-2.05,-1.9597,-1.9822,-1.9931,-1.9482,-1.9366,-1.9366,-1.9366,-1.9366,-1.9366,-1.9366,-1.9366,-1.9591,-2.0046,-2.0162,-2.0838,-2.2531,-2.3311,-2.4214,-2.5459,-2.6245,-2.6591,-2.6591,-2.6591,-2.6591,-2.6591,-2.6591,-2.6591,-2.6591,-2.6591,-2.6591,-1.0927,-1.1015,-1.1169,-1.1169,-1.1102,-1.1125,-1.1626,-1.1927,-1.226,-1.2668,-1.3068,-1.3296,-1.3296,-1.3864,-1.4497,-1.5019,-1.5771,-1.6353,-1.674,-1.6893,-1.6841,-1.6703,-1.6698,-1.6601,-1.6236,-1.6555,-1.6947,-1.7535,-1.7582,-1.7582,-1.7582,-1.7582,-1.7582,-1.7582,-1.7582,-1.7582,-1.7582,-1.7582,-1.7582,-1.7582,-1.7582,-1.7582,-1.7582,-1.7582,-1.7582,-1.7582,-1.7582,-1.7582,-1.7582,-1.7582,-1.7582,-1.7582,-1.7582,-1.7582,-1.7582,-1.7582,-1.7582,-1.7582,-1.7582,-1.7582,-1.7582,-1.7582,-1.7582,-1.7582,-1.7582,-1.7582,-1.7786,-1.8506,-1.8715,-1.8736,-1.8829,-1.8404,-1.809,-1.8263,-1.8624,-1.8951,-1.9038,-1.9219,-1.9366,-1.9366,-1.9366,-1.9366,-1.9366,-1.9366,-1.9366,-1.9366,-1.9366,-1.9366,-1.9366,-1.9366,-1.9366,-1.9366,-1.9366,-1.9366,-1.9366,-1.9366,-1.9931,-2.1174,-2.2305,-2.3544,-2.4778,-2.5907,-2.6591,-2.6591,-2.6591,-2.6591,-2.6591,-2.6591,-2.6591,-2.6591,-2.6591,-2.6591,-1.0751,-1.0631,-1.0631,-1.0631,-1.0347,-1.0127,-1.012,-1.0821,-1.1495,-1.1495,-1.2444,-1.3296,-1.3296,-1.3616,-1.4157,-1.4964,-1.579,-1.6399,-1.6747,-1.7141,-1.7468,-1.7628,-1.7644,-1.7559,-1.7353,-1.694,-1.6947,-1.7535,-1.7582,-1.7582,-1.7582,-1.7582,-1.7582,-1.7582,-1.7582,-1.7582,-1.7582,-1.7582,-1.7582,-1.7582,-1.7582,-1.7582,-1.7582,-1.7582,-1.7582,-1.7582,-1.7582,-1.7582,-1.7582,-1.7582,-1.7582,-1.7582,-1.7582,-1.7582,-1.7582,-1.7582,-1.7582,-1.7582,-1.7582,-1.7582,-1.7582,-1.7582,-1.7582,-1.7582,-1.7582,-1.7582,-1.7582,-1.7582,-1.7582,-1.7655,-1.7963,-1.8043,-1.819,-1.8778,-1.8918,-1.9005,-1.9299,-1.9366,-1.9366,-1.9366,-1.9366,-1.9366,-1.9366,-1.9366,-1.9366,-1.9366,-1.9366,-1.9366,-1.9366,-1.9366,-1.9366,-1.9366,-1.9366,-1.9366,-1.9366,-1.9366,-1.9931,-2.1174,-2.2305,-2.3544,-2.4778,-2.5907,-2.6591,-2.6591,-2.6591,-2.6591,-2.6591,-2.6591,-2.6591,-2.6591,-2.6591,-2.6591,-1.0845,-1.0705,-1.0514,-1.0307,-1.0187,-1.0127,-1.0115,-1.0331,-1.0568,-1.0698,-1.1402,-1.1947,-1.1947,-1.2806,-1.3745,-1.457,-1.5835,-1.6756,-1.6773,-1.7354,-1.7573,-1.687,-1.6552,-1.6518,-1.6856,-1.6792,-1.6947,-1.7535,-1.7582,-1.7582,-1.7582,-1.7582,-1.7582,-1.7582,-1.7582,-1.7582,-1.7582,-1.7582,-1.7582,-1.7582,-1.7582,-1.7582,-1.7582,-1.7582,-1.7582,-1.7582,-1.7582,-1.7582,-1.7582,-1.7582,-1.7582,-1.7582,-1.7582,-1.7582,-1.7582,-1.7582,-1.7582,-1.7582,-1.7582,-1.7582,-1.7582,-1.7582,-1.7582,-1.7582,-1.7582,-1.7582,-1.7582,-1.7582,-1.7736,-1.7923,-1.8023,-1.8343,-1.8691,-1.8878,-1.9078,-1.9252,-1.9345,-1.9366,-1.9366,-1.9366,-1.9366,-1.9366,-1.9366,-1.9366,-1.9366,-1.9366,-1.9366,-1.9366,-1.9366,-1.9366,-1.9366,-1.9366,-1.9366,-1.9366,-1.9366,-1.9366,-1.9597,-1.9938,-2.1851,-2.3199,-2.3536,-2.5569,-2.6591,-2.6591,-2.6591,-2.6591,-2.6591,-2.6591,-2.6591,-2.6591,-2.6591,-2.6591,-1.1032,-1.0966,-1.0781,-1.0583,-1.0331,-1.0084,-1.0082,-1.0009,-0.9962,-1.0058,-1.0584,-1.0997,-1.1131,-1.2139,-1.3309,-1.4201,-1.5631,-1.6729,-1.6773,-1.7337,-1.7548,-1.6855,-1.6557,-1.6628,-1.7244,-1.69,-1.6947,-1.7535,-1.7582,-1.7582,-1.7582,-1.7582,-1.7582,-1.7582,-1.7582,-1.7582,-1.7582,-1.7582,-1.7582,-1.7582,-1.7582,-1.7582,-1.7582,-1.7582,-1.7582,-1.7582,-1.7582,-1.7582,0.0,-1.7582,-1.7582,-1.7582,-1.7582,-1.7582,-1.7582,-1.7582,-1.7582,-1.7582,-1.7582,-1.7582,-1.7582,-1.7582,-1.7582,-1.7582,-1.7483,-1.7483,-1.7609,-1.7722,-1.7896,-1.8096,-1.8323,-1.8651,-1.8951,-1.9065,-1.9232,-1.9366,-1.9366,-1.9366,-1.9366,-1.9366,-1.9366,-1.9366,-1.9366,-1.9366,-1.9366,-1.9366,-1.9366,-1.9366,-1.9366,-1.9366,-1.9366,-1.9366,-1.9366,-1.9366,-1.9366,-1.9366,-1.9366,-1.9366,-2.1623,-2.2974,-2.2974,-2.5348,-2.6591,-2.6591,-2.6591,-2.6591,-2.6591,-2.6591,-2.6591,-2.6591,-2.6591,-2.6591,0.0,-1.1319,-1.1262,-1.1238,-1.0657,-1.0151,-1.002,-0.9795,0.0,-0.9598,-1.0022,-1.0486,-1.0816,-1.1729,-1.2857,-1.3941,-1.5287,-1.6305,-1.6672,-1.6977,-1.7301,-1.7518,-1.7303,-1.7421,-1.8028,-1.732,-1.6974,-1.7542,-1.7582,-1.7582,-1.7582,-1.7582,-1.7582,-1.7582,-1.7582,-1.7582,-1.7582,-1.7582,-1.7582,-1.7582,-1.7582,-1.7582,-1.7582,-1.7582,-1.7582,-1.7582,-1.7582,-1.7582,-1.7582,-1.7582,-1.7582,-1.7582,-1.7582,-1.7582,-1.7582,-1.7582,-1.7582,-1.7582,-1.7582,-1.7582,-1.7582,-1.7582,-1.7582,-1.7477,-1.7279,-1.7397,-1.7675,-1.7963,-1.8076,-1.823,-1.8778,-1.8938,-1.9025,-1.9299,-1.9366,-1.9366,-1.9366,-1.9366,-1.9366,-1.9366,-1.9366,-1.9366,-1.9366,-1.9366,-1.9366,-1.9366,-1.9366,-1.9366,-1.9366,-1.9366,-1.9366,-1.9366,-1.9366,-1.9366,-1.9366,-1.9366,-1.9366,-1.9366,-2.1623,-2.2974,-2.2974,-2.5348,-2.6591,-2.6591,-2.6591,-2.6591,-2.6591,-2.6591,-2.6591,-2.6591,-2.6591,-2.6591,-1.1456,0.0,-1.1151,-1.0557,-1.053,-1.0455,0.0,-0.9549,-0.9825,-0.9398,-0.9902,-1.0479,-1.0553,-1.1628,-1.2813,-1.3902,-1.484,-1.5512,-1.5731,-1.5674,-1.5588,-1.563,-1.6133,-1.6696,-1.7066,-1.711,-1.7194,-1.7555,-1.7582,-1.7582,-1.7582,-1.7582,-1.7582,-1.7582,-1.7582,-1.7582,-1.7582,-1.7582,-1.7582,-1.7582,-1.7582,-1.7582,-1.7582,-1.7582,-1.7582,-1.7582,-1.7582,-1.7582,-1.7582,-1.7582,-1.7582,-1.7582,-1.7582,-1.7582,-1.7582,-1.7582,-1.7582,-1.7582,-1.7582,-1.7582,-1.7582,-1.7582,-1.7259,-1.6948,-1.7173,-1.7543,-1.7956,-1.8023,-1.837,-1.8751,-1.8885,-1.9092,-1.9279,-1.9352,-1.9366,-1.9366,-1.9366,-1.9366,-1.9366,-1.9366,-1.9366,-1.9366,-1.9366,-1.9366,-1.9366,-1.9366,-1.9366,-1.9366,-1.9366,-1.9366,-1.9366,-1.9366,-1.9366,-1.9366,-1.9366,-1.9366,-1.9366,-1.9366,-2.1623,-2.2974,-2.2974,-2.5348,-2.6591,-2.6591,-2.6591,-2.6591,-2.6591,-2.6591,-2.6591,-2.6591,-2.6591,-2.6591,-1.1388,-1.1586,-1.155,-1.114,-1.0813,-1.0491,-0.9894,-0.971,-0.966,-0.9469,-0.9788,-1.0212,-1.0499,-1.1428,-1.2542,-1.3648,-1.4665,-1.5372,-1.5629,-1.5226,-1.5017,-1.515,-1.5818,-1.6386,-1.6673,-1.6974,-1.7268,-1.7562,-1.7582,-1.7582,-1.7582,-1.7582,-1.7582,-1.7582,-1.7582,-1.7582,-1.7582,-1.7582,-1.7582,-1.7582,-1.7582,-1.7582,-1.7582,-1.7582,-1.7582,-1.7582,-1.7582,-1.7582,-1.7582,-1.7582,-1.7582,-1.7582,-1.7582,-1.7582,-1.7582,-1.7582,-1.7582,-1.7582,-1.7483,-1.7265,-1.716,-1.7054,-1.6842,-1.6755,-1.6902,-1.736,-1.7812,-1.8024,-1.8341,-1.8717,-1.9092,-1.9245,-1.9366,-1.9366,-1.9366,-1.9366,-1.9366,-1.9366,-1.9366,-1.9366,-1.9366,-1.9366,-1.9366,-1.9366,-1.9366,-1.9366,-1.9366,-1.9366,-1.9366,-1.9366,-1.9366,-1.9366,-1.9366,-1.9366,-1.9366,-1.9366,-1.9366,-1.9366,-2.1623,-2.2749,-2.2191,-2.5008,-2.6591,-2.6591,-2.6026,-2.6026,-2.6591,-2.6591,-2.6591,-2.6591,-2.6591,-2.6591,-1.1095,-1.1574,-1.1918,-1.1868,-1.1091,-1.0458,-1.0601,-0.9969,-0.9442,-0.9686,-0.982,-1.0033,-1.0598,-1.1393,-1.2383,-1.3331,-1.4562,-1.5446,-1.5568,-1.5293,-1.507,-1.5357,-1.5952,-1.6433,-1.668,-1.7014,-1.7321,-1.7562,-1.7582,-1.7582,-1.7582,-1.7582,-1.7582,-1.7582,-1.7582,-1.7582,-1.7582,-1.7582,-1.7582,-1.7582,-1.7582,-1.7582,-1.7582,-1.7582,-1.7582,-1.7582,-1.7582,-1.7582,-1.7582,-1.7582,-1.7582,-1.7582,-1.7582,-1.7582,-1.7582,-1.7582,-1.7582,-1.7582,-1.7279,-1.6955,-1.663,-1.6424,-1.6449,-1.6631,-1.6652,-1.706,-1.7546,-1.7875,-1.8181,-1.8568,-1.9176,-1.9366,-1.9366,-1.9366,-1.9366,-1.9366,-1.9366,-1.9366,-1.9366,-1.9366,-1.9366,-1.9366,-1.9366,-1.9366,-1.9366,-1.9366,-1.9366,-1.9366,-1.9366,-1.9366,-1.9366,-1.9366,-1.9366,-1.9366,-1.9366,-1.9366,-1.9366,-1.9366,-2.1517,-2.2305,-2.1509,-2.4556,-2.6364,-2.6364,-2.5459,-2.5569,-2.6591,-2.6591,-2.6591,-2.6591,-2.6591,-2.6591,-1.023,-1.0711,-1.1141,-1.0779,-1.0517,-1.0252,-0.9596,-0.9925,-1.0257,-1.0047,-1.0448,-1.0822,-1.0909,-1.1639,-1.2501,-1.3368,-1.4322,-1.4849,-1.4681,-1.4858,-1.507,-1.5357,-1.6132,-1.6653,-1.67,-1.7194,-1.7535,-1.7582,-1.7582,-1.7582,-1.7582,-1.7582,-1.7582,-1.7582,-1.7582,-1.7582,-1.7582,-1.7582,-1.7582,-1.7582,-1.7582,-1.7582,-1.7582,-1.7582,-1.7582,-1.7582,-1.7582,-1.7582,-1.7582,-1.7582,-1.7582,-1.7582,-1.7582,-1.7582,-1.7582,-1.7582,-1.7582,-1.7582,-1.7279,-1.6855,-1.6424,-1.663,-1.6466,-1.6447,-1.6599,-1.6975,-1.7261,-1.7597,-1.802,-1.848,-1.8868,-1.8997,-1.9004,-1.9366,-1.9366,-1.9366,-1.9366,-1.9366,-1.9366,-1.9366,-1.9366,-1.9366,-1.9366,-1.9366,-1.9366,-1.9366,-1.9366,-1.9366,-1.9366,-1.9366,-1.9366,-1.9366,-1.9366,-1.9366,-1.9366,-1.9366,-1.9366,-1.9366,-2.0723,-2.1851,-2.2644,-2.4214,-2.5119,-2.5119,-2.5907,-2.6364,-2.6591,-2.6591,-2.6591,-2.6591,-2.6591,-2.6591,-1.0428,-1.042,-1.044,-1.0621,-1.0532,-1.0416,-1.0413,-1.046,-1.0581,-1.0792,-1.1035,-1.1323,-1.1637,-1.2164,-1.2851,-1.3653,-1.4309,-1.4689,-1.4784,-1.501,-1.5364,-1.5818,-1.6366,-1.6767,-1.6934,-1.7328,-1.7582,-1.7582,-1.7582,-1.7582,-1.7582,-1.7582,-1.7582,-1.7582,-1.7582,-1.7582,-1.7582,-1.7582,-1.7582,-1.7582,-1.7582,-1.7582,-1.7582,-1.7582,-1.7582,-1.7582,-1.7582,-1.7582,-1.7582,-1.7582,-1.7582,-1.7582,-1.7582,-1.7582,-1.7582,-1.7483,-1.7166,-1.6849,-1.6749,-1.643,-1.6105,-1.6205,-1.6282,-1.6308,-1.6575,-1.6897,-1.7123,-1.7487,-1.7855,-1.8311,-1.8765,-1.8874,-1.8997,-1.9366,-1.9366,-1.9366,-1.9366,-1.9366,-1.9366,-1.9366,-1.9366,-1.9366,-1.9366,-1.9366,-1.9366,-1.9366,-1.9366,-1.9366,-1.9366,-1.9366,-1.9366,-1.9366,-1.9366,-1.9366,-1.9366,-1.9366,-1.9707,-2.027,-2.027,-2.106,-2.2974,-2.2305,-2.2757,-2.4778,-2.4667,-2.5348,-2.6591,-2.6591,-2.6591,-2.6591,-2.6591,-2.6591,-1.0732,-1.0449,-1.0152,-1.067,-1.0513,-1.0365,-1.1069,-1.0863,-1.0742,-1.1396,-1.1583,-1.179,-1.2311,-1.2712,-1.3227,-1.4055,-1.4376,-1.4649,-1.5017,-1.5257,-1.5618,-1.6206,-1.6526,-1.682,-1.7121,-1.7415,-1.7582,-1.7582,-1.7582,-1.7582,-1.7582,-1.7582,-1.7582,-1.7582,-1.7582,-1.7582,-1.7582,-1.7582,-1.7582,-1.7582,-1.7582,-1.7582,-1.7582,-1.7582,-1.7582,-1.7582,-1.7582,-1.7582,-1.7582,-1.7582,-1.7582,-1.7582,-1.7582,-1.7582,-1.7483,-1.7279,-1.6861,-1.6217,-1.5998,-1.5779,-1.547,-1.5529,-1.5608,-1.5643,-1.6594,-1.6744,-1.6872,-1.7307,-1.7726,-1.796,-1.8538,-1.8648,-1.8771,-1.9127,-1.9133,-1.9133,-1.9133,-1.9133,-1.9133,-1.9133,-1.9243,-1.9243,-1.9243,-1.9366,-1.9366,-1.9366,-1.9366,-1.9366,-1.9366,-1.9366,-1.9366,-1.9366,-1.9366,-1.9366,-1.9366,-1.9366,-1.9822,-2.0723,-1.9931,-2.027,-2.2078,-2.0608,-2.1288,-2.4326,-2.3768,-2.4445,-2.6591,-2.6591,-2.6591,-2.6591,-2.6591,-2.6591,-1.0641,-1.0663,-1.064,-1.0568,-0.9897,-0.9549,-1.0423,-1.0624,-1.0866,-1.1663,-1.2051,-1.2338,-1.2728,-1.3186,-1.3781,-1.4389,-1.4502,-1.4716,-1.5284,-1.5384,-1.5618,-1.6206,-1.6526,-1.682,-1.7121,-1.7415,-1.7582,-1.7582,-1.7582,-1.7582,-1.7582,-1.7582,-1.7582,-1.7582,-1.7582,-1.7582,-1.7582,-1.7582,-1.7582,-1.7582,-1.7582,-1.7582,-1.7582,-1.7582,-1.7582,-1.7582,-1.7582,-1.7582,-1.7582,-1.7582,-1.7582,-1.7582,-1.7582,-1.7483,-1.7179,-1.7179,-1.6861,-1.6111,-1.512,-1.4589,-1.431,-1.4636,-1.4085,-1.374,-1.6281,-1.6419,-1.5908,-1.712,-1.7485,-1.7602,-1.7966,-1.8083,-1.8083,-1.8421,-1.8421,-1.8421,-1.8421,-1.8421,-1.8421,-1.8421,-1.8765,-1.8997,-1.8997,-1.9243,-1.9366,-1.9366,-1.9366,-1.9366,-1.9366,-1.9366,-1.9366,-1.9366,-1.9366,-1.9366,-1.9366,-1.9366,-1.9482,-1.9482,-1.9482,-1.9482,-1.9591,-2.0615,-2.1737,-2.3087,-2.4103,-2.534,-2.6591,-2.6591,-2.6591,-2.6591,-2.6591,-2.6591,-1.0919,-1.0892,-1.0864,-1.1049,-1.069,-1.0468,-1.0982,-1.1383,-1.179,-1.2378,-1.2659,-1.2959,-1.3253,-1.3788,-1.4262,-1.4482,-1.4823,-1.5144,-1.5364,-1.5712,-1.6092,-1.6493,-1.68,-1.7094,-1.7388,-1.7515,-1.7582,-1.7582,-1.7582,-1.7582,-1.7582,-1.7582,-1.7582,-1.7582,-1.7582,-1.7582,-1.7582,-1.7582,-1.7582,-1.7582,-1.7582,-1.7582,-1.7582,-1.7582,-1.7582,-1.7582,-1.7582,-1.7582,-1.7582,-1.7582,-1.7582,-1.7582,-1.7378,-1.7166,-1.6849,-1.6749,-1.5891,-1.4922,-1.4487,-1.3821,-1.3182,-1.3372,-1.3301,-1.3486,-1.5313,-1.5742,-1.5811,-1.712,-1.7485,-1.7602,-1.7966,-1.7972,-1.8083,-1.8305,-1.8421,-1.8421,-1.8421,-1.8421,-1.8421,-1.8421,-1.8648,-1.8874,-1.8874,-1.912,-1.9366,-1.9366,-1.9366,-1.9366,-1.9366,-1.9366,-1.9366,-1.9366,-1.9366,-1.9366,-1.9366,-1.9366,-1.9366,-1.9366,-1.9366,-1.9366,-1.9366,-1.9822,-2.0615,-2.1851,-2.3095,-2.4214,-2.5459,-2.6245,-2.6591,-2.6591,-2.6591,-2.6591,-1.1182,-1.1083,-1.0971,-1.1341,-1.1358,-1.1343,-1.1637,-1.2091,-1.2525,-1.2832,-1.328,-1.3661,-1.3761,-1.4262,-1.4663,-1.4663,-1.5077,-1.5464,-1.5651,-1.6019,-1.6413,-1.68,-1.7021,-1.7268,-1.7555,-1.7582,-1.7582,-1.7582,-1.7582,-1.7582,-1.7582,-1.7582,-1.7582,-1.7582,-1.7582,-1.7582,-1.7582,-1.7582,-1.7582,-1.7582,-1.7582,-1.7582,-1.7582,-1.7582,-1.7582,-1.7582,-1.7582,-1.7582,-1.7582,-1.7582,-1.7582,-1.7378,-1.6842,-1.6405,-1.5974,-1.5441,-1.4476,-1.3619,-1.3181,-1.2664,-1.2073,-1.2131,-1.2153,-1.2434,-1.4254,-1.4616,-1.4733,-1.6408,-1.6885,-1.7003,-1.7726,-1.7849,-1.7843,-1.8071,-1.8064,-1.8064,-1.8064,-1.8064,-1.8064,-1.8064,-1.8421,-1.8655,-1.8655,-1.8894,-1.9127,-1.9243,-1.9243,-1.9243,-1.9366,-1.9366,-1.9366,-1.9366,-1.9366,-1.9366,-1.9366,-1.9366,-1.9366,-1.9366,-1.9366,-1.9366,-1.9366,-1.9366,-2.0162,-2.1737,-2.2531,-2.3768,-2.5348,-2.6245,-2.6591,-2.6591,-2.6591,-2.6591,-1.1361,-1.1295,-1.1001,-1.1334,-1.1678,-1.1944,-1.2238,-1.2532,-1.2916,-1.3153,-1.3908,-1.4429,-1.4142,-1.4569,-1.4963,-1.497,-1.5211,-1.5605,-1.6192,-1.6279,-1.6493,-1.7081,-1.7154,-1.7268,-1.7555,-1.7582,-1.7582,-1.7582,-1.7582,-1.7582,-1.7582,-1.7582,-1.7582,-1.7582,-1.7582,-1.7582,-1.7582,-1.7582,-1.7582,-1.7582,-1.7582,-1.7582,-1.7582,-1.7582,-1.7582,-1.7582,-1.7582,-1.7582,-1.7582,-1.7582,-1.7378,-1.7067,-1.5855,-1.5102,-1.4465,-1.3259,-1.262,-1.2195,-1.1109,-1.0794,-1.0976,-1.1151,-1.0526,-1.0112,-1.2888,-1.2711,-1.223,-1.4857,-1.5575,-1.593,-1.7126,-1.7485,-1.7485,-1.7485,-1.7485,-1.7485,-1.7485,-1.7485,-1.7485,-1.7485,-1.7726,-1.7972,-1.7972,-1.8194,-1.8532,-1.8881,-1.8874,-1.9004,-1.9366,-1.9366,-1.9366,-1.9366,-1.9366,-1.9366,-1.9366,-1.9366,-1.9366,-1.9366,-1.9366,-1.9366,-1.9366,-1.9366,-2.05,-2.2869,-2.2982,-2.4223,-2.6591,-2.6591,-2.6591,-2.6591,-2.6591,-2.6591,-1.0467,-1.0621,-1.0716,-1.1255,-1.1654,-1.1997,-1.2573,-1.2852,-1.3213,-1.3721,-1.4035,-1.4255,-1.4369,-1.471,-1.503,-1.5237,-1.5511,-1.5838,-1.6219,-1.6446,-1.672,-1.7108,-1.7328,-1.7488,-1.7575,-1.7582,-1.7582,-1.7582,-1.7582,-1.7582,-1.7582,-1.7582,-1.7582,-1.7582,-1.7582,-1.7582,-1.7582,-1.7582,-1.7582,-1.7582,-1.7582,-1.7582,-1.7582,-1.7582,-1.7582,-1.7582,-1.7582,-1.7582,-1.7582,-1.6717,-1.5861,-1.5001,-1.425,-1.3825,-1.3609,-1.2847,-1.1978,-1.1126,-1.0929,-1.0424,-0.991,-1.0072,-0.9993,-1.0006,-1.1732,-1.1989,-1.223,-1.4857,-1.5575,-1.593,-1.7126,-1.7485,-1.7485,-1.7485,-1.7485,-1.7485,-1.7485,-1.7485,-1.7485,-1.7485,-1.7726,-1.7972,-1.7972,-1.8194,-1.8421,-1.8532,-1.8765,-1.9004,-1.9366,-1.9366,-1.9366,-1.9366,-1.9243,-1.912,-1.9366,-1.912,-1.912,-1.9366,-1.9366,-1.9366,-1.9366,-1.9366,-1.9707,-2.05,-2.2191,-2.3311,-2.4103,-2.5798,-2.6591,-2.6591,-2.6591,-2.6591,-1.0,-1.0208,-1.0516,-1.1229,-1.165,-1.2058,-1.2766,-1.3166,-1.3514,-1.3988,-1.4275,-1.4449,-1.4509,-1.495,-1.5331,-1.5384,-1.5738,-1.6112,-1.64,-1.67,-1.6994,-1.7288,-1.7475,-1.7582,-1.7582,-1.7582,-1.7582,-1.7582,-1.7582,-1.7582,-1.7582,-1.7582,-1.7582,-1.7582,-1.7582,-1.7582,-1.7582,-1.7582,-1.7582,-1.7582,-1.7582,-1.7582,-1.7582,-1.7582,-1.7582,-1.7582,-1.7582,-1.7364,-1.6829,-1.6074,-1.4888,-1.3712,-1.2738,-1.2309,-1.22,-1.1332,-1.057,-1.0048,-1.0216,-0.982,-0.9405,-0.9561,-0.9703,-0.994,-1.0668,-1.0906,-1.1386,-1.3421,-1.4381,-1.5095,-1.6408,-1.7126,-1.7485,-1.7485,-1.7485,-1.7485,-1.7485,-1.7485,-1.7485,-1.7485,-1.7608,-1.7843,-1.7843,-1.7954,-1.8071,-1.8194,-1.8648,-1.9004,-1.9366,-1.9366,-1.9366,-1.9366,-1.912,-1.8997,-1.9366,-1.912,-1.8997,-1.9366,-1.9366,-1.9366,-1.9366,-1.9366,-1.9597,-2.0162,-2.1964,-2.3207,-2.3768,-2.5688,-2.6591,-2.6591,-2.6591,-2.6591,-0.9751,-1.0022,-1.0294,-1.1202,-1.171,-1.2204,-1.3026,-1.3454,-1.3768,-1.4062,-1.4549,-1.4856,-1.4643,-1.5251,-1.5712,-1.5478,-1.5905,-1.6373,-1.6667,-1.6961,-1.7255,-1.7549,-1.7582,-1.7582,-1.7582,-1.7582,-1.7582,-1.7582,-1.7582,-1.7582,-1.7582,-1.7582,-1.7582,-1.7582,-1.7582,-1.7582,-1.7582,-1.7582,-1.7582,-1.7582,-1.7582,-1.7582,-1.7582,-1.7582,-1.7582,-1.7582,-1.7582,-1.6935,-1.5749,-1.5423,-1.4352,-1.2856,-1.1437,-1.0781,-1.0457,-0.9265,-0.8947,-0.8981,-0.9123,-0.9273,-0.9425,-0.9581,-0.9717,-0.9822,-0.9822,-0.9822,-1.0061,-1.139,-1.2711,-1.4023,-1.5213,-1.6526,-1.7485,-1.7361,-1.7361,-1.7485,-1.7485,-1.7485,-1.7485,-1.7485,-1.7485,-1.7485,-1.7485,-1.7485,-1.7602,-1.7966,-1.8421,-1.9004,-1.9366,-1.9366,-1.9366,-1.9366,-1.912,-1.8997,-1.9366,-1.912,-1.8997,-1.9366,-1.9366,-1.9366,-1.9366,-1.9366,-1.9931,-2.106,-2.2305,-2.3544,-2.4667,-2.5916,-2.6591,-2.6591,-2.6591,-2.6591,-0.8978,-0.9437,-1.004,-1.1149,-1.2178,-1.2973,-1.3166,-1.3614,-1.4075,-1.4369,-1.4529,-1.4736,-1.513,-1.5364,-1.5545,-1.5712,-1.6039,-1.6373,-1.6667,-1.6961,-1.7255,-1.7549,-1.7582,-1.7582,-1.7582,-1.7582,-1.7582,-1.7582,-1.7582,-1.7582,-1.7582,-1.7582,-1.7582,-1.7582,-1.7582,-1.7582,-1.7582,-1.7582,-1.7582,-1.7582,-1.7582,-1.7582,-1.7582,-1.7582,-1.7582,-1.7582,-1.7582,-1.6393,-1.446,-1.4132,-1.2842,-1.0907,-1.0029,-0.9702,-0.9596,-0.9047,-0.9011,-0.9127,-0.9279,-0.9432,-0.9585,-0.973,-0.9795,-0.9822,-0.9822,-0.9822,-1.0061,-1.139,-1.2711,-1.4023,-1.5213,-1.6526,-1.7244,-1.629,-1.6767,-1.7485,-1.7485,-1.7485,-1.7485,-1.7485,-1.7485,-1.7485,-1.7485,-1.7485,-1.7602,-1.7966,-1.8083,-1.8428,-1.8887,-1.8997,-1.912,-1.9366,-1.912,-1.8997,-1.9366,-1.912,-1.8997,-1.9366,-1.9366,-1.9366,-1.9366,-1.9366,-1.9482,-1.9822,-2.1851,-2.3087,-2.3432,-2.5569,-2.6591,-2.6591,-2.6591,-2.6591,-0.8528,-0.9132,-0.996,-1.1136,-1.2325,-1.3213,-1.3213,-1.3667,-1.4208,-1.4643,-1.473,-1.487,-1.5311,-1.5504,-1.5698,-1.5992,-1.6286,-1.6587,-1.6874,-1.7174,-1.7415,-1.7562,-1.7582,-1.7582,-1.7582,-1.7582,-1.7582,-1.7582,-1.7582,-1.7582,-1.7582,-1.7582,-1.7582,-1.7582,-1.7582,-1.7582,-1.7582,-1.7582,-1.7582,-1.7582,-1.7582,-1.7582,-1.7582,-1.7582,-1.7582,-1.7582,-1.7041,-1.5749,-1.4024,-1.3053,-1.1655,-1.0036,-0.9379,-0.9158,-0.9158,-0.894,-0.9028,-0.9174,-0.9327,-0.9483,-0.9632,-0.9774,-0.9822,-0.9822,-0.9822,-0.9822,-0.994,-1.0543,-1.1748,-1.2946,-1.354,-1.4738,-1.5451,-1.4857,-1.6166,-1.7361,-1.6762,-1.712,-1.7485,-1.7485,-1.7485,-1.7485,-1.7485,-1.7485,-1.7602,-1.7966,-1.7972,-1.82,-1.8881,-1.8874,-1.8997,-1.9366,-1.9004,-1.8771,-1.912,-1.8777,-1.8655,-1.912,-1.9127,-1.9243,-1.9366,-1.9366,-1.9366,-1.9366,-2.1737,-2.2974,-2.2982,-2.5459,-2.6591,-2.6591,-2.6591,-2.6591,-0.8277,-0.9085,-1.0094,-1.1162,-1.2285,-1.3146,-1.32,-1.3667,-1.4242,-1.4776,-1.493,-1.507,-1.5404,-1.5665,-1.5925,-1.6226,-1.652,-1.6807,-1.7108,-1.7402,-1.7582,-1.7582,-1.747,-1.7364,-1.7582,-1.747,-1.7364,-1.7582,-1.7582,-1.7582,-1.7582,-1.7582,-1.7582,-1.7582,-1.7582,-1.7582,-1.7582,-1.7582,-1.7582,-1.7582,-1.7582,-1.7582,-1.7582,-1.7364,-1.7259,-1.7259,-1.6187,-1.4995,-1.3599,-1.2082,-1.0785,-0.9706,-0.9158,-0.894,-0.8944,-0.8967,-0.9066,-0.9215,-0.9367,-0.952,-0.9666,-0.9781,-0.9822,-0.9822,-0.9822,-0.9822,-0.9822,-0.9822,-1.0668,-1.1752,-1.1752,-1.2706,-1.3665,-1.3426,-1.5095,-1.6644,-1.5811,-1.6408,-1.7244,-1.7479,-1.7485,-1.7485,-1.7485,-1.7485,-1.7602,-1.7849,-1.7966,-1.8077,-1.8765,-1.8758,-1.8997,-1.9249,-1.8771,-1.8532,-1.8765,-1.8428,-1.8311,-1.8874,-1.8997,-1.912,-1.9366,-1.9366,-1.9366,-1.9366,-2.1737,-2.2974,-2.2982,-2.5459,-2.6591,-2.6591,-2.6591,-2.6591,-0.8223,-0.9442,-1.0601,-1.1263,-1.2124,-1.2879,-1.3153,-1.3667,-1.4182,-1.4509,-1.4783,-1.513,-1.5671,-1.5805,-1.5925,-1.6226,-1.652,-1.6807,-1.7108,-1.7402,-1.7582,-1.7582,-1.6723,-1.6505,-1.7477,-1.6717,-1.6505,-1.7582,-1.7582,-1.7582,-1.7582,-1.7582,-1.7582,-1.7582,-1.7582,-1.7582,-1.7582,-1.7582,-1.7582,-1.7582,-1.7582,-1.7582,-1.7582,-1.628,-1.5855,-1.6074,-1.5435,-1.4035,-1.2195,-1.1433,-1.046,-0.9379,-0.9047,-0.894,-0.8954,-0.9079,-0.9222,-0.9371,-0.9527,-0.9673,-0.9795,-0.9815,-0.9822,-0.9822,-0.9822,-0.9822,-0.9822,-0.9822,-1.0668,-1.1752,-1.1752,-1.2706,-1.3426,-1.223,-1.3066,-1.45,-1.5451,-1.5688,-1.6172,-1.7244,-1.7485,-1.7485,-1.7485,-1.7485,-1.7485,-1.7602,-1.7602,-1.7837,-1.8421,-1.8415,-1.8655,-1.8881,-1.8881,-1.8765,-1.8532,-1.8648,-1.8765,-1.8874,-1.9127,-1.9366,-1.9366,-1.9366,-1.9366,-1.9366,-2.1737,-2.2974,-2.2982,-2.5459,-2.6591,-2.6591,-2.6591,-2.6591,-0.8604,-0.9566,-1.0488,-1.1243,-1.1964,-1.2619,-1.31,-1.354,-1.3968,-1.4429,-1.4623,-1.4897,-1.5478,-1.5718,-1.5925,-1.6226,-1.652,-1.6807,-1.7108,-1.7402,-1.7364,-1.6723,-1.618,-1.5861,-1.5642,-1.5749,-1.6074,-1.6611,-1.7259,-1.7582,-1.7582,-1.7582,-1.7582,-1.7582,-1.7582,-1.7582,-1.7582,-1.7582,-1.7582,-1.7582,-1.6935,-1.6935,-1.7582,-1.5429,-1.5001,-1.5755,-1.3922,-1.263,-1.1873,-1.068,-0.9812,-0.9379,-0.9047,-0.894,-0.8957,-0.91,-0.9249,-0.9401,-0.9557,-0.9703,-0.9822,-0.9822,-0.9822,-0.9822,-0.9822,-0.9822,-0.9822,-0.9822,-1.0183,-1.0664,-1.0664,-1.1023,-1.1386,-1.0785,-1.1144,-1.2105,-1.4143,-1.5095,-1.593,-1.7244,-1.7485,-1.7485,-1.7485,-1.7485,-1.7485,-1.7485,-1.7485,-1.7719,-1.8077,-1.8194,-1.8305,-1.8881,-1.8655,-1.8428,-1.8421,-1.8181,-1.8298,-1.8648,-1.8771,-1.901,-1.9366,-2.0046,-2.0385,-2.0385,-2.2078,-2.2974,-2.2982,-2.5459,-2.6591,-2.6591,-2.6591,-2.6591,-0.8738,-0.9446,-1.0107,-1.0989,-1.1703,-1.2331,-1.2859,-1.3327,-1.3768,-1.4208,-1.4416,-1.4656,-1.509,-1.5471,-1.5845,-1.6213,-1.6453,-1.6727,-1.7094,-1.712,-1.6746,-1.5962,-1.5322,-1.4781,-1.4132,-1.4888,-1.5535,-1.5861,-1.6723,-1.7153,-1.7153,-1.6829,-1.6829,-1.7153,-1.7153,-1.7153,-1.7153,-1.7153,-1.7259,-1.7582,-1.6393,-1.618,-1.6935,-1.4358,-1.3712,-1.4674,-1.2403,-1.1437,-1.1332,-0.9923,-0.9268,-0.9268,-0.9047,-0.894,-0.896,-0.9144,-0.9283,-0.9408,-0.9598,-0.9734,-0.9822,-0.9822,-0.9822,-0.9822,-0.9822,-0.9822,-0.9822,-0.9822,-0.9822,-0.9822,-0.9822,-0.9822,-0.9822,-0.9822,-0.9822,-1.0543,-1.3186,-1.4976,-1.6408,-1.7361,-1.7485,-1.7485,-1.7485,-1.7485,-1.7485,-1.7485,-1.7485,-1.7608,-1.7972,-1.7972,-1.82,-1.8648,-1.8311,-1.8083,-1.8188,-1.7837,-1.7837,-1.8305,-1.8421,-1.8771,-1.9243,-2.027,-2.0838,-2.1174,-2.2418,-2.3199,-2.3424,-2.5229,-2.6245,-2.6591,-2.6591,-2.6591,-0.825,-0.8844,-0.9499,-1.0381,-1.1323,-1.1977,-1.2278,-1.3019,-1.3654,-1.3599,-1.4135,-1.4529,-1.4563,-1.5037,-1.5605,-1.6179,-1.6286,-1.6493,-1.7068,-1.6213,-1.5578,-1.5831,-1.3922,-1.2955,-1.4024,-1.4132,-1.4674,-1.5855,-1.5968,-1.5968,-1.5968,-1.4888,-1.4781,-1.5968,-1.5968,-1.5968,-1.5968,-1.5968,-1.6505,-1.7582,-1.6168,-1.5417,-1.5417,-1.2837,-1.1651,-1.1755,-1.1324,-1.068,-0.9812,-0.9158,-0.8937,-0.894,-0.894,-0.894,-0.8974,-0.9262,-0.9374,-0.9422,-0.971,-0.9815,-0.9822,-0.9822,-0.9822,-0.9822,-0.9822,-0.9822,-0.9822,-0.9822,-0.9822,-0.9822,-0.9822,-0.9822,-0.9822,-0.9822,-0.9822,-1.0543,-1.3186,-1.5693,-1.7361,-1.7479,-1.7485,-1.7485,-1.7485,-1.7485,-1.7485,-1.7485,-1.7485,-1.7608,-1.7972,-1.7972,-1.7966,-1.8083,-1.7972,-1.7849,-1.7602,-1.7849,-1.7972,-1.7972,-1.8538,-1.8881,-1.8881,-1.9243,-2.0046,-2.1174,-2.2418,-2.3544,-2.4667,-2.4787,-2.5459,-2.6591,-2.6591,-2.6591,-0.8259,-0.8664,-0.9218,-1.0294,-1.0935,-1.1483,-1.2151,-1.2852,-1.342,-1.3519,-1.3961,-1.4302,-1.4482,-1.5003,-1.5464,-1.5678,-1.6025,-1.6346,-1.656,-1.5828,-1.5106,-1.4517,-1.3179,-1.2173,-1.1973,-1.263,-1.3166,-1.3599,-1.4352,-1.4781,-1.4781,-1.4347,-1.4347,-1.4781,-1.4781,-1.4781,-1.4781,-1.4781,-1.4995,-1.5316,-1.403,-1.3809,-1.4234,-1.1873,-1.1004,-1.1433,-1.046,-0.9812,-0.9489,-0.9047,-0.894,-0.894,-0.894,-0.894,-0.8974,-0.9273,-0.9381,-0.9422,-0.972,-0.9822,-0.9822,-0.9822,-0.9822,-0.9822,-0.9822,-0.9822,-0.9822,-0.9822,-0.9822,-0.9822,-0.9822,-0.9822,-0.9822,-0.9822,-1.0425,-1.1511,-1.3306,-1.5693,-1.7485,-1.7485,-1.7485,-1.7485,-1.7485,-1.7485,-1.7485,-1.7485,-1.7485,-1.7485,-1.7608,-1.7726,-1.7726,-1.7966,-1.7849,-1.7726,-1.7849,-1.7726,-1.7726,-1.7972,-1.82,-1.8538,-1.8881,-1.9795,-2.0594,-2.1174,-2.1623,-2.2862,-2.4778,-2.5569,-2.6136,-2.6591,-2.6591,-2.6591,-0.7977,-0.8357,-0.8898,-0.9873,-1.0488,-1.1049,-1.183,-1.2472,-1.2986,-1.328,-1.3661,-1.3995,-1.4195,-1.4703,-1.5164,-1.5364,-1.5725,-1.6046,-1.6246,-1.5239,-1.4236,-1.3647,-1.2321,-1.1252,-1.0699,-1.1675,-1.2346,-1.2413,-1.3058,-1.3491,-1.3491,-1.3166,-1.3166,-1.3491,-1.3491,-1.3701,-1.4132,-1.3706,-1.3706,-1.4132,-1.2842,-1.2516,-1.2945,-1.1008,-1.0359,-1.0566,-0.9702,-0.9379,-0.9379,-0.9047,-0.894,-0.894,-0.894,-0.8967,-0.9039,-0.9289,-0.9415,-0.9493,-0.9737,-0.9822,-0.9822,-0.9822,-0.9822,-0.9822,-0.9822,-0.9822,-0.9822,-0.9822,-0.9822,-0.9822,-0.9822,-0.9822,-0.9822,-0.9822,-1.1148,-1.259,-1.3545,-1.5332,-1.7003,-1.7361,-1.7485,-1.7485,-1.7485,-1.7485,-1.7485,-1.7485,-1.7485,-1.7485,-1.7485,-1.7485,-1.7602,-1.7849,-1.7602,-1.7602,-1.7849,-1.7602,-1.7602,-1.7849,-1.7966,-1.82,-1.8765,-1.955,-2.0472,-2.1174,-2.1623,-2.2636,-2.4214,-2.5008,-2.5798,-2.6591,-2.6591,-2.6591,0.0,0.0,0.0,-0.9078,-0.9893,-1.0695,-1.1269,-1.187,-1.2385,-1.2748,-1.3213,-1.3552,-1.3559,-1.4108,-1.4689,-1.5277,-1.5378,-1.5585,-1.6166,-1.4359,-1.3063,-1.3405,-1.1488,-1.0225,-1.0408,-1.1482,-1.2195,-1.2285,-1.2299,-1.2299,-1.2304,-1.1341,-1.1232,-1.2309,-1.2304,-1.2847,-1.4024,-1.295,-1.2955,-1.4024,-1.263,-1.176,-1.1433,-1.0245,-0.9489,-0.894,-0.9268,-0.9379,-0.9379,-0.9047,-0.894,-0.894,-0.894,-0.9025,-0.9171,-0.9323,-0.9479,-0.9632,-0.9771,-0.9822,-0.9822,-0.9822,-0.9822,-0.9822,-0.9822,-0.9822,-0.9822,-0.9822,-0.9822,-0.9822,-0.9822,-0.9822,-0.9822,-0.9822,-1.1744,-1.3665,-1.3665,-1.4738,-1.593,-1.7244,-1.7485,-1.7485,-1.7485,-1.7485,-1.7485,-1.7485,-1.7485,-1.7485,-1.7485,-1.7485,-1.7485,-1.7485,-1.7485,-1.7485,-1.7485,-1.7485,-1.7485,-1.7485,-1.7849,-1.8083,-1.8421,-1.8765,-1.957,-2.1067,-2.2305,-2.2862,-2.2974,-2.3095,-2.4334,-2.6582,-2.6591,-2.6591,-0.7426,0.0,0.0,0.0,0.0,0.0,-1.0715,-1.1577,-1.2325,-1.2412,-1.2906,-1.3394,-1.3519,-1.3774,-1.4075,-1.4663,-1.4943,-1.5211,-1.5585,-1.382,-1.2635,-1.3041,-1.1277,-1.0034,-1.0221,-1.0548,-1.0835,-1.0915,-1.0928,-1.0987,-1.1114,-1.0907,-1.0798,-1.1122,-1.1122,-1.1341,-1.166,-1.1341,-1.1341,-1.1664,-1.1013,-1.0578,-1.0249,-0.9706,-0.9268,-0.894,-0.9047,-0.9047,-0.9047,-0.8937,-0.894,-0.894,-0.894,-0.9025,-0.9171,-0.9323,-0.9479,-0.9632,-0.9771,-0.9822,-0.9822,-0.9822,-0.9822,-0.9822,-0.9822,-0.9822,-0.9822,-0.9822,-0.9822,-0.9822,-0.9822,-0.9822,-0.9822,-0.9822,-1.1023,-1.247,-1.3545,-1.4738,-1.593,-1.7244,-1.7485,-1.7485,-1.7485,-1.7485,-1.7485,-1.7485,-1.7485,-1.7485,-1.7485,-1.7485,-1.7485,-1.7485,-1.7485,-1.7485,-1.7485,-1.7485,-1.7485,-1.7485,-1.7602,-1.7837,-1.8421,-1.8532,-1.9004,-1.9931,-2.027,-2.0838,-2.1737,-2.4334,-2.5459,-2.5348,-2.6136,-2.6591,-0.7268,-0.7595,-0.7995,-0.851,0.0,0.0,-1.0497,-1.1089,-1.1677,-1.2044,-1.2498,-1.2919,-1.3213,-1.3373,-1.3614,-1.4075,-1.4302,-1.4603,-1.5137,-1.3436,-1.224,-1.2518,-1.0886,-0.9738,-0.992,-1.0006,-1.0123,-1.0306,-1.0322,-1.04,-1.0574,-1.0586,-1.0615,-1.0688,-1.0692,-1.0692,-1.0692,-1.0692,-1.0692,-1.0692,-1.0476,-1.0147,-0.9816,-0.9489,-0.9268,-0.894,-0.894,-0.894,-0.894,-0.894,-0.894,-0.894,-0.894,-0.9066,-0.9259,-0.9347,-0.9513,-0.971,-0.9791,-0.9822,-0.9822,-0.9822,-0.9822,-0.9822,-0.9822,-0.9822,-0.9822,-0.9822,-0.9822,-0.9822,-0.9822,-0.9822,-0.9822,-0.9822,-1.0789,-1.2113,-1.3426,-1.4738,-1.593,-1.7244,-1.7485,-1.7485,-1.7485,-1.7485,-1.7485,-1.7485,-1.7485,-1.7485,-1.7485,-1.7485,-1.7485,-1.7485,-1.7485,-1.7485,-1.7485,-1.7485,-1.7485,-1.7485,-1.7485,-1.7719,-1.8421,-1.8421,-1.8777,-1.9366,-1.9931,-2.0723,-2.1964,-2.4103,-2.5229,-2.5569,-2.6254,-2.6591,-0.7208,-0.7497,-0.8043,-0.831,-0.8811,0.0,-1.0234,-1.0557,-1.0846,-1.1632,-1.1977,-1.2305,-1.2714,-1.2926,-1.322,-1.354,-1.3594,-1.3901,-1.479,-1.326,-1.1984,-1.2011,-1.0439,-0.9388,-0.9555,-0.9726,-0.99,-1.0091,-1.014,-1.0233,-1.0396,-1.0424,-1.0505,-1.066,-1.068,-1.0692,-1.0692,-1.0692,-1.0692,-1.0692,-1.0366,-1.0036,-0.9816,-0.9489,-0.9158,-0.894,-0.894,-0.894,-0.894,-0.894,-0.894,-0.894,-0.894,-0.912,-0.9381,-0.9381,-0.9568,-0.9822,-0.9822,-0.9822,-0.9822,-0.9822,-0.9822,-0.9822,-0.9822,-0.9822,-0.9822,-0.9822,-0.9822,-0.9822,-0.9822,-0.9822,-0.9822,-0.9822,-1.0789,-1.2113,-1.3426,-1.4738,-1.593,-1.7244,-1.7485,-1.7485,-1.7485,-1.7485,-1.7485,-1.7485,-1.7485,-1.7485,-1.7485,-1.7485,-1.7485,-1.7485,-1.7485,-1.7485,-1.7485,-1.7485,-1.7485,-1.7485,-1.7485,-1.7719,-1.8421,-1.8421,-1.8777,-1.9366,-2.05,-2.1623,-2.2757,-2.2757,-2.3991,-2.6245,-2.6364,-2.6364,-0.7836,-0.8016,-0.8303,-0.8357,-0.8811,0.0,-0.9402,-1.0053,-1.0672,-1.0846,-1.1236,-1.1757,-1.2291,-1.2438,-1.2659,-1.3206,-1.3293,-1.3601,-1.4482,-1.2898,-1.1801,-1.1989,-1.032,-0.9161,-0.9198,-0.9356,-0.9535,-0.9717,-0.9998,-1.0176,-1.0213,-1.0355,-1.0448,-1.0485,-1.0619,-1.0692,-1.0692,-1.0692,-1.0692,-1.0692,-1.0143,-0.9816,-0.9816,-0.9268,-0.894,-0.894,-0.894,-0.894,-0.894,-0.894,-0.894,-0.894,-0.894,-0.912,-0.9381,-0.9381,-0.9568,-0.9822,-0.9822,-0.9822,-0.9822,-0.9822,-0.9822,-0.9822,-0.9822,-0.9822,-0.9822,-0.9822,-0.9822,-0.9822,-0.9822,-0.9822,-0.9822,-0.9822,-1.0789,-1.2113,-1.3426,-1.4738,-1.593,-1.7244,-1.7485,-1.7485,-1.7485,-1.7485,-1.7485,-1.7485,-1.7485,-1.7485,-1.7485,-1.7485,-1.7485,-1.7485,-1.7485,-1.7485,-1.7485,-1.7485,-1.7485,-1.7485,-1.7485,-1.7719,-1.8421,-1.8421,-1.8777,-1.9366,-1.9597,-2.0385,-2.1509,-2.1509,-2.2297,-2.3768,-2.4667,-2.5119,-0.827,-0.8263,-0.8427,-0.8427,-0.8704,0.0,0.0,-0.9586,-0.9987,-1.0281,-1.0688,-1.1129,-1.157,-1.1764,-1.2011,-1.2465,-1.2665,-1.2966,-1.3554,-1.2277,-1.1278,-1.1483,-1.0012,-0.8958,-0.8958,-0.912,-0.9299,-0.9478,-0.9657,-0.9835,-1.0014,-1.0111,-1.0245,-1.0428,-1.0517,-1.0603,-1.0692,-1.0692,-1.0692,-1.0692,-1.0036,-0.9816,-0.9816,-0.9158,-0.894,-0.894,-0.894,-0.894,-0.894,-0.894,-0.894,-0.894,-0.894,-0.9072,-0.9276,-0.9354,-0.9523,-0.9727,-0.9795,-0.9822,-0.9822,-0.9822,-0.9822,-0.9822,-0.9822,-0.9822,-0.9822,-0.9822,-0.9822,-0.9822,-0.9822,-0.9822,-0.9822,-0.9822,-1.0789,-1.2113,-1.3426,-1.4738,-1.593,-1.7244,-1.7485,-1.7485,-1.7485,-1.7485,-1.7485,-1.7485,-1.7485,-1.7485,-1.7485,-1.7485,-1.7485,-1.7485,-1.7485,-1.7485,-1.7485,-1.7485,-1.7485,-1.7485,-1.7485,-1.7719,-1.8194,-1.8305,-1.8777,-1.9366,-1.9366,-1.9707,-2.027,-2.027,-2.1174,-2.2982,-2.4214,-2.4778,-0.8851,-0.8671,-0.8617,-0.8557,-0.8717,-0.8938,0.0,0.0,0.0,-0.9846,-1.0187,-1.0481,-1.0768,-1.1062,-1.1316,-1.1503,-1.187,-1.2178,-1.2378,-1.1468,-1.0914,-1.1056,-0.9643,-0.8808,-0.8893,-0.9005,-0.9116,-0.9291,-0.9336,-0.9478,-0.9766,-0.9847,-1.0022,-1.0318,-1.0396,-1.0501,-1.0639,-1.0676,-1.0692,-1.0582,-1.0033,-0.9816,-0.9706,-0.9158,-0.894,-0.894,-0.894,-0.894,-0.894,-0.894,-0.894,-0.894,-0.894,-0.9025,-0.9171,-0.9323,-0.9479,-0.9632,-0.9771,-0.9822,-0.9822,-0.9822,-0.9822,-0.9822,-0.9822,-0.9822,-0.9822,-0.9822,-0.9822,-0.9822,-0.9822,-0.9822,-0.9822,-0.9822,-1.0789,-1.2113,-1.3426,-1.4738,-1.593,-1.7244,-1.7485,-1.7485,-1.7485,-1.7485,-1.7485,-1.7485,-1.7485,-1.7485,-1.7485,-1.7485,-1.7485,-1.7485,-1.7485,-1.7485,-1.7485,-1.7485,-1.7485,-1.7485,-1.7485,-1.7608,-1.7972,-1.8311,-1.8771,-1.9366,-1.9366,-1.9366,-1.9366,-1.9366,-2.0385,-2.2305,-2.3544,-2.4103,-1.0007,-0.9726,-0.9472,-0.9212,-0.911,-0.9077,-0.8911,0.0,-0.9203,-0.9269,0.0,-0.9873,-1.016,0.0,0.0,-1.0354,-1.0995,-1.1356,-1.094,-1.0684,-1.0848,-1.1632,-0.9726,-0.8606,-0.937,-0.9093,-0.893,-0.9112,-0.9271,-0.9372,-0.9413,-0.9713,-0.9904,-0.9945,-1.0266,-1.0444,-1.0465,-1.0615,-1.0582,-1.0366,-0.9926,-0.9706,-0.9379,-0.9051,-0.894,-0.894,-0.894,-0.894,-0.894,-0.894,-0.894,-0.894,-0.894,-0.9025,-0.9171,-0.9323,-0.9479,-0.9632,-0.9771,-0.9822,-0.9822,-0.9822,-0.9822,-0.9822,-0.9822,-0.9822,-0.9822,-0.9822,-0.9822,-0.9822,-0.9822,-0.9822,-0.9822,-0.9822,-1.0789,-1.2113,-1.3426,-1.4738,-1.593,-1.7244,-1.7485,-1.7485,-1.7485,-1.7485,-1.7485,-1.7485,-1.7485,-1.7485,-1.7485,-1.7485,-1.7485,-1.7485,-1.7485,-1.7485,-1.7485,-1.7485,-1.7485,-1.7485,-1.7485,-1.7608,-1.7972,-1.8538,-1.9004,-1.9366,-1.9366,-1.9366,-1.9366,-1.9366,-1.9597,-1.9822,-2.1067,-2.1631,-1.0955,-1.0155,-0.9505,-0.9702,-0.9382,-0.9072,-0.9266,-0.9406,-0.9446,-0.9223,0.0,0.0,0.0,0.0,0.0,0.0,-1.0321,-1.0581,-1.0334,-1.0043,-1.0107,-1.0968,-1.0006,-0.936,-0.9447,-0.894,-0.8629,-0.8913,-0.9003,-0.9133,-0.9344,-0.9498,-0.9673,-0.988,-1.0034,-1.0217,-1.0432,-1.0281,-1.026,-1.0257,-0.9816,-0.9489,-0.9379,-0.9047,-0.894,-0.894,-0.894,-0.894,-0.894,-0.894,-0.894,-0.894,-0.894,-0.8977,-0.9059,-0.9296,-0.9422,-0.951,-0.9741,-0.9822,-0.9822,-0.9822,-0.9822,-0.9822,-0.9822,-0.9822,-0.9822,-0.9822,-0.9822,-0.9822,-0.9822,-0.9822,-0.9822,-0.9822,-1.0789,-1.2113,-1.3426,-1.4738,-1.593,-1.7244,-1.7485,-1.7485,-1.7485,-1.7485,-1.7485,-1.7485,-1.7485,-1.7485,-1.7485,-1.7485,-1.7485,-1.7485,-1.7485,-1.7485,-1.7485,-1.7485,-1.7485,-1.7485,-1.7485,-1.7719,-1.8194,-1.8538,-1.8887,-1.9366,-1.9366,-1.9366,-1.9366,-1.9366,-1.9366,-1.9482,-2.0608,-2.1174,-1.141,-1.0529,-0.979,-1.0288,-0.9963,-0.9556,-0.9768,-0.98,-0.9693,-0.9263,-0.9412,0.0,0.0,0.0,-0.9512,-0.9352,0.0,-0.994,-0.978,-0.9528,-0.9737,-1.0539,-1.0416,-1.0079,-0.9674,-0.907,-0.8738,-0.9008,-0.8853,-0.8934,-0.9194,-0.9299,-0.9474,-0.9734,-0.9835,-1.0038,-1.0359,-1.0079,-1.0081,-1.0147,-0.9596,-0.9379,-0.9268,-0.9051,-0.894,-0.894,-0.894,-0.894,-0.894,-0.894,-0.894,-0.894,-0.894,-0.894,-0.8974,-0.9273,-0.9381,-0.9422,-0.972,-0.9822,-0.9822,-0.9822,-0.9822,-0.9822,-0.9822,-0.9822,-0.9822,-0.9822,-0.9822,-0.9822,-0.9822,-0.9822,-0.9822,-0.9822,-1.0789,-1.2113,-1.3426,-1.4738,-1.593,-1.7244,-1.7485,-1.7485,-1.7485,-1.7485,-1.7485,-1.7485,-1.7485,-1.7485,-1.7485,-1.7485,-1.7485,-1.7485,-1.7485,-1.7485,-1.7485,-1.7485,-1.7485,-1.7485,-1.7485,-1.7719,-1.8305,-1.8305,-1.8655,-1.9243,-1.9366,-1.9366,-1.9366,-1.9366,-1.9366,-1.9366,-2.027,-2.0723,-1.1147,-1.092,-1.0604,-1.1175,-1.1169,-1.075,-1.0234,-1.01,-0.994,-0.9303,-0.919,-0.911,-0.8878,-0.9058,-0.9072,-0.851,-0.9138,0.0,0.0,-0.9345,-1.004,-1.085,-1.092,-1.0604,-1.0011,-0.964,-0.9475,-0.9489,-0.9063,-0.8824,-0.8836,-0.9165,-0.936,-0.9372,-0.9705,-0.9977,-1.0168,-1.0016,-0.9969,-0.9816,-0.9489,-0.9268,-0.894,-0.894,-0.894,-0.894,-0.894,-0.894,-0.894,-0.894,-0.894,-0.894,-0.894,-0.894,-0.8974,-0.9273,-0.9381,-0.9422,-0.972,-0.9822,-0.9822,-0.9822,-0.9822,-0.9822,-0.9822,-0.9822,-0.9822,-0.9822,-0.9822,-0.9822,-0.9822,-0.9822,-0.9822,-0.9822,-1.0789,-1.2113,-1.3426,-1.4738,-1.593,-1.7244,-1.7485,-1.7485,-1.7485,-1.7485,-1.7485,-1.7485,-1.7485,-1.7485,-1.7485,-1.7485,-1.7485,-1.7485,-1.7485,-1.7485,-1.7485,-1.7485,-1.7485,-1.7485,-1.7485,-1.7608,-1.7972,-1.8311,-1.8532,-1.8881,-1.9243,-1.9366,-1.9366,-1.9366,-1.9366,-1.9366,-1.9482,-1.9482,-1.0974,-1.0333,-0.9958,-1.1085,-1.0748,-1.0325,-1.109,-1.0975,-1.0588,-1.0194,-0.996,-0.9673,-0.913,-0.9117,-0.9057,-0.8724,-0.8911,-0.9031,0.0,-0.9145,-0.9426,-0.9532,-0.9724,-0.9679,-0.9363,-0.9066,-0.8729,-0.8499,-0.8504,-0.8572,-0.8808,-0.8934,-0.9108,-0.9348,-0.947,-0.9738,-1.0156,-0.9906,-0.9758,-0.9816,-0.9489,-0.9268,-0.894,-0.894,-0.894,-0.894,-0.894,-0.894,-0.894,-0.894,-0.894,-0.894,-0.894,-0.894,-0.8974,-0.9273,-0.9381,-0.9422,-0.972,-0.9822,-0.9822,-0.9822,-0.9822,-0.9822,-0.9822,-0.9822,-0.9822,-0.9822,-0.9822,-0.9822,-0.9822,-0.9822,-0.9822,-0.9822,-1.0183,-1.1023,-1.3186,-1.4023,-1.4976,-1.7126,-1.7485,-1.7485,-1.7485,-1.7485,-1.7485,-1.7485,-1.7485,-1.7485,-1.7485,-1.7485,-1.7485,-1.7485,-1.7485,-1.7485,-1.7485,-1.7485,-1.7485,-1.7485,-1.7485,-1.7608,-1.7972,-1.8311,-1.8532,-1.8874,-1.9243,-1.9366,-1.9366,-1.9366,-1.9366,-1.9366,-1.9366,-1.9366,-1.0444,-0.9927,-0.9645,-1.0867,-1.0561,-1.016,-1.1045,-1.0867,-1.0448,-1.0013,-0.9709,-0.934,-0.8877,-0.8895,-0.8933,-0.8747,-0.8808,-0.8925,0.0,-0.8971,-0.9018,-0.8831,-0.9095,-0.9268,-0.9297,-0.8772,-0.8476,-0.8466,-0.8354,-0.8418,-0.8714,-0.8787,-0.8958,-0.9254,-0.9324,-0.9583,-1.0059,-0.9715,-0.9565,-0.9727,-0.935,-0.9158,-0.894,-0.894,-0.894,-0.894,-0.894,-0.894,-0.894,-0.894,-0.894,-0.894,-0.894,-0.894,-0.8974,-0.9273,-0.9449,-0.9564,-0.9754,-0.9822,-0.9822,-0.9822,-0.9822,-0.9822,-0.9822,-0.9822,-0.9822,-0.9822,-0.9822,-0.9822,-0.9822,-0.9822,-0.9822,-0.9822,-0.9822,-1.0422,-1.2586,-1.3306,-1.4262,-1.6408,-1.7244,-1.7485,-1.7485,-1.7485,-1.7485,-1.7485,-1.7485,-1.7485,-1.7485,-1.7485,-1.7485,-1.7485,-1.7485,-1.7485,-1.7485,-1.7485,-1.7485,-1.7485,-1.7485,-1.7602,-1.7849,-1.8188,-1.8532,-1.8765,-1.9127,-1.9366,-1.9366,-1.9366,-1.9366,-1.9366,-1.9366,-1.9366]}]]